     2.11           OBSERVATION DATA    G (GPS)             RINEX VERSION / TYPE
teqc 2010Oct21 OPUS Account 20111027 19:02:51UTC            PGM / RUN BY / DATE
W 1381                                                      MARKER NAME
2130                                                        MARKER NUMBER
CSMIDDLETON NGS                                             OBSERVER / AGENCY
4624K01583 TRIMBLE NETR5 4.41                               REC # / TYPE / VERS
60154430 TRM41249.00 NONE                                   ANT # / TYPE
  -760980.2545 -5553645.4376  3032724.3996                  APPROX POSITION XYZ
        2.0000        0.0000        0.0000                  ANTENNA: DELTA H/E/N
     1     1                                                WAVELENGTH FACT L1/2
     5    L1    L2    C1    P1    P2                        # / TYPES OF OBSERV
    15                                                      LEAP SECONDS
  2011     8    19     0     0    0.0000000     GPS         TIME OF FIRST OBS
                                                            END OF HEADER
 11  8 19  0  0  0.0000000  0  7G12G17G04G10G05G09G02
 116068301.50518  90442898.85417  22087063.695                    22087071.500
 119405294.70117  93043154.78517  22722072.336                    22722080.215
 110460869.99418  86073525.46256  21019990.359                    21019997.988
 110573725.56018  86161439.84956  21041464.305                    21041472.719
 120294441.88417  93735984.11917  22891259.633                    22891269.660
 120742026.69317  94084776.06954  22976455.227                    22976465.289
 108723150.71118  84719419.23456  20689305.438                    20689310.945
 11  8 19  0  0 30.0000000  0  7G12G17G04G10G05G09G02
 115990319.806 8  90382133.928 7  22072224.094                    22072232.227
 119451087.199 7  93078837.229 7  22730785.750                    22730794.305
 110528296.158 8  86126065.30046  21032821.391                    21032828.719
 110543498.655 8  86137886.44246  21035712.180                    21035720.355
 120193189.129 7  93657085.977 7  22871992.594                    22872002.184
 120808169.325 7  94136315.72144  22989041.914                    22989052.109
 108707403.719 8  84707148.88246  20686308.750                    20686314.242
 11  8 19  0  1  0.0000000  0  7G12G17G04G10G05G09G02
 115912644.405 8  90321607.675 7  22057443.031                    22057450.660
 119497005.166 7  93114617.458 7  22739523.273                    22739532.109
 110595966.719 8  86178795.58346  21045698.602                    21045706.422
 110513854.920 8  86114787.46246  21030071.453                    21030079.785
 120092094.865 7  93578311.348 7  22852754.352                    22852763.926
 120874643.271 7  94188113.54644  23001691.555                    23001701.613
 108691994.563 8  84695141.78446  20683376.664                    20683381.883
 11  8 19  0  1 30.0000000  0  7G12G17G04G10G05G09G02
 115835278.551 8  90261322.611 7  22042720.680                    22042728.176
 119543049.164 7  93150495.831 7  22748284.570                    22748294.414
 110663879.321 8  86231714.46746  21058621.891                    21058629.840
 110484795.825 8  86092144.04546  21024541.625                    21024549.707
 119991161.832 7  93499662.324 7  22833547.039                    22833556.813
 120941445.423 7  94240167.12244  23014403.602                    23014413.840
 108676922.569 8  84683397.39746  20680508.414                    20680513.758
 11  8 19  0  2  0.0000000  0  7G12G17G04G10G05G09G02
 115758224.379 8  90201280.423 7  22028058.078                    22028065.691
 119589220.351 7  93186473.330 6  22757071.039                    22757079.879
 110732031.862 8  86284820.31346  21071591.047                    21071599.270
 110456323.128 8  86069957.56346  21019123.406                    21019131.797
 119890393.257 7  93421141.474 7  22814371.734                    22814381.531
 121008572.379 7  94292473.80044  23027178.180                    23027187.227
 108662187.312 8  84671915.40146  20677704.586                    20677710.105
 11  8 19  0  2 30.0000000  0  7G12G17G04G10G05G09G02
 115681484.990 8  90141483.525 7  22013454.820                    22013462.047
 119635519.276 7  93222550.386 6  22765882.055                    22765889.648
 110800422.338 8  86338111.56946  21084605.508                    21084613.203
 110428438.606 8  86048229.39946  21013817.125                    21013825.660
 119789792.571 7  93342751.431 7  22795227.641                    22795237.277
 121076021.289 7  94345031.34344  23040013.227                    23040022.816
 108647788.279 8  84660695.39546  20674964.313                    20674970.020
 11  8 19  0  3  0.0000000  0  7G12G17G04G10G05G09G02
 115605062.524 8  90081933.574 7  21998911.914                    21998919.715
 119681946.185 7  93258727.183 6  22774716.711                    22774724.668
 110869048.045 8  86391586.12146  21097664.469                    21097672.309
 110401143.418 8  86026960.45646  21008623.305                    21008631.402
 119689362.090 7  93264494.025 7  22776116.258                    22776125.855
 121143788.259 7  94397836.73944  23052909.211                    23052918.105
 108633723.956 8  84649736.19946  20672288.031                    20672293.422
 11  8 19  0  3 30.0000000  0  7G12G17G04G10G05G09G02
 115528959.844 8  90022632.827 7  21984429.961                    21984437.543
 119728502.041 7  93295004.436 6  22783576.023                    22783583.426
 110937906.945 8  86445242.39346  21110767.836                    21110776.137
 110374439.634 8  86006152.35346  21003541.391                    21003549.645
 119589104.981 7  93186371.719 7  22757038.359                    22757047.375
 121211870.290 7  94450887.63344  23065864.781                    23065874.117
 108619993.881 8  84639037.46146  20669675.148                    20669680.758
 11  8 19  0  4  0.0000000  0  7G12G17G04G10G05G09G02
 115453179.448 8  89963583.182 7  21970009.844                    21970017.355
 119775187.319 7  93331382.520 6  22792460.008                    22792467.656
 111006996.633 8  86499078.50346  21123915.117                    21123922.945
 110348328.571 8  85985806.09646  20998572.711                    20998580.820
 119489024.514 7  93108387.062 7  22737993.008                    22738002.852
 121280263.872 7  94504181.29344  23078878.664                    23078889.262
 108606597.060 8  84628598.39546  20667125.922                    20667131.633
 11  8 19  0  4 30.0000000  0  7G12G17G04G10G05G09G02
 115377723.784 8  89904786.589 7  21955650.953                    21955658.406
 119822002.656 7  93367861.934 6  22801368.992                    22801376.457
 111076314.644 8  86553092.52946  21137105.891                    21137114.023
 110322811.426 8  85965922.64146  20993716.781                    20993724.684
 119389123.528 7  93030542.253 7  22718982.641                    22718992.289
 121348965.495 7  94557714.96644  23091952.648                    23091962.391
 108593532.486 8  84618418.22646  20664640.078                    20664645.363
 11  8 19  0  5  0.0000000  0  7G12G17G04G10G05G09G02
 115302595.758 8  89846245.281 7  21941354.523                    21941362.188
 119868948.847 7  93404443.315 6  22810302.758                    22810310.195
 111145859.183 8  86607283.07246  21150339.969                    21150348.105
 110297890.029 8  85946503.40245  20988974.172                    20988982.211
 119289405.159 7  92952839.752 7  22700007.008                    22700016.688
 121417971.999 7  94611486.23144  23105084.117                    23105093.996
 108580799.557 8  84608496.47946  20662216.539                    20662222.000
 11  8 19  0  5 30.0000000  0  7G12G17G04G10G05G09G02
 115227797.690 8  89787961.110 7  21927120.719                    21927128.551
 119916026.357 7  93441127.033 7  22819261.188                    22819269.543
 111215627.379 8  86661647.89446  21163616.094                    21163623.961
 110273565.275 8  85927549.07345  20984345.617                    20984353.449
 119189871.959 7  92875281.518 7  22681065.797                    22681075.551
 121487280.087 7  94665492.49144  23118272.352                    23118282.773
 108568397.144 8  84598832.26946  20659856.852                    20659862.363
 11  8 19  0  6  0.0000000  0  8G12G30G17G04G10G05G09G02
 115153332.008 8  89729935.923 7  21912950.555                    21912957.953
 128048952.89616  99778471.39653  24366912.867                    24366922.129
 119963235.801 7  93477913.571 7  22828244.797                    22828253.598
 111285617.341 8  86716185.52545  21176934.625                    21176942.840
 110249838.994 7  85909061.07645  20979830.500                    20979838.016
 119090527.288 7  92797870.197 7  22662161.805                    22662171.008
 121556886.243 7  94719731.00144  23131518.453                    23131528.441
 108556324.424 7  84589424.96446  20657559.414                    20657564.746
 11  8 19  0  6 30.0000000  0  8G12G30G17G04G10G05G09G02
 115079201.515 8  89672171.939 7  21898844.313                    21898851.313
 127943309.178 6  99696151.55343  24346809.547                    24346818.672
 120010577.859 7  93514803.424 7  22837253.789                    22837262.559
 111355826.495 8  86770893.94645  21190294.742                    21190303.094
 110226712.468 8  85891040.41246  20975429.734                    20975437.535
 118991373.987 7  92720607.989 7  22643294.133                    22643302.656
 121626787.161 7  94774199.18444  23144820.203                    23144830.250
 108544580.698 8  84580274.01346  20655324.633                    20655330.223
 11  8 19  0  7  0.0000000  0  8G12G30G17G04G10G05G09G02
 115005408.253 8  89614670.731 7  21884801.633                    21884808.988
 127837830.842 6  99613960.61843  24326737.906                    24326746.980
 120058052.825 7  93551796.857 7  22846288.227                    22846296.828
 111426252.269 8  86825771.16045  21203696.766                    21203704.926
 110204186.424 8  85873487.67446  20971143.000                    20971151.465
 118892414.716 7  92643496.975 7  22624461.984                    22624470.777
 121696979.093 7  94828894.16944  23158177.188                    23158187.160
 108533164.425 8  84571378.22846  20653151.984                    20653157.824
 11  8 19  0  7 30.0000000  0  8G12G30G17G04G10G05G09G02
 114931955.206 8  89557434.624 7  21870824.086                    21870831.371
 127732521.361 6  99531901.26543  24306698.531                    24306707.344
 120105661.837 7  93588894.764 7  22855347.516                    22855356.141
 111496892.953 8  86880815.82845  21217139.227                    21217147.531
 110182262.847 8  85856404.40045  20966971.266                    20966979.324
 118793652.882 7  92566539.819 7  22605668.227                    22605677.074
 121767459.083 7  94883813.59444  23171589.602                    23171599.594
 108522075.254 7  84562737.33247  20651041.781                    20651047.180
 11  8 19  0  8  0.0000000  0  8G12G30G17G04G10G05G09G02
 114858844.899 8  89500465.592 7  21856911.602                    21856918.945
 127627383.428 6  99449975.64343  24286691.492                    24286700.051
 120153405.352 7  93626097.475 6  22864433.281                    22864441.109
 111567746.312 8  86936026.20745  21230622.258                    21230630.039
 110160942.923 7  85839791.49945  20962913.969                    20962921.922
 118695091.257 7  92489738.676 7  22586912.391                    22586921.234
 121838223.849 7  94938954.91544  23185055.734                    23185065.043
 108511312.128 8  84554350.48647  20648993.680                    20648999.148
 11  8 19  0  8 30.0000000  0  8G12G30G17G04G10G05G09G02
 114786080.504 8  89443766.103 7  21843064.617                    21843072.359
 127522419.729 6  99368185.74743  24266716.969                    24266726.387
 120201283.802 7  93663405.337 7  22873544.945                    22873552.164
 111638809.842 8  86991400.36746  21244145.414                    21244153.160
 110140227.782 8  85823649.86646  20958972.164                    20958979.973
 118596733.110 7  92413096.077 7  22568194.625                    22568204.398
 121909270.168 7  94994315.60444  23198575.523                    23198584.652
 108500874.148 8  84546217.00947  20647007.273                    20647012.723
 11  8 19  0  9  0.0000000  0  8G12G30G17G04G10G05G09G02
 114713663.809 8  89387337.555 7  21829284.297                    21829291.609
 127417633.065 6  99286533.84543  24246777.172                    24246786.477
 120249297.957 7  93700818.933 7  22882681.172                    22882689.125
 111710081.498 8  87046936.71245  21257707.938                    21257715.219
 110120118.502 8  85807980.33846  20955145.547                    20955152.688
 118498581.188 7  92336614.172 7  22549517.563                    22549526.676
 121980594.566 7  95049893.00044  23212148.641                    23212158.367
 108490760.421 8  84538336.19647  20645083.094                    20645088.449
 11  8 19  0  9 30.0000000  0  8G12G30G17G04G10G05G09G02
 114641597.751 8  89331182.218 7  21815570.438                    21815577.910
 127313026.441 6  99205022.22143  24226870.859                    24226880.309
 120297448.488 7  93738338.789 7  22891843.656                    22891852.008
 111781559.157 8  87102633.57046  21271309.523                    21271317.145
 110100616.656 8  85792784.12346  20951434.563                    20951442.320
 118400638.885 7  92260295.589 7  22530879.523                    22530888.352
 122052193.703 7  95105684.45644  23225773.484                    23225782.945
 108480970.363 8  84530707.59147  20643219.719                    20643225.453
 11  8 19  0 10  0.0000000  0  8G12G30G17G04G10G05G09G02
 114569884.633 8  89275301.893 7  21801923.906                    21801931.422
 127208602.332 6  99123652.87243  24206999.508                    24207009.574
 120345736.216 7  93775965.561 7  22901032.516                    22901041.270
 111853240.381 8  87158489.04645  21284950.383                    21284957.809
 110081723.544 8  85778062.25146  20947839.141                    20947846.875
 118302908.913 7  92184142.462 7  22512282.242                    22512291.500
 122124064.033 7  95161687.23844  23239449.641                    23239459.441
 108471502.803 8  84523330.29047  20641418.234                    20641423.555
 11  8 19  0 10 30.0000000  0  8G12G30G17G04G10G05G09G02
 114498527.058 8  89219698.622 7  21788345.078                    21788352.199
 127104363.440 6  99042427.82843  24187163.344                    24187172.961
 120394161.640 7  93813699.629 7  22910247.023                    22910256.016
 111925123.063 8  87214501.51145  21298629.039                    21298637.352
 110063439.887 8  85763815.27746  20944359.844                    20944367.738
 118205394.133 7  92108157.031 7  22493725.555                    22493734.887
 122196202.058 7  95217898.63344  23253176.688                    23253186.746
 108462356.354 8  84516203.19247  20639677.844                    20639683.270
 11  8 19  0 11  0.0000000  0  9G12G30G17G04G10G05G09G25G02
 114427527.574 8  89164374.376 7  21774834.211                    21774842.063
 127000312.647 6  98961349.35843  24167363.039                    24167372.961
 120442725.144 7  93851541.272 7  22919487.922                    22919497.633
 111997204.767 8  87270669.06545  21312345.672                    21312353.500
 110045766.940 8  85750044.19346  20940996.797                    20941004.590
 118108097.798 7  92032341.815 7  22475210.945                    22475220.047
 122268604.521 7  95274316.06744  23266954.625                    23266965.277
 129584980.61616 100975350.02316  24659206.680                    24659218.086
 108453530.360 8  84509325.81247  20637997.703                    20638003.484
 11  8 19  0 11 30.0000000  0  9G12G30G17G04G10G05G09G25G02
 114356889.318 8  89109331.605 7  21761392.484                    21761399.590
 126896452.901 6  98880419.73143  24147599.094                    24147608.066
 120491427.681 6  93889491.280 7  22928756.641                    22928765.578
 112069483.746 8  87326990.33845  21326099.875                    21326107.656
 110028705.820 8  85736749.84146  20937750.188                    20937758.328
 118011022.726 7  91956699.029 7  22456737.852                    22456746.957
 122341267.996 7  95330936.86744  23280782.547                    23280792.727
 129481721.470 7 100894888.386 6  24639558.547                    24639569.484
 108445024.221 8  84502697.65447  20636379.438                    20636385.031
 11  8 19  0 12  0.0000000  0  9G12G30G17G04G10G05G09G25G02
 114286613.708 8  89054571.425 7  21748019.281                    21748026.574
 126792786.424 6  98799640.77943  24127871.203                    24127881.117
 120540269.574 7  93927549.873 6  22938051.313                    22938059.836
 112141957.354 8  87383463.26745  21339890.836                    21339898.938
 110012257.268 8  85723932.81746  20934620.227                    20934627.914
 117914171.576 7  91881230.719 7  22438307.539                    22438316.855
 122414188.900 7  95387758.28944  23294658.672                    23294668.527
 129378566.593 7 100814507.998 6  24619928.789                    24619939.254
 108436836.195 8  84496317.39047  20634821.422                    20634826.750
 11  8 19  0 12 30.0000000  0  9G12G30G17G04G10G05G09G25G02
 114216703.666 8  89000096.108 7  21734715.750                    21734723.066
 126689316.590 6  98719015.04143  24108182.383                    24108191.164
 120589251.735 7  93965717.753 6  22947372.453                    22947380.473
 112214623.447 8  87440086.19745  21353718.625                    21353726.340
 109996422.868 8  85711594.35046  20931606.922                    20931614.609
 117817547.857 7  91805939.631 7  22419919.992                    22419929.141
 122487364.303 7  95444778.02244  23308583.602                    23308593.332
 129275518.880 6 100734211.201 6  24600318.203                    24600329.863
 108428965.981 8  84490184.76847  20633323.758                    20633329.141
 11  8 19  0 13  0.0000000  0  9G12G30G17G04G10G05G09G25G02
 114147161.845 8  88945907.705 7  21721482.508                    21721489.688
 126586045.834 6  98638544.42143  24088530.648                    24088539.914
 120638374.716 7  94003995.382 6  22956719.633                    22956728.383
 112287479.959 8  87496857.48745  21367583.227                    21367590.879
 109981203.362 8  85699735.02146  20928710.852                    20928718.551
 117721154.452 7  91730827.990 7  22401577.258                    22401585.926
 122560790.699 7  95501993.32844  23322556.438                    23322565.652
 129172580.491 6 100653999.544 6  24580729.383                    24580741.219
 108421412.325 8  84484298.81747  20631886.336                    20631891.473
 11  8 19  0 13 30.0000000  0  9G12G30G17G04G10G05G09G25G02
 114077991.177 8  88892008.518 7  21708319.773                    21708327.109
 126482977.380 6  98558231.43643  24068916.750                    24068926.395
 120687639.027 7  94042383.125 6  22966095.109                    22966102.285
 112360524.786 8  87553775.53345  21381483.109                    21381490.652
 109966600.080 8  85688355.86846  20925931.852                    20925939.738
 117624994.391 7  91655898.180 7  22383279.031                    22383287.262
 122634464.825 7  95559401.67444  23336575.938                    23336585.914
 129069754.296 7 100573875.350 6  24561162.813                    24561175.105
 108414174.531 8  84478658.98347  20630509.008                    20630514.523
 11  8 19  0 14  0.0000000  0  9G12G30G17G04G10G05G09G25G02
 114009193.654 8  88838400.087 7  21695228.109                    21695235.191
 126380113.651 6  98478077.94243  24049342.594                    24049352.219
 120737045.155 7  94080881.359 6  22975496.023                    22975504.207
 112433755.673 8  87610838.54745  21395418.516                    21395426.594
 109952613.644 8  85677457.36946  20923270.141                    20923278.176
 117529070.698 7  91581152.536 7  22365024.828                    22365034.066
 122708382.875 6  95617000.08044  23350641.523                    23350651.473
 128967042.440 7 100493840.177 6  24541617.578                    24541628.906
 108407251.275 8  84473264.24447  20629191.570                    20629196.883
 11  8 19  0 14 30.0000000  0  9G12G30G17G04G10G05G09G25G02
 113940771.776 8  88785084.359 7  21682207.547                    21682214.977
 126277457.273 6  98398086.00743  24029808.477                    24029817.410
 120786593.872 6  94119490.698 6  22984924.805                    22984933.848
 112507170.365 8  87668044.78245  21409389.117                    21409396.941
 109939244.892 8  85667040.16946  20920726.031                    20920734.078
 117433385.942 7  91506593.080 7  22346816.891                    22346826.055
 122782541.492 7  95674785.94944  23364753.852                    23364763.375
 128864447.365 7 100413896.082 6  24522094.367                    24522106.621
 108400641.353 8  84468113.67547  20627933.766                    20627939.078
 11  8 19  0 15  0.0000000  0  9G12G30G17G04G10G05G09G25G02
 113872728.043 8  88732063.294 7  21669259.617                    21669266.883
 126175011.206 6  98318257.91843  24010312.617                    24010322.656
 120836285.828 7  94158211.658 7  22994381.203                    22994389.996
 112580766.531 8  87725392.43745  21423393.586                    21423401.711
 109926494.484 8  85657104.81446  20918299.992                    20918307.977
 117337943.111 7  91432222.130 7  22328654.320                    22328663.590
 122856937.394 6  95732756.70544  23378911.461                    23378921.203
 128761971.493 7 100334044.806 6  24502593.453                    24502606.004
 108394343.809 8  84463206.51047  20626735.508                    20626740.313
 11  8 19  0 15 30.0000000  0  9G12G30G17G04G10G05G09G25G02
 113805065.047 8  88679338.912 7  21656383.570                    21656391.141
 126072778.476 7  98238596.09543  23990859.086                    23990867.645
 120886121.644 7  94197044.705 6  23003864.953                    23003873.074
 112654542.353 8  87782880.06945  21437432.977                    21437440.699
 109914363.712 8  85647652.28246  20915991.492                    20915999.480
 117242745.640 7  91358042.382 7  22310538.547                    22310548.102
 122931567.335 6  95790909.80744  23393112.836                    23393123.203
 128659617.550 7 100254288.599 6  24483116.422                    24483128.031
 108388358.118 8  84458542.34847  20625596.297                    20625601.383
 11  8 19  0 16  0.0000000  0  9G12G30G17G04G10G05G09G25G02
 113737785.482 8  88626913.301 7  21643580.477                    21643588.273
 125970761.937 7  98159102.67143  23971445.758                    23971455.223
 120936101.879 7  94235990.283 6  23013375.641                    23013383.805
 112728495.674 8  87840506.01445  21451505.609                    21451513.734
 109902853.579 8  85638683.36046  20913801.031                    20913809.012
 117147796.374 7  91284056.015 7  22292470.617                    22292479.551
 123006427.678 7  95849242.49044  23407358.539                    23407368.402
 128557388.081 6 100174629.316 6  24463662.461                    24463673.738
 108382683.077 8  84454120.24947  20624516.367                    20624521.258
 11  8 19  0 16 30.0000000  0  9G12G30G17G04G10G05G09G25G02
 113670891.345 8  88574788.029 7  21630850.938                    21630858.594
 125868964.028 7  98079779.65843  23952074.227                    23952083.516
 120986227.146 7  94275048.875 6  23022914.242                    23022922.383
 112802624.093 8  87898268.39945  21465611.758                    21465619.805
 109891964.350 8  85630198.27046  20911729.086                    20911737.051
 117053097.816 7  91210265.021 7  22274449.844                    22274458.430
 123081514.999 7  95907752.01244  23421647.055                    23421657.785
 128455285.395 7 100095068.820 6  24444233.289                    24444244.281
 108377317.378 8  84449939.19547  20623495.242                    20623500.594
 11  8 19  0 17  0.0000000  0  9G12G30G17G04G10G05G09G25G02
 113604385.561 8  88522965.351 7  21618195.141                    21618202.727
 125767387.845 7  98000629.41943  23932745.102                    23932754.188
 121036498.101 7  94314220.995 6  23032480.789                    23032488.414
 112876925.589 8  87956165.65745  21479751.070                    21479758.723
 109881696.946 8  85622197.71046  20909774.805                    20909783.047
 116958653.182 7  91136671.892 7  22256477.672                    22256486.207
 123156825.923 7  95966435.77644  23435978.484                    23435988.633
 128353312.177 6 100015609.241 6  24424828.070                    24424839.039
 108372260.149 8  84445998.50347  20622532.719                    20622538.105
 11  8 19  0 17 30.0000000  0  9G12G30G17G04G10G05G09G25G02
 113538270.540 8  88471447.181 7  21605614.094                    21605621.664
 125666036.180 7  97921654.13643  23913458.070                    23913466.879
 121086915.276 7  94353507.045 6  23042075.086                    23042082.000
 112951398.265 8  88014196.28545  21493922.945                    21493931.180
 109872052.316 8  85614682.43246  20907939.695                    20907947.727
 116864465.503 7  91063278.997 7  22238554.742                    22238562.789
 123232357.110 7  96025291.17944  23450351.727                    23450361.617
 128251470.941 6  99936252.489 6  24405447.875                    24405459.262
 108367510.534 8  84442297.52147  20621629.070                    20621634.340
 11  8 19  0 18  0.0000000  0  9G12G30G17G04G10G05G09G25G02
 113472548.412 8  88420235.151 7  21593107.773                    21593115.082
 125564911.842 6  97842855.98743  23894214.750                    23894223.926
 121137479.543 7  94392907.730 6  23051697.141                    23051704.449
 113026039.651 8  88072358.39645  21508126.266                    21508134.379
 109863031.339 7  85607653.11446  20906223.141                    20906231.230
 116770537.919 7  90990088.771 7  22220680.258                    22220689.172
 123308105.125 7  96084315.53744  23464766.000                    23464776.270
 128149764.125 7  99857000.487 6  24386094.711                    24386104.762
 108363067.593 8  84438835.50446  20620783.547                    20620788.875
 11  8 19  0 18 30.0000000  0  9G12G30G17G04G10G05G09G25G02
 113407221.748 8  88369331.286 7  21580676.406                    21580683.691
 125464017.501 6  97764237.02743  23875015.266                    23875024.387
 121188191.034 7  94432423.146 6  23061347.297                    23061354.766
 113100847.700 8  88130650.37046  21522361.945                    21522370.020
 109854634.393 8  85601110.05046  20904625.023                    20904633.066
 116676872.955 7  90917103.180 7  22202856.375                    22202865.410
 123384066.344 7  96143506.01544  23479221.430                    23479231.242
 128048194.146 7  99777855.062 6  24366765.719                    24366777.539
 108358929.544 8  84435611.07046  20619995.938                    20620001.172
 11  8 19  0 19  0.0000000  0  9G12G30G17G04G10G05G09G25G02
 113342293.334 8  88318737.755 7  21568320.914                    21568328.168
 125363356.113 6  97685799.57043  23855860.188                    23855869.535
 121239050.573 7  94472053.890 6  23071025.563                    23071032.844
 113175820.321 8  88189070.59445  21536628.695                    21536636.680
 109846861.875 7  85595053.55846  20903146.305                    20903153.879
 116583473.745 7  90844324.663 7  22185083.078                    22185091.492
 123460237.581 7  96202860.13644  23493716.039                    23493726.410
 127946763.784 7  99698818.400 6  24347464.734                    24347476.090
 108355095.908 8  84432623.83146  20619266.742                    20619272.039
 11  8 19  0 19 30.0000000  0  9G12G30G17G04G10G05G09G25G02
 113277765.078 8  88268456.030 7  21556041.391                    21556048.820
 125262930.425 7  97607545.81443  23836749.672                    23836759.156
 121290058.569 7  94511800.287 6  23080732.016                    23080740.305
 113250955.401 8  88247617.38646  21550926.641                    21550934.773
 109839714.432 7  85589484.14546  20901785.797                    20901793.926
 116490343.189 7  90771755.493 7  22167361.141                    22167369.621
 123536615.365 7  96262375.25244  23508250.398                    23508260.594
 127845475.325 7  99619892.323 6  24328189.914                    24328202.027
 108351565.145 8  84429872.59346  20618594.930                    20618599.914
 11  8 19  0 20  0.0000000  0  9G12G30G17G04G10G05G09G25G02
 113213639.945 8  88218488.421 7  21543838.781                    21543846.086
 125162743.518 7  97529478.13343  23817684.648                    23817694.398
 121341215.827 7  94551662.989 6  23090466.617                    23090474.926
 113326251.015 8  88306289.28845  21565254.617                    21565263.094
 109833192.865 7  85584402.42546  20900545.102                    20900552.527
 116397484.484 7  90699398.156 7  22149690.313                    22149699.238
 123613196.643 6  96322048.87844  23522822.961                    23522833.797
 127744331.724 7  99541079.120 6  24308942.500                    24308954.375
 108348336.992 8  84427357.15746  20617980.609                    20617985.695
 11  8 19  0 20 30.0000000  0  9G12G30G17G04G10G05G09G25G02
 113149919.622 8  88168836.256 7  21531713.164                    21531720.266
 125062797.777 7  97451598.31843  23798666.148                    23798675.285
 121392522.852 7  94591642.440 6  23100229.828                    23100238.660
 113401704.726 8  88365084.36745  21579613.375                    21579621.766
 109827297.663 7  85579808.78746  20899423.211                    20899430.508
 116304900.166 7  90627254.602 7  22132071.805                    22132080.152
 123689977.472 6  96381878.02444  23537433.930                    23537444.535
 127643335.146 7  99462380.473 6  24289723.469                    24289736.102
 108345409.583 8  84425076.07546  20617423.383                    20617428.605
 11  8 19  0 21  0.0000000  0  9G12G30G17G04G10G05G09G25G02
 113086606.654 8  88119501.500 7  21519665.086                    21519672.137
 124963096.158 7  97373908.74243  23779692.898                    23779702.117
 121443980.164 7  94631738.998 6  23110021.797                    23110031.219
 113477314.791 8  88424001.28245  21594001.320                    21594009.105
 109822029.467 8  85575703.71946  20898420.953                    20898428.246
 116212593.062 7  90555327.080 7  22114506.453                    22114514.723
 123766954.565 6  96441860.09543  23552082.289                    23552092.184
 127542488.191 7  99383798.443 6  24270533.086                    24270545.180
 108342781.950 8  84423028.58046  20616923.211                    20616928.758
 11  8 19  0 21 30.0000000  0  9G12G30G17G04G10G05G09G25G02
 113023703.935 8  88070486.420 7  21507694.820                    21507702.328
 124863641.686 7  97296411.77943  23760767.727                    23760776.914
 121495588.559 7  94671953.292 6  23119843.297                    23119851.129
 113553079.041 8  88483038.32445  21608418.609                    21608427.176
 109817388.771 8  85572087.61246  20897537.648                    20897545.109
 116120566.575 7  90483618.230 7  22096994.422                    22097002.445
 123844124.567 6  96501992.51944  23566766.813                    23566777.672
 127441793.584 7  99305335.122 6  24251371.844                    24251383.234
 108340453.143 8  84421213.93546  20616479.898                    20616485.332
 11  8 19  0 22  0.0000000  0  9G12G30G17G04G10G05G09G25G02
 112961213.438 8  88021792.557 7  21495803.586                    21495810.875
 124764437.070 7  97219109.52144  23741889.852                    23741899.301
 121547348.404 7  94712285.629 6  23129692.648                    23129701.020
 113628995.117 8  88542193.69545  21622865.094                    21622872.961
 109813375.992 7  85568960.80646  20896774.195                    20896781.262
 116028823.181 7  90412129.964 7  22079535.906                    22079544.184
 123921484.098 7  96562272.61144  23581488.789                    23581498.410
 127341253.781 7  99226992.428 6  24232239.477                    24232251.270
 108338422.109 7  84419631.32046  20616093.711                    20616098.746
 11  8 19  0 22 30.0000000  0  9G12G30G17G04G10G05G09G25G02
 112899138.012 8  87973422.124 7  21483990.750                    21483998.656
 124665485.172 7  97142004.16844  23723059.188                    23723068.844
 121599260.412 7  94752736.517 6  23139570.797                    23139579.434
 113705061.513 8  88601466.18645  21637340.016                    21637347.996
 109809991.830 7  85566323.81546  20896130.000                    20896137.156
 115937365.959 7  90340864.690 7  22062132.539                    22062140.801
 123999029.728 7  96622697.68944  23596245.414                    23596255.656
 127240871.455 7  99148772.471 6  24213137.453                    24213149.363
 108336687.778 8  84418279.90346  20615763.719                    20615768.750
 11  8 19  0 23  0.0000000  0  9G12G30G17G04G10G05G09G25G02
 112837479.754 8  87925376.749 7  21472257.664                    21472265.027
 124566789.020 7  97065098.11644  23704277.797                    23704287.277
 121651325.239 7  94793306.440 7  23149478.133                    23149487.359
 113781275.884 7  88660853.99145  21651843.305                    21651851.250
 109807236.232 7  85564176.62446  20895605.516                    20895613.188
 115846197.982 7  90269824.784 7  22044783.469                    22044792.391
 124076758.064 7  96683265.15244  23611036.953                    23611046.383
 127140649.282 7  99070677.296 6  24194065.820                    24194077.273
 108335249.207 8  84417158.94746  20615489.875                    20615495.000
 11  8 19  0 23 30.0000000  0  9G12G30G17G04G10G05G09G25G02
 112776241.353 8  87877658.540 7  21460604.148                    21460611.594
 124468351.534 7  96988393.64944  23685545.719                    23685555.453
 121703543.446 7  94833995.879 7  23159415.633                    23159424.668
 113857636.588 8  88720355.82745  21666373.766                    21666382.633
 109805110.360 8  85562520.12346  20895201.023                    20895208.727
 115755322.425 7  90199012.732 7  22027490.523                    22027499.023
 124154665.867 7  96743972.46744  23625862.836                    23625872.246
 127040590.056 7  98992709.075 6  24175025.000                    24175036.609
 108334105.593 7  84416267.83646  20615272.164                    20615277.324
 11  8 19  0 24  0.0000000  0  9G12G30G17G04G10G05G09G25G02
 112715424.616 8  87830268.884 7  21449031.547                    21449038.750
 124370175.145 7  96911892.63144  23666863.469                    23666873.625
 121755915.417 7  94874805.125 6  23169381.352                    23169391.059
 113934141.013 8  88779969.64545  21680932.453                    21680940.789
 109803613.649 8  85561353.87546  20894916.180                    20894923.730
 115664741.266 7  90128430.071 7  22010253.492                    22010262.238
 124232749.444 7  96804816.72244  23640720.773                    23640731.215
 126940695.858 7  98914869.472 6  24156015.414                    24156027.625
 108333254.924 8  84415605.00046  20615110.211                    20615115.656
 11  8 19  0 24 30.0000000  0  9G12G30G17G04G10G05G09G25G02
 112655032.479 8  87783210.089 7  21437539.109                    21437546.641
 124272263.067 7  96835597.58944  23648230.992                    23648241.406
 121808441.979 7  94915734.849 6  23179377.328                    23179386.301
 114010787.578 8  88839694.21845  21695517.750                    21695526.270
 109802747.137 8  85560678.69946  20894751.133                    20894758.422
 115574458.251 7  90058079.733 7  21993073.008                    21993081.805
 124311005.777 7  96865795.61844  23655612.758                    23655622.363
 126840969.730 7  98837160.822 6  24137038.453                    24137050.516
 108332696.868 8  84415170.16246  20615004.016                    20615009.230
 11  8 19  0 25  0.0000000  0  9G12G30G17G04G10G05G09G25G02
 112595066.458 8  87736483.329 7  21426127.828                    21426135.246
 124174617.706 7  96759510.38844  23629650.375                    23629659.867
 121861123.165 7  94956785.105 7  23189402.078                    23189410.723
 114087573.903 8  88899527.67345  21710130.258                    21710138.277
 109802510.567 8  85560494.38146  20894706.398                    20894713.504
 115484475.529 8  89987963.387 7  21975950.211                    21975958.387
 124389431.027 7  96926906.10944  23670536.734                    23670546.383
 126741413.722 7  98759584.735 6  24118093.922                    24118105.523
 108332429.574 8  84414961.90546  20614953.211                    20614958.648
 11  8 19  0 25 30.0000000  0  9G12G30G17G04G10G05G09G25G02
 112535529.383 8  87690090.823 7  21414798.734                    21414805.973
 124077242.001 7  96683633.32144  23611119.945                    23611129.852
 121913960.002 7  94997956.668 6  23199456.539                    23199465.367
 114164498.064 8  88959468.53946  21724768.242                    21724776.781
 109802904.227 8  85560801.15146  20894780.773                    20894788.902
 115394796.506 7  89918083.708 7  21958884.867                    21958892.730
 124468021.737 7  96988145.55944  23685492.016                    23685501.305
 126642030.652 7  98682143.417 6  24099181.492                    24099193.352
 108332452.131 8  84414979.49445  20614957.469                    20614963.129
 11  8 19  0 26  0.0000000  0  9G12G30G17G04G10G05G09G25G02
 112476423.435 8  87644034.266 7  21403550.813                    21403558.352
 123980138.998 7  96607968.73944  23592642.008                    23592651.520
 121966952.876 7  95039249.771 6  23209541.273                    23209549.637
 114241558.065 8  89019515.24746  21739432.516                    21739440.879
 109803928.579 8  85561599.37346  20894976.094                    20894983.617
 115305424.013 8  89848442.895 7  21941877.672                    21941885.918
 124546774.682 7  97049511.40944  23700478.484                    23700487.949
 126542823.259 7  98604838.980 6  24080303.398                    24080314.652
 108332763.553 8  84415222.17545  20615017.141                    20615021.883
 11  8 19  0 26 30.0000000  0  9G12G30G17G04G10G05G09G25G02
 112417751.133 8  87598315.602 7  21392386.141                    21392393.098
 123883311.648 7  96532518.95344  23574216.242                    23574224.809
 122020102.644 7  95080665.134 6  23219655.172                    23219664.148
 114318752.150 8  89079666.42545  21754122.063                    21754130.188
 109805583.879 8  85562889.24146  20895291.078                    20895298.828
 115216361.007 7  89779043.228 7  21924929.961                    21924937.328
 124625686.480 7  97111001.02744  23715494.766                    23715504.703
 126443794.267 6  98527673.561 6  24061458.344                    24061470.254
 108333363.182 8  84415689.43145  20615130.813                    20615136.316
 11  8 19  0 27  0.0000000  0  9G12G30G17G04G10G05G09G25G02
 112359515.081 8  87552936.880 7  21381304.328                    21381311.117
 123786762.502 7  96457285.92244  23555843.313                    23555852.574
 122073409.573 7  95122202.949 6  23229798.750                    23229807.656
 114396078.048 8  89139920.35745  21768836.242                    21768844.293
 109807869.884 8  85564670.56046  20895725.977                    20895733.598
 115127610.099 7  89709886.742 7  21908040.688                    21908048.699
 124704753.886 6  97172611.92744  23730540.945                    23730550.527
 126344946.073 7  98450649.038 6  24042648.117                    24042659.938
 108334249.255 7  84416379.90145  20615299.516                    20615305.098
 11  8 19  0 27 30.0000000  0  9G12G30G17G04G10G05G09G25G02
 112301716.964 8  87507899.401 7  21370305.539                    21370312.594
 123690494.495 7  96382271.98044  23537524.359                    23537533.184
 122126874.231 7  95163863.668 6  23239972.859                    23239982.031
 114473534.000 8  89200275.61645  21783575.836                    21783584.082
 109810787.313 7  85566943.90046  20896281.211                    20896288.711
 115039174.265 7  89640975.763 7  21891211.539                    21891219.707
 124783973.312 7  97234341.29244  23745615.352                    23745625.539
 126246281.332 7  98373767.503 6  24023873.102                    24023884.750
 108335420.746 7  84417292.77045  20615522.188                    20615527.590
 11  8 19  0 28  0.0000000  0  9G12G30G17G04G10G05G09G25G02
 112244359.397 8  87463205.214 7  21359390.563                    21359397.984
 123594510.766 7  96307479.55244  23519259.039                    23519267.891
 122180497.372 7  95205647.865 6  23250177.250                    23250186.426
 114551118.202 8  89260730.79845  21798339.352                    21798347.809
 109814336.329 8  85569709.38746  20896956.703                    20896964.492
 114951056.415 7  89572312.562 7  21874443.820                    21874451.660
 124863341.678 6  97296186.70444  23760718.555                    23760729.109
 126147803.006 7  98297031.231 6  24005133.125                    24005144.922
 108336876.969 7  84418427.51745  20615799.398                    20615804.777
 11  8 19  0 28 30.0000000  0  9G12G30G17G04G10G05G09G25G02
 112187444.610 8  87418856.038 7  21348560.211                    21348567.320
 123498813.868 7  96232910.63744  23501048.469                    23501057.137
 122234279.473 7  95247555.927 6  23260412.031                    23260421.223
 114628828.455 8  89321284.20745  21813127.438                    21813135.273
 109818516.860 8  85572966.97346  20897751.992                    20897759.895
 114863259.212 7  89503899.225 7  21857736.414                    21857744.641
 124942855.279 6  97358145.28043  23775849.508                    23775860.348
 126049513.422 7  98220442.028 7  23986428.680                    23986440.379
 108338616.379 7  84419782.91445  20616130.828                    20616135.406
 11  8 19  0 29  0.0000000  0  9G12G30G17G04G10G05G09G25G02
 112130974.235 8  87374853.168 7  21337813.938                    21337821.508
 123403406.346 7  96158567.21844  23482893.297                    23482902.070
 122288220.823 7  95289588.088 6  23270676.500                    23270685.625
 114706662.667 8  89381934.20645  21827939.172                    21827947.262
 109823328.560 8  85576716.36846  20898667.734                    20898675.461
 114775785.815 7  89435738.208 7  21841090.688                    21841099.109
 125022510.880 6  97420214.47343  23791007.648                    23791018.371
 125951414.952 7  98144001.773 7  23967761.469                    23967773.152
 108340637.658 7  84421357.95245  20616515.164                    20616520.223
 11  8 19  0 29 30.0000000  0  9G12G30G17G04G10G05G09G25G02
 112074951.403 8  87331199.029 7  21327153.180                    21327160.477
 123308291.542 7  96084451.88644  23464792.945                    23464802.246
 122342322.030 7  95331744.829 6  23280971.633                    23280980.594
 114784619.078 8  89442679.41745  21842774.133                    21842782.063
 109828771.845 7  85580957.90246  20899703.070                    20899711.156
 114688638.630 7  89367831.375 7  21824507.125                    21824515.059
 125102305.244 7  97482391.81943  23806192.422                    23806202.727
 125853510.627 7  98067712.806 7  23949130.719                    23949143.203
 108342939.876 7  84423151.90145  20616952.930                    20616958.215
 11  8 19  0 30  0.0000000  0  9G12G30G17G04G10G05G09G25G02
 112019377.863 8  87287894.990 7  21316577.930                    21316585.176
 123213472.119 7  96010566.71244  23446749.336                    23446758.172
 122396584.012 7  95374026.912 6  23291297.367                    23291305.938
 114862695.940 8  89503518.50145  21857631.438                    21857639.410
 109834846.575 7  85585691.47046  20900859.430                    20900867.301
 114601820.551 7  89300180.983 7  21807985.922                    21807993.859
 125182234.729 6  97544674.49944  23821402.305                    23821413.313
 125755803.005 7  97991577.117 7  23930538.016                    23930549.730
 108345522.020 7  84425163.97045  20617444.656                    20617449.824
 11  8 19  0 30 30.0000000  0  9G12G30G17G04G10G05G09G25G02
 111964255.859 8  87244942.800 7  21306088.461                    21306096.270
 123118950.778 7  95936913.83844  23428762.602                    23428771.527
 122451006.737 7  95416434.186 6  23301653.383                    23301662.605
 114940891.115 8  89564449.77645  21872511.336                    21872519.645
 109841552.599 8  85590916.95746  20902135.352                    20902143.719
 114515334.343 7  89232789.202 7  21791528.016                    21791535.797
 125262296.214 6  97607059.95043  23836636.461                    23836648.512
 125658294.574 7  97915596.648 7  23911982.523                    23911994.219
 108348382.458 7  84427392.89945  20617988.891                    20617994.113
 11  8 19  0 31  0.0000000  0  9G12G30G17G04G10G05G09G25G02
 111909587.929 8  87202344.431 8  21295685.344                    21295692.574
 123024730.683 6  95863495.69344  23410833.063                    23410842.074
 122505591.067 7  95458967.387 6  23312040.516                    23312049.883
 115019202.977 8  89625471.98245  21887413.508                    21887421.656
 109848890.289 7  85596634.64346  20903531.656                    20903539.746
 114429183.433 7  89165658.691 7  21775133.883                    21775142.320
 125342486.241 6  97669545.63243  23851896.414                    23851907.992
 125560988.253 7  97839773.649 6  23893465.180                    23893477.406
 108351520.667 7  84429838.26445  20618586.086                    20618591.012
 11  8 19  0 31 30.0000000  0  9G12G30G17G04G10G05G09G25G02
 111855376.080 8  87160101.455 7  21285369.328                    21285376.766
 122930814.368 7  95790314.23944  23392961.039                    23392970.473
 122560337.414 7  95501626.796 6  23322458.234                    23322467.875
 115097629.234 8  89686583.32945  21902337.305                    21902345.473
 109856859.262 7  85602844.24246  20905048.281                    20905055.629
 114343370.490 7  89098791.528 7  21758804.289                    21758811.988
 125422801.425 6  97732128.78844  23867180.648                    23867191.168
 125463886.502 7  97764110.080 6  23874987.070                    23874999.066
 108354934.936 7  84432498.73945  20619235.758                    20619241.051
 11  8 19  0 32  0.0000000  0  9G12G30G17G04G10G05G09G25G02
 111801622.547 8  87118215.617 8  21275140.484                    21275147.477
 122837204.851 7  95717371.87144  23375147.609                    23375157.203
 122615246.478 7  95544413.007 6  23332908.125                    23332916.957
 115176168.392 8  89747782.66145  21917283.063                    21917291.047
 109865459.388 7  85609545.63846  20906684.523                    20906692.340
 114257897.756 7  89032189.451 7  21742539.570                    21742547.500
 125503238.383 6  97794806.86643  23882487.539                    23882497.348
 125366992.086 7  97688608.072 6  23856548.898                    23856560.293
 108358624.497 7  84435373.73145  20619937.844                    20619942.973
 11  8 19  0 32 30.0000000  0  9G12G30G17G04G10G05G09G25G02
 111748329.208 8  87076688.364 8  21264998.984                    21265006.410
 122743904.879 7  95644670.67445  23357393.617                    23357402.766
 122670318.664 7  95587326.331 6  23343388.242                    23343396.516
 115254818.207 7  89809068.21445  21932249.602                    21932257.473
 109874690.595 7  85616738.79246  20908441.305                    20908449.223
 114172768.311 8  88965854.877 7  21726339.492                    21726347.906
 125583793.656 7  97857577.11444  23897816.938                    23897827.203
 125270307.565 7  97613269.622 6  23838150.891                    23838161.316
 108362588.069 7  84438462.23645  20620692.195                    20620697.328
 11  8 19  0 33  0.0000000  0  9G12G30G17G04G10G05G09G25G02
 111695498.409 8  87035521.533 8  21254945.516                    21254952.637
 122650917.149 7  95572212.77145  23339698.398                    23339707.395
 122725554.675 7  95630367.335 6  23353899.148                    23353907.371
 115333577.121 8  89870438.76245  21947236.477                    21947244.996
 109884552.373 7  85624423.30946  20910318.016                    20910325.715
 114087984.575 7  88899789.682 7  21710205.727                    21710214.297
 125664463.853 7  97920436.92844  23913166.586                    23913179.285
 125173835.490 7  97538096.685 6  23819792.398                    23819803.152
 108366824.436 7  84441763.30645  20621498.063                    20621503.363
 11  8 19  0 33 30.0000000  0  9G12G30G17G04G10G05G09G25G02
 111643132.319 8  86994716.813 8  21244980.852                    21244987.824
 122558244.594 7  95500000.47745  23322063.617                    23322072.340
 122780954.562 7  95673536.023 6  23364440.961                    23364449.887
 115412443.008 8  89931892.66645  21962244.586                    21962252.504
 109895044.963 7  85632599.36446  20912314.297                    20912322.574
 114003549.623 7  88833996.257 7  21694137.984                    21694147.016
 125745245.837 6  97983383.82043  23928539.750                    23928551.703
 125077578.552 7  97463091.404 6  23801475.531                    23801486.473
 108371332.221 7  84445275.86045  20622356.156                    20622361.023
 11  8 19  0 34  0.0000000  0  9G12G30G17G04G10G05G09G25G02
 111591232.883 8  86954275.714 8  21235104.500                    21235111.535
 122465890.018 7  95428035.93345  23304489.148                    23304497.977
 122836519.098 7  95716832.993 6  23375015.070                    23375023.059
 115491414.199 7  89993428.64245  21977272.273                    21977280.473
 109906167.978 7  85641266.65946  20914431.117                    20914439.074
 113919466.241 7  88768476.778 7  21678137.367                    21678146.313
 125826135.999 6  98046415.00343  23943932.852                    23943944.270
 124981539.401 7  97388255.821 6  23783199.484                    23783210.223
 108376110.308 7  84448999.06045  20623265.234                    20623270.102
 11  8 19  0 34 30.0000000  0  9G12G30G17G04G10G05G09G25G02
 111539802.708 8  86914200.284 8  21225317.664                    21225324.641
 122373856.349 7  95356321.43745  23286975.680                    23286983.848
 122892248.666 7  95760258.614 6  23385619.813                    23385627.695
 115570488.729 7  90055045.14245  21992319.461                    21992327.633
 109917921.186 8  85650425.01446  20916668.078                    20916675.535
 113835737.320 7  88703233.505 7  21662204.180                    21662212.785
 125907131.338 7  98109528.12243  23959346.328                    23959356.375
 124885720.878 7  97313592.138 6  23764965.813                    23764976.941
 108381157.866 7  84452932.22345  20624225.867                    20624230.574
 11  8 19  0 35  0.0000000  0  9G12G30G17G04G10G05G09G25G02
 111488843.578 8  86874491.901 8  21215620.430                    21215627.605
 122282146.429 7  95284859.18145  23269523.523                    23269532.270
 122948143.882 7  95803813.271 6  23396256.320                    23396264.250
 115649665.061 8  90116740.97945  22007386.258                    22007394.625
 109930304.122 8  85660074.06046  20919024.070                    20919031.758
 113752365.340 7  88638268.373 7  21646338.945                    21646347.043
 125988228.416 7  98172720.54844  23974778.422                    23974789.016
 124790125.545 7  97239102.342 6  23746774.680                    23746785.512
 108386473.598 7  84457074.35545  20625237.172                    20625242.223
 11  8 19  0 35 30.0000000  0  9G12G30G17G04G10G05G09G25G02
 111438357.583 8  86835152.206 8  21206013.141                    21206020.250
 122190762.939 7  95213651.29945  23252133.922                    23252142.797
 123004205.245 7  95847497.416 6  23406924.078                    23406932.746
 115728941.191 7  90178514.58045  22022471.867                    22022480.859
 109943316.490 8  85670213.57346  20921500.078                    20921508.133
 113669353.149 8  88573583.603 7  21630542.945                    21630550.637
 126069424.010 6  98235989.73043  23990229.297                    23990239.652
 124694756.050 7  97164788.541 7  23728626.063                    23728637.586
 108392056.241 7  84461424.46745  20626299.914                    20626305.121
 11  8 19  0 36  0.0000000  0  9G12G30G17G04G10G05G09G25G02
 111388346.877 8  86796182.848 8  21196496.594                    21196503.531
 122099708.776 7  95142700.02444  23234806.797                    23234815.547
 123060433.170 6  95891311.309 6  23417623.945                    23417633.109
 115808315.211 7  90240364.44445  22037576.328                    22037584.922
 109956958.269 8  85680843.54146  20924096.266                    20924104.008
 113586703.377 7  88509181.252 7  21614815.203                    21614823.059
 126150714.500 7  98299332.87043  24005699.023                    24005709.656
 124599615.017 7  97090652.742 7  23710521.227                    23710532.855
 108397904.429 7  84465981.50845  20627412.320                    20627418.051
 11  8 19  0 36 30.0000000  0  9G12G30G17G04G10G05G09G25G02
 111338813.213 8  86757585.209 8  21187070.555                    21187077.402
 122008986.670 7  95072007.50144  23217542.438                    23217551.465
 123116828.283 6  95935255.502 6  23428355.398                    23428364.910
 115887785.421 7  90302289.24745  22052699.797                    22052707.949
 109971228.819 8  85691963.46146  20926812.125                    20926819.363
 113504418.686 7  88445063.380 7  21599157.383                    21599165.094
 126232096.659 7  98362747.36743  24021185.586                    24021196.031
 124504705.136 7  97016697.060 7  23692459.984                    23692472.168
 108404017.078 7  84470744.59545  20628575.656                    20628580.691
 11  8 19  0 37  0.0000000  0  9G12G30G17G04G10G05G09G25G02
 111289759.080 8  86719361.230 8  21177736.109                    21177743.059
 121918599.529 7  95001575.96444  23200343.070                    23200351.266
 123173391.040 6  95979330.318 6  23439119.406                    23439128.891
 115967350.014 7  90364287.60545  22067839.914                    22067847.934
 109986127.877 8  85703573.14346  20929647.008                    20929654.836
 113422502.083 8  88381232.320 7  21583568.547                    21583577.082
 126313567.434 6  98426230.98844  24036688.789                    24036699.656
 124410029.192 7  96942923.647 7  23674444.023                    23674455.215
 108410393.170 7  84475712.97545  20629788.820                    20629794.086
 11  8 19  0 37 30.0000000  0  9G12G30G17G04G10G05G09G25G02
 111241185.964 8  86681512.072 8  21168492.656                    21168499.895
 121828549.993 7  94931407.49744  23183207.352                    23183215.508
 123230121.761 6  96023536.007 6  23449914.891                    23449924.043
 116047006.959 7  90426357.94145  22082997.766                    22083006.016
 110001654.532 8  85715671.85446  20932601.750                    20932609.387
 113340955.967 8  88317689.943 7  21568050.664                    21568059.199
 126395123.063 7  98489780.67044  24052208.563                    24052219.703
 124315589.557 7  96869334.346 7  23656472.945                    23656484.664
 108417031.119 7  84480885.39445  20631051.813                    20631057.215
 11  8 19  0 38  0.0000000  0  9G12G30G17G04G10G05G09G25G02
 111193096.381 8  86644039.696 8  21159341.656                    21159348.621
 121738841.095 7  94861504.49044  23166135.391                    23166144.875
 123287020.916 6  96067872.915 6  23460741.492                    23460751.438
 116126754.962 7  90488499.22945  22098173.664                    22098182.176
 110017808.263 8  85728259.19846  20935675.961                    20935683.492
 113259783.271 8  88254438.539 7  21552603.914                    21552612.363
 126476760.394 6  98553394.04643  24067743.273                    24067754.266
 124221389.240 7  96795931.548 7  23638547.555                    23638558.613
 108423930.306 7  84486261.37646  20632365.180                    20632370.328
 11  8 19  0 38 30.0000000  0  9G12G30G17G04G10G05G09G25G02
 111145492.470 8  86606945.764 8  21150282.867                    21150289.996
 121649475.622 7  94791869.10145  23149130.063                    23149139.055
 123344088.952 6  96112341.425 6  23471601.836                    23471611.141
 116206592.046 7  90550709.92745  22113366.305                    22113374.445
 110034588.936 8  85741335.06646  20938869.117                    20938876.484
 113178986.620 8  88191480.158 7  21537228.719                    21537237.148
 126558476.316 7  98617068.65244  24083293.969                    24083304.910
 124127430.834 8  96722717.237 7  23620667.781                    23620678.801
 108431089.224 7  84491839.73745  20633727.453                    20633732.547
 11  8 19  0 39  0.0000000  0  9G12G30G17G04G10G05G09G25G02
 111098375.856 8  86570231.562 8  21141316.563                    21141323.676
 121560456.157 7  94722503.32845  23132190.891                    23132199.066
 123401326.148 6  96156941.774 6  23482494.039                    23482501.730
 116286516.270 7  90612988.54845  22128575.898                    22128583.426
 110051995.918 8  85754898.96546  20942181.641                    20942189.020
 113098568.799 7  88128816.973 7  21521926.063                    21521933.484
 126640267.426 7  98680801.83544  24098858.820                    24098869.285
 124033716.910 8  96649693.411 7  23602834.359                    23602845.555
 108438506.513 7  84497619.43746  20635139.023                    20635143.938
 11  8 19  0 39 30.0000000  0  9G12G30G17G04G10G05G09G25G02
 111051748.642 8  86533898.688 8  21132443.695                    21132451.035
 121471785.521 7  94653409.35845  23115316.984                    23115326.137
 123458733.385 6  96201674.581 6  23493418.102                    23493427.063
 116366525.954 7  90675333.72445  22143800.477                    22143809.277
 110070028.527 8  85768950.36346  20945613.172                    20945620.422
 113018532.011 8  88066450.695 7  21506695.141                    21506702.992
 126722130.407 6  98744591.04344  24114437.039                    24114447.383
 123940250.225 7  96576862.231 7  23585048.203                    23585059.332
 108446181.153 7  84503599.67045  20636599.727                    20636604.316
 11  8 19  0 40  0.0000000  0  9G12G30G17G04G10G05G09G25G02
 111005612.559 8  86497948.515 8  21123664.641                    21123671.160
 121383466.531 7  94584589.40945  23098510.484                    23098519.410
 123516310.753 6  96246540.037 6  23504375.070                    23504383.008
 116446619.492 7  90737744.22645  22159042.258                    22159050.758
 110088686.242 8  85783488.86546  20949163.453                    20949171.031
 112938878.981 8  88004383.467 7  21491537.609                    21491545.496
 126804061.909 6  98808433.60744  24130028.047                    24130039.367
 123847033.252 8  96504225.617 7  23567309.539                    23567320.758
 108454111.820 7  84509779.39946  20638108.477                    20638113.891
 11  8 19  0 40 30.0000000  0  9G12G30G17G04G10G05G09G25G02
 110959969.520 8  86462382.541 8  21114979.000                    21114985.965
 121295501.912 7  94516045.60245  23081771.234                    23081780.035
 123574058.837 7  96291538.526 6  23515364.727                    23515372.070
 116526794.934 7  90800218.56145  22174299.289                    22174307.137
 110107968.533 8  85798514.05046  20952832.367                    20952840.355
 112859612.446 8  87942617.404 7  21476453.844                    21476461.594
 126886058.829 6  98872327.15643  24145631.453                    24145642.125
 123754068.770 7  96431785.764 7  23549619.555                    23549630.105
 108462297.364 7  84516157.73545  20639665.930                    20639671.320
 11  8 19  0 41  0.0000000  0  9G12G30G17G04G10G05G09G25G02
 110914821.816 8  86427202.533 8  21106387.547                    21106394.242
 121207894.708 7  94447780.28945  23065100.375                    23065108.938
 123631978.246 7  96336670.493 6  23526386.508                    23526394.297
 116607050.813 7  90862755.58945  22189571.469                    22189579.063
 110127875.001 8  85814025.59746  20956620.445                    20956628.273
 112780735.135 7  87881154.627 7  21461443.852                    21461451.875
 126968117.861 6  98936269.12643  24161245.547                    24161257.949
 123661359.727 7  96359544.955 7  23531977.391                    23531988.246
 108470736.809 7  84522733.93245  20641271.883                    20641277.160
 11  8 19  0 41 30.0000000  0  9G12G30G17G04G10G05G09G25G02
 110870171.266 8  86392409.920 8  21097890.680                    21097897.609
 121120647.419 7  94379795.43345  23048497.289                    23048506.270
 123690069.313 7  96381936.220 6  23537440.711                    23537449.203
 116687385.421 7  90925353.95445  22204858.438                    22204866.383
 110148404.753 8  85830022.82546  20960527.055                    20960534.926
 112702249.456 8  87819997.014 7  21446508.336                    21446516.832
 127050235.470 6  99000256.71343  24176872.898                    24176884.582
 123568908.554 7  96287505.088 7  23514384.453                    23514395.652
 108479428.601 7  84529506.75745  20642926.125                    20642930.891
 11  8 19  0 42  0.0000000  0  9G12G30G17G04G10G05G09G25G02
 110826019.928 8  86358006.304 8  21089488.914                    21089496.027
 121033763.244 7  94312093.53945  23031963.641                    23031972.934
 123748332.646 7  96427336.156 6  23548527.500                    23548535.801
 116767797.370 7  90988012.60245  22220159.680                    22220168.566
 110169557.360 8  85846505.38746  20964552.078                    20964559.926
 112624158.493 8  87759146.960 7  21431648.211                    21431656.465
 127132408.745 6  99064287.67143  24192510.359                    24192521.395
 123476718.347 7  96215668.580 7  23496841.078                    23496852.098
 108488372.307 7  84536475.88645  20644628.039                    20644633.344
 11  8 19  0 42 30.0000000  0  9G12G30G17G04G10G05G09G25G02
 110782369.445 8  86323992.955 8  21081182.773                    21081189.574
 120947244.503 7  94244676.39445  23015499.688                    23015508.902
 123806768.525 7  96472870.540 6  23559648.016                    23559656.820
 116848284.370 7  91050729.71745  22235476.297                    22235484.512
 110191331.647 8  85863472.38346  20968695.633                    20968703.551
 112546464.443 8  87698606.182 7  21416863.680                    21416871.945
 127214634.264 7  99128359.33444  24208157.734                    24208168.492
 123384791.384 7  96144037.205 6  23479347.492                    23479358.461
 108497566.021 7  84543639.82945  20646377.609                    20646382.613
 11  8 19  0 43  0.0000000  0  9G12G30G17G04G10G05G09G25G02
 110739221.198 8  86290370.966 8  21072971.953                    21072978.574
 120861093.848 7  94177546.08245  22999105.703                    22999114.672
 123865376.900 7  96518539.357 6  23570800.617                    23570809.113
 116928844.811 7  91113504.07445  22250807.172                    22250815.262
 110213727.051 8  85880923.37246  20972957.641                    20972965.152
 112469169.977 8  87638376.781 7  21402154.516                    21402163.004
 127296908.666 6  99192469.11043  24223813.750                    24223824.797
 123293130.172 7  96072612.902 7  23461905.398                    23461916.379
 108507008.098 7  84550997.30545  20648174.180                    20648179.324
 11  8 19  0 43 30.0000000  0  9G12G30G17G04G10G05G09G25G02
 110696577.827 8  86257142.382 8  21064856.688                    21064864.113
 120775314.239 7  94110704.87145  22982782.539                    22982791.316
 123924158.598 7  96564343.228 6  23581986.469                    23581995.324
 117009477.237 7  91176334.49945  22266150.484                    22266158.844
 110236742.895 8  85898857.81145  20977337.102                    20977344.758
 112392277.797 8  87578460.838 7  21387522.672                    21387530.480
 127379229.043 6  99256614.71743  24239479.625                    24239489.977
 123201737.690 7  96001397.999 7  23444513.867                    23444525.113
 108516698.006 7  84558547.89045  20650018.109                    20650023.469
 11  8 19  0 44  0.0000000  0  9G12G30G17G04G10G05G09G25G02
 110654440.960 8  86224308.472 8  21056838.445                    21056845.430
 120689908.375 7  94044154.88645  22966530.242                    22966538.859
 123983114.003 7  96610282.483 6  23593205.492                    23593214.621
 117090179.963 7  91239219.70045  22281507.523                    22281515.523
 110260377.934 8  85917274.73846  20981834.773                    20981842.773
 112315789.885 8  87518859.931 7  21372967.500                    21372975.488
 127461592.011 6  99320793.48243  24255152.828                    24255163.512
 123110616.534 8  95930394.562 7  23427173.891                    23427185.070
 108526634.535 7  84566290.64245  20651908.664                    20651914.262
 11  8 19  0 44 30.0000000  0  9G12G30G17G04G10G05G09G25G02
 110612812.071 8  86191870.377 8  21048916.664                    21048924.094
 120604878.889 7  93977898.17545  22950349.102                    22950357.891
 124042243.546 7  96656357.407 6  23604457.156                    23604466.008
 117170951.343 7  91302158.41245  22296878.016                    22296886.152
 110284631.553 8  85936173.68345  20986449.969                    20986457.941
 112239708.980 8  87459576.176 7  21358489.586                    21358497.098
 127543994.209 6  99385002.86043  24270834.234                    24270843.828
 123019769.318 8  95859604.576 7  23409886.594                    23409897.652
 108536816.220 7  84574224.43145  20653846.492                    20653851.813
 11  8 19  0 45  0.0000000  0  9G12G30G17G04G10G05G09G25G02
 110571693.358 8  86159829.820 8  21041092.227                    21041099.555
 120520228.894 7  93911937.17545  22934241.156                    22934249.848
 124101547.587 7  96702568.324 6  23615741.352                    23615751.957
 117251789.905 7  91365149.44845  22312261.734                    22312269.293
 110309502.980 8  85955554.02246  20991183.391                    20991190.828
 112164037.968 8  87400611.810 7  21344089.672                    21344097.957
 127626432.478 6  99449240.33843  24286521.211                    24286532.043
 122929198.958 8  95789030.323 7  23392651.633                    23392662.957
 108547242.268 7  84582348.63145  20655830.344                    20655835.973
 11  8 19  0 45 30.0000000  0  9G12G30G17G04G10G05G09G25G02
 110531086.226 8  86128187.893 8  21033365.102                    21033371.895
 120435960.730 7  93846273.71045  22918205.406                    22918214.281
 124161026.605 7  96748915.546 6  23627060.414                    23627069.563
 117332693.836 7  91428191.43045  22327656.820                    22327664.789
 110334991.345 8  85975415.09646  20996033.469                    20996041.180
 112088779.443 8  87341968.857 7  21329768.602                    21329776.363
 127708903.241 6  99513503.10643  24302214.352                    24302226.355
 122838907.913 8  95718673.716 7  23375469.859                    23375480.898
 108557910.936 7  84590661.88345  20657860.969                    20657866.168
 11  8 19  0 46  0.0000000  0  9G12G30G17G04G10G05G09G25G02
 110490992.793 8  86096946.258 8  21025735.422                    21025742.359
 120352077.381 7  93780910.10445  22902243.117                    22902251.695
 124220680.869 7  96795399.331 6  23638413.180                    23638421.004
 117413661.530 7  91491283.10645  22343064.242                    22343072.461
 110361095.861 8  85995756.30146  21001000.805                    21001008.371
 112013935.719 8  87283649.119 7  21315526.656                    21315534.418
 127791403.975 6  99577789.24943  24317913.547                    24317925.422
 122748898.925 7  95648536.908 7  23358341.391                    23358352.355
 108568821.344 7  84599163.51645  20659937.156                    20659942.512
 11  8 19  0 46 30.0000000  0  9G12G30G17G04G10G05G09G25G02
 110451414.985 8  86066106.403 8  21018203.742                    21018211.160
 120268581.333 7  93715848.28745  22886354.109                    22886363.348
 124280510.802 7  96842020.014 6  23649797.609                    23649807.000
 117494691.566 7  91554423.39345  22358483.859                    22358491.359
 110387814.924 8  86016576.35446  21006085.352                    21006093.070
 111939509.011 8  87225654.322 7  21301363.930                    21301371.836
 127873931.366 6  99642096.14243  24333617.867                    24333629.570
 122659174.676 8  95578621.953 7  23341267.328                    23341278.578
 108579972.061 7  84607852.39745  20662058.703                    20662064.383
 11  8 19  0 47  0.0000000  0  9G12G30G17G04G10G05G09G25G02
 110412354.171 8  86035669.404 8  21010771.148                    21010778.039
 120185475.462 7  93651090.49845  22870539.656                    22870548.461
 124340516.691 6  96888777.812 6  23661216.922                    23661225.879
 117575782.101 7  91617610.77945  22373914.586                    22373923.598
 110415147.941 8  86037874.81346  21011286.492                    21011294.527
 111865502.134 8  87167986.670 7  21287280.852                    21287288.629
 127956482.059 6  99706421.20743  24349327.781                    24349338.086
 122569737.869 7  95508930.982 7  23324248.016                    23324258.879
 108591362.154 7  84616727.80745  20664226.258                    20664231.516
 11  8 19  0 47 30.0000000  0  9G12G30G17G04G10G05G09G25G02
 110373811.816 8  86005636.401 8  21003436.555                    21003443.535
 120102762.325 7  93586638.74645  22854800.047                    22854808.418
 124400699.087 6  96935673.160 6  23672668.461                    23672679.070
 117656931.603 7  91680844.10945  22389357.242                    22389365.645
 110443093.956 7  86059650.93046  21016604.805                    21016612.363
 111791917.551 8  87110648.076 7  21273277.898                    21273285.527
 128039052.930 6  99770761.97542  24365040.477                    24365051.375
 122480591.109 7  95439466.026 7  23307284.000                    23307295.105
 108602990.401 7  84625788.78445  20666439.289                    20666444.285
 11  8 19  0 48  0.0000000  0  9G12G30G17G04G10G05G09G25G02
 110335789.983 8  85976008.992 8  20996201.414                    20996208.141
 120020444.810 7  93522495.26945  22839135.313                    22839144.090
 124461058.515 6  96982706.445 6  23684154.852                    23684164.910
 117738138.809 7  91744122.42945  22404810.352                    22404818.699
 110471652.114 8  86081904.02546  21022038.836                    21022046.875
 111718757.572 8  87053640.346 7  21259356.305                    21259363.977
 128121640.771 6  99835116.02843  24380756.445                    24380766.867
 122391737.221 7  95370229.292 7  23290375.305                    23290386.215
 108614855.847 7  84635034.59345  20668696.977                    20668702.418
 11  8 19  0 48 30.0000000  0  9G12G30G17G04G10G05G09G25G02
 110298290.303 8  85946788.462 8  20989065.328                    20989072.734
 119938525.378 7  93458661.99145  22823546.516                    22823555.363
 124521594.815 6  97029877.557 6  23695674.922                    23695684.262
 117819401.720 7  91807444.14345  22420274.164                    22420282.184
 110500821.101 8  86104633.10346  21027589.625                    21027597.715
 111646024.626 8  86996965.370 7  21245515.219                    21245523.254
 128204242.359 6  99899480.70143  24396474.445                    24396486.629
 122303178.611 7  95301222.651 7  23273523.539                    23273534.262
 108626956.532 7  84644463.71145  20670999.602                    20671005.086
 11  8 19  0 49  0.0000000  0  9G12G30G17G04G10G05G09G25G02
 110261314.564 8  85917976.203 8  20982028.938                    20982036.254
 119857006.815 7  93395141.07645  22808033.781                    22808043.008
 124582308.695 7  97077187.062 6  23707227.781                    23707237.852
 117900719.027 7  91870808.24645  22435748.219                    22435756.805
 110530600.305 8  86127837.66246  21033256.406                    21033264.531
 111573721.272 8  86940625.135 7  21231755.938                    21231764.098
 128286854.594 6  99963853.69743  24412195.602                    24412207.402
 122214918.144 7  95232448.324 7  23256727.781                    23256738.516
 108639291.543 7  84654075.42945  20673346.750                    20673352.391
 11  8 19  0 49 30.0000000  0  9G12G30G17G04G10G05G09G25G02
 110224864.613 8  85889573.654 8  20975092.969                    20975099.691
 119775891.928 7  93331934.71745  22792598.141                    22792607.234
 124643200.502 6  97124635.226 6  23718814.828                    23718825.453
 117982089.313 7  91934213.62345  22451233.008                    22451241.426
 110560988.357 8  86151516.65546  21039039.602                    21039047.320
 111501850.002 8  86884621.594 7  21218079.398                    21218087.379
 128369474.351 6 100028232.58543  24427917.578                    24427930.004
 122126958.566 7  95163908.455 7  23239989.602                    23240000.363
 108651859.976 7  84663869.01945  20675738.930                    20675744.129
 11  8 19  0 50  0.0000000  0  9G12G30G17G04G10G05G09G25G02
 110188941.204 8  85861581.396 8  20968257.156                    20968264.047
 119695183.256 7  93269044.90545  22777239.891                    22777248.512
 124704270.255 6  97172222.024 6  23730436.883                    23730445.824
 118063510.976 7  91997659.04044  22466726.430                    22466735.602
 110591983.803 8  86175668.94746  21044937.297                    21044945.141
 111430413.028 8  86828956.462 7  21204485.352                    21204493.426
 128452098.271 6 100092614.68443  24443640.070                    24443652.379
 122039302.385 7  95095604.994 7  23223309.711                    23223320.063
 108664660.464 7  84673843.44245  20678174.578                    20678179.926
 11  8 19  0 50 30.0000000  0  9G12G30G17G04G10G05G09G25G02
 110153546.569 8  85834001.175 8  20961521.516                    20961528.484
 119614883.492 7  93206473.71945  22761959.258                    22761967.859
 124765518.739 6  97219948.111 6  23742091.891                    23742100.961
 118144982.309 7  92061143.16745  22482229.969                    22482238.520
 110623585.613 7  86200293.73746  21050951.070                    21050958.906
 111359412.777 8  86773631.640 7  21190974.734                    21190982.355
 128534723.335 6 100156997.65243  24459363.891                    24459376.445
 121951952.425 7  95027540.140 7  23206687.133                    23206698.086
 108677691.957 7  84683997.86245  20680654.047                    20680659.484
 11  8 19  0 51  0.0000000  0  9G12G30G17G04G10G05G09G25G02
 110118682.112 8  85806834.084 8  20954887.180                    20954893.848
 119534995.174 7  93144223.13545  22746757.398                    22746765.938
 124826946.082 6  97267813.531 6  23753781.328                    23753790.438
 118226502.033 7  92124665.00445  22497742.672                    22497751.203
 110655792.544 7  86225390.04846  21057079.469                    21057087.641
 111288852.021 8  86718649.286 7  21177547.344                    21177554.867
 128617346.384 6 100221379.05143  24475086.523                    24475098.688
 121864911.152 7  94959715.821 7  23190123.742                    23190134.605
 108690952.973 7  84694331.12145  20683177.922                    20683182.707
 11  8 19  0 51 30.0000000  0  9G12G30G17G04G10G05G09G25G02
 110084349.511 8  85780081.422 8  20948353.617                    20948360.867
 119455520.840 7  93082295.13745  22731633.430                    22731642.293
 124888552.622 7  97315818.582 6  23765504.664                    23765513.629
 118308068.449 7  92188223.19845  22513264.711                    22513273.355
 110688603.394 7  86250956.94146  21063323.539                    21063331.000
 111218732.523 8  86664010.766 7  21164204.078                    21164211.582
 128699964.371 6 100285756.47243  24490809.000                    24490820.477
 121778181.233 7  94892134.112 7  23173619.008                    23173630.324
 108704442.532 7  84704842.47445  20685745.188                    20685749.957
 11  8 19  0 52  0.0000000  0  9G12G30G17G04G10G05G09G25G02
 110050550.099 8  85753744.238 8  20941921.977                    20941928.906
 119376463.142 7  93020691.79445  22716589.250                    22716597.551
 124950338.560 6  97363963.445 6  23777262.000                    23777271.664
 118389680.133 7  92251816.70844  22528794.477                    22528802.719
 110722017.044 8  86276993.55245  21069681.672                    21069689.398
 111149056.383 8  86609717.706 7  21150944.766                    21150952.883
 128782574.095 6 100350127.47543  24506529.672                    24506540.047
 121691765.309 7  94824797.077 7  23157174.938                    23157185.824
 108718158.986 7  84715530.62745  20688354.906                    20688360.215
 11  8 19  0 52 30.0000000  0  9G12G30G17G04G10G05G09G25G02
 110017285.501 8  85727823.783 8  20935591.922                    20935598.879
 119297824.784 7  92959415.21245  22701624.734                    22701633.703
 125012304.022 6  97412248.217 6  23789053.719                    23789063.383
 118471335.662 7  92315444.35845  22544333.367                    22544341.887
 110756031.986 7  86303498.70445  21076154.555                    21076162.293
 111079826.364 8  86555772.271 7  21137771.023                    21137778.660
 128865172.507 6 100414489.66043  24522247.539                    24522258.680
 121605666.051 7  94757706.801 7  23140790.758                    23140802.117
 108732101.345 7  84726394.80345  20691007.820                    20691013.008
 11  8 19  0 53  0.0000000  0  9G12G30G17G04G10G05G09G25G02
 109984557.163 8  85702321.198 8  20929363.844                    20929370.902
 119219608.358 7  92898467.41245  22686741.172                    22686749.250
 125074449.689 6  97460673.360 6  23800879.313                    23800889.289
 118553033.433 7  92379104.93244  22559880.031                    22559888.051
 110790647.049 8  86330471.47946  21082741.523                    21082749.199
 111011044.683 8  86502176.188 7  21124681.781                    21124690.094
 128947756.392 6 100478840.51943  24537962.367                    24537974.520
 121519886.170 8  94690865.376 7  23124467.523                    23124477.973
 108746268.575 7  84737434.21245  20693703.625                    20693709.051
 11  8 19  0 53 30.0000000  0  9G12G30G17G04G10G05G09G25G02
 109952366.610 8  85677237.667 8  20923238.211                    20923245.320
 119141816.506 7  92837850.44845  22671937.359                    22671946.027
 125136775.656 6  97509239.025 6  23812739.688                    23812749.766
 118634772.222 7  92442797.47345  22575434.406                    22575443.016
 110825860.930 8  86357910.86546  21089442.469                    21089450.441
 110942713.674 8  86448931.272 7  21111679.289                    21111686.715
 129030322.619 7 100543177.62344  24553674.906                    24553686.707
 121434428.283 8  94624274.864 7  23108205.180                    23108216.367
 108760659.486 7  84748647.91745  20696442.547                    20696447.930
 11  8 19  0 54  0.0000000  0  9G12G30G17G04G10G05G09G25G02
 109920715.196 8  85652574.236 8  20917215.203                    20917221.941
 119064451.676 7  92777566.22345  22657215.867                    22657223.977
 125199282.222 6  97557945.395 6  23824634.602                    23824644.582
 118716550.277 7  92506520.59944  22590996.094                    22591004.984
 110861672.295 8  86385815.81446  21096257.391                    21096265.637
 110874835.601 8  86396039.302 7  21098762.203                    21098770.148
 129112868.217 7 100607498.61544  24569383.320                    24569394.660
 121349294.943 8  94557937.249 7  23092004.984                    23092015.969
 108775272.580 7  84760034.74745  20699223.125                    20699228.391
 11  8 19  0 54 30.0000000  0  9G12G30G17G04G10G05G09G25G02
 109889604.685 8  85628332.293 8  20911295.156                    20911302.027
 118987516.632 7  92717616.88845  22642575.094                    22642583.500
 125261969.809 6  97606792.848 6  23836563.672                    23836572.984
 118798366.535 7  92570273.49844  22606565.516                    22606573.930
 110898079.854 8  86414185.34546  21103185.461                    21103193.395
 110807413.003 8  86343502.258 7  21085932.438                    21085939.668
 129195390.259 7 100671801.31344  24585086.414                    24585098.398
 121264488.983 7  94491854.743 7  23075867.039                    23075877.746
 108790107.307 7  84771594.27845  20702046.195                    20702051.531
 11  8 19  0 55  0.0000000  0  9G12G30G17G04G10G05G09G25G02
 109859035.842 8  85604512.431 8  20905478.094                    20905484.891
 118911013.603 7  92658004.19845  22628016.797                    22628025.305
 125324838.628 6  97655781.508 6  23848527.570                    23848536.578
 118880219.069 7  92634054.66644  22622141.391                    22622150.473
 110935081.874 8  86443018.09046  21110227.039                    21110234.727
 110740447.457 8  86291321.372 7  21073189.336                    21073196.344
 129277885.288 7 100736082.91844  24600785.141                    24600797.707
 121180012.695 8  94426029.099 7  23059791.711                    23059802.391
 108805161.647 7  84783324.92245  20704910.938                    20704916.180
 11  8 19  0 55 30.0000000  0  9G12G30G17G04G10G05G09G25G02
 109829010.645 8  85581116.184 8  20899764.438                    20899771.477
 118834945.445 7  92598730.37245  22613541.922                    22613549.828
 125387889.033 6  97704911.660 6  23860525.844                    23860535.141
 118962106.759 7  92697863.23044  22637723.906                    22637733.031
 110972677.496 8  86472313.37946  21117380.891                    21117388.566
 110673941.842 8  86239498.886 7  21060533.586                    21060540.602
 129360350.554 7 100800341.34344  24616477.656                    24616489.871
 121095868.973 8  94360462.618 7  23043779.258                    23043790.352
 108820434.938 7  84795226.19045  20707817.344                    20707822.773
 11  8 19  0 56  0.0000000  0  9G12G30G17G04G10G05G09G25G02
 109799530.627 8  85558144.745 8  20894154.672                    20894161.238
 118759314.670 7  92539797.35445  22599149.477                    22599158.082
 125451121.117 6  97754183.358 6  23872558.031                    23872568.426
 119044028.358 7  92761698.22744  22653312.914                    22653321.695
 111010864.929 8  86502069.82845  21124647.898                    21124655.086
 110607898.198 8  86188036.374 7  21047966.102                    21047973.590
 129442783.012 7 100864574.22544  24632164.383                    24632176.316
 121012060.481 8  94295157.363 7  23027831.156                    23027841.977
 108835925.805 7  84807296.98545  20710765.031                    20710770.098
 11  8 19  0 56 30.0000000  0  9G12G30G17G04G10G05G09G25G02
 109770596.243 8  85535598.469 7  20888648.492                    20888655.512
 118684123.575 7  92481206.95145  22584840.852                    22584849.906
 125514534.908 6  97803596.648 6  23884625.898                    23884635.148
 119125982.105 7  92825558.26344  22668908.391                    22668917.035
 111049642.387 8  86532286.03346  21132027.344                    21132034.949
 110542318.576 8  86136935.420 7  21035486.258                    21035493.898
 129525179.433 7 100928778.99844  24647844.164                    24647856.242
 120928589.620 8  94230115.185 7  23011947.445                    23011958.102
 108851632.752 8  84819536.16845  20713754.016                    20713758.809
 11  8 19  0 57  0.0000000  0  9G12G30G17G04G10G05G09G25G02
 109742209.650 8  85513479.050 8  20883246.883                    20883253.473
 118609375.053 7  92422961.42345  22570616.914                    22570625.492
 125578131.063 7  97853152.057 6  23896727.734                    23896736.895
 119207966.932 7  92889442.50844  22684510.320                    22684517.563
 111089008.977 8  86562961.30045  21139518.492                    21139526.070
 110477205.271 8  86086197.828 7  21023095.570                    21023103.090
 129607536.846 6 100992953.36843  24663516.477                    24663528.641
 120845459.297 8  94165338.372 7  22996127.750                    22996138.523
 108867555.006 8  84831943.11945  20716784.055                    20716788.957
 11  8 19  0 57 30.0000000  0  9G12G30G17G04G10G05G09G25G02
 109714371.969 8  85491787.353 7  20877949.445                    20877956.234
 118535071.454 7  92365062.58145  22556477.227                    22556486.008
 125641909.825 7  97902849.774 6  23908864.344                    23908873.793
 119289981.439 7  92953349.88644  22700116.477                    22700124.609
 111128963.044 8  86594094.34746  21147121.453                    21147128.836
 110412560.249 8  86035825.127 7  21010793.648                    21010801.855
 129689852.191 6 101057094.99643  24679179.852                    24679192.273
 120762671.968 8  94100828.825 7  22980374.078                    22980384.531
 108883691.403 8  84844516.92445  20719854.891                    20719859.527
 11  8 19  0 58  0.0000000  0  9G12G30G17G04G10G05G09G25G02
 109687084.207 8  85470524.171 8  20872756.367                    20872763.652
 118461215.171 7  92307512.29645  22542423.500                    22542431.773
 125705871.328 7  97952689.860 6  23921035.266                    23921044.918
 119372024.041 7  93017279.11944  22715729.109                    22715736.887
 111169502.679 8  86625683.68346  21154835.695                    21154843.313
 110348385.932 8  85985819.199 7  20998581.945                    20998589.703
 129772122.568 6 101121201.54342  24694836.758                    24694847.711
 120680230.184 8  94036588.534 7  22964685.680                    22964696.633
 108900040.580 8  84857256.52345  20722966.055                    20722970.758
 11  8 19  0 58 30.0000000  0  9G12G30G17G04G10G05G09G25G02
 109660348.144 7  85449690.879 8  20867669.320                    20867676.180
 118387808.763 7  92250312.56645  22528453.758                    22528462.563
 125770015.758 7  98002672.531 6  23933241.953                    23933251.539
 119454093.840 7  93081229.58944  22731345.953                    22731353.898
 111210626.536 8  86657728.24145  21162661.188                    21162668.902
 110284684.622 8  85936181.836 7  20986459.906                    20986467.762
 129854344.954 6 101185270.69442  24710481.977                    24710494.051
 120598136.624 8  93972619.592 7  22949063.805                    22949074.449
 108916601.567 8  84870161.17245  20726117.281                    20726122.195
 11  8 19  0 59  0.0000000  0  9G12G30G17G04G10G05G09G25G02
 109634164.591 8  85429288.119 7  20862686.867                    20862692.715
 118314854.716 7  92193465.32645  22514571.180                    22514579.926
 125834343.348 7  98052797.897 6  23945483.078                    23945492.934
 119536188.963 7  93145199.79344  22746968.023                    22746976.984
 111252333.022 8  86690226.80745  21170597.586                    21170605.363
 110221457.820 8  85886914.231 7  20974428.172                    20974436.211
 129936516.442 6 101249300.16942  24726117.945                    24726130.906
 120516393.874 8  93908924.011 7  22933508.461                    22933519.781
 108933372.813 8  84883229.66045  20729308.773                    20729313.543
 11  8 19  0 59 30.0000000  0  9G12G30G17G04G10G05G09G25G02
 109608534.754 8  85409316.824 7  20857809.016                    20857816.105
 118242355.315 7  92136972.36045  22500775.320                    22500783.645
 125898854.328 7  98103066.175 6  23957759.664                    23957769.027
 119618308.283 7  93209188.82644  22762594.773                    22762604.016
 111294620.316 8  86723177.94645  21178644.680                    21178652.020
 110158707.831 8  85838018.180 7  20962487.461                    20962495.344
 130018633.896 6 101313287.57042  24741745.742                    24741757.742
 120435004.394 8  93845503.705 7  22918020.656                    22918031.203
 108950353.149 8  84896461.07945  20732539.789                    20732544.656
 11  8 19  1  0  0.0000000  0  9G12G30G17G04G10G05G09G25G02
 109583460.150 8  85389778.172 7  20853037.734                    20853044.469
 118170313.426 7  92080835.88545  22487065.914                    22487074.449
 125963548.968 7  98153477.565 6  23970070.539                    23970080.512
 119700450.736 7  93273195.87544  22778226.250                    22778235.707
 111337487.375 8  86756580.85845  21186801.906                    21186809.582
 110096437.257 8  85789495.696 7  20950637.539                    20950645.391
 130100694.611 6                  24757360.695
 120353971.111 8  93782360.968 7  22902600.438                    22902611.145
 108967542.063 8  84909855.03345  20735811.070                    20735815.699
 11  8 19  1  0 30.0000000  0  9G12G30G17G04G10G05G09G25G02
 109558941.751 8  85370672.932 7  20848371.930                    20848379.008
 118098731.134 7  92025057.53545  22473444.180                    22473452.453
 126028427.380 7  98204032.137 6  23982416.719                    23982426.055
 119782614.831 7  93337219.82344  22793861.734                    22793870.602
 111380932.129 8  86790433.91945  21195068.898                    21195076.355
 110034647.511 8  85741347.892 7  20938879.086                    20938886.961
 130182695.145 6                  24772965.500
 120273296.320 8  93719497.557 7  22887248.609                    22887259.375
 108984937.736 8  84923410.08145  20739121.430                    20739125.945
 11  8 19  1  1  0.0000000  0  9G12G30G17G04G10G05G09G25G02
 109534980.873 7  85352002.119 7  20843812.469                    20843819.109
 118027611.006 7  91969639.31445  22459910.781                    22459918.563
 126093489.960 7  98254730.246 6  23994797.328                    23994807.391
 119864799.429 7  93401259.74044  22809500.648                    22809509.602
 111424953.012 8  86824735.91745  21203446.078                    21203453.586
 109973340.864 8  85693576.537 7  20927213.164                    20927220.938
 130264632.746 6                  24788557.219
 120192982.719 8  93656915.601 7  22871965.664                    22871975.953
 109002539.372 8  84937125.63645  20742470.781                    20742476.160
 11  8 19  1  1 30.0000000  0  9G12G30G17G04G10G05G09G25G02
 109511578.505 8  85333766.510 7  20839359.039                    20839366.023
 117956955.364 7  91914583.03045  22446464.898                    22446473.258
 126158736.679 6  98305571.864 6  24007212.844                    24007223.348
 119947002.943 7  93465314.37544  22825143.617                    22825152.031
 111469548.111 8  86859485.35345  21211932.391                    21211939.633
 109912519.636 8  85646183.424 7  20915639.117                    20915646.793
 130346504.693 5                  24804135.672
 120113032.783 8  93594617.014 7  22856751.578                    22856762.063
 109020345.609 8  84951000.61745  20745859.195                    20745864.320
 11  8 19  1  2  0.0000000  0  9G12G30G17G04G10G05G09G25G02
 109488735.815 8  85315967.025 7  20835012.219                    20835018.996
 117886766.783 7  91859890.68345  22433108.594                    22433117.070
 126224167.777 6  98356557.141 6  24019664.453                    24019673.789
 120029224.004 7  93529382.69444  22840790.633                    22840797.934
 111514715.868 8  86894681.01645  21220527.453                    21220535.133
 109852185.540 8  85599169.893 7  20904157.719                    20904165.352
 130428307.941 5                  24819704.266
 120033449.229 8  93532603.925 7  22841606.836                    22841617.590
 109038355.252 8  84965034.09245  20749286.383                    20749291.145
 11  8 19  1  2 30.0000000  0  9G12G30G17G04G10G05G09G25G02
 109466453.719 8  85298604.362 7  20830771.945                    20830778.809
 117817047.360 7  91805563.92245  22419841.273                    22419849.965
 126289783.474 6  98407686.212 6  24032149.906                    24032160.172
 120111461.445 7  93593463.76544  22856438.961                    22856447.727
 111560454.521 8  86930321.54046  21229231.180                    21229238.914
 109792340.543 8  85552537.454 7  20892769.570                    20892777.469
 130510039.231 5                  24835257.016
 119954234.312 8  93470878.076 7  22826533.250                    22826543.559
 109056566.974 8  84979225.03646  20752751.805                    20752756.867
 11  8 19  1  3  0.0000000  0  9G12G30G17G04G10G05G09G25G02
 109444733.535 8  85281679.554 7  20826638.602                    20826645.691
 117747799.589 7  91751604.65645  22406664.000                    22406672.375
 126355583.735 6  98458959.119 6  24044672.047                    24044681.547
 120193714.094 7  93657556.71344  22872091.742                    22872100.352
 111606762.348 8  86966405.56746  21238043.852                    21238050.844
 109732986.668 8  85506287.722 7  20881475.156                    20881483.066
 130591695.826 6                  24850796.742
 119875390.732 8  93409441.597 7  22811529.336                    22811540.098
 109074979.669 8  84993572.59146  20756255.727                    20756260.891
 11  8 19  1  3 30.0000000  0  9G12G30G17G04G10G05G09G25G02
 109423576.519 8  85265193.575 7  20822612.828                    20822619.723
 117679026.198 7  91698015.04845  22393576.500                    22393585.176
 126421569.186 6  98510376.309 6  24057228.383                    24057237.984
 120275981.004 7  93721660.75944  22887746.805                    22887755.578
 111653637.553 8  87002931.70746  21246963.633                    21246970.781
 109674125.846 8  85460422.176 7  20870274.188                    20870281.875
 130673275.197 6                  24866320.789
 119796921.383 8  93348296.709 7  22796596.977                    22796607.672
 109093592.773 8  85008076.29145  20759797.773                    20759802.621
 11  8 19  1  4  0.0000000  0  8G12G30G17G04G10G05G25G02
 109402983.723 8  85249147.250 7  20818693.938                    20818700.984
 117610729.477 7  91644796.87045  22380580.328                    22380588.684
 126487739.870 6  98561937.866 6  24069820.117                    24069830.566
 120358261.105 7  93785775.13344  22903404.336                    22903412.730
 111701078.492 8  87039898.69146  21255991.398                    21255998.465
 109615760.318 8  85414942.588 7  20859167.625                    20859175.148
 119718828.738 8  93287445.342 7  22781736.547                    22781747.559
 109112404.898 8  85022735.08546  20763377.695                    20763382.891
 11  8 19  1  4 30.0000000  0  8G12G30G17G04G10G05G25G02
 109382955.646 8  85233540.974 7  20814882.672                    20814889.754
 117542911.392 7  91591951.65145  22367675.047                    22367683.441
 126554095.788 6  98613643.806 6  24082447.391                    24082457.660
 120440552.668 7  93849898.41544  22919063.813                    22919072.371
 111749083.045 8  87077304.84546  21265126.469                    21265133.660
 109557891.614 8  85369850.128 7  20848155.469                    20848163.047
 119641115.068 8  93226889.291 7  22766948.492                    22766958.809
 109131414.630 8  85037547.84046  20766995.117                    20767000.129
 11  8 19  1  5  0.0000000  0  8G12G30G17G04G10G05G25G02
 109363493.453 8  85218375.642 7  20811179.156                    20811186.207
 117475574.297 7  91539481.20945  22354861.039                    22354869.438
 126620637.117 6  98665494.194 6  24095110.117                    24095120.012
 120522854.496 7  93914029.69344  22934724.398                    22934734.063
 111797649.436 8  87115148.79246  21274368.336                    21274375.641
 109500521.560 8  85325146.234 7  20837238.289                    20837246.234
 119563782.800 8  93166630.414 7  22752232.500                    22752242.918
 109150620.875 8  85052513.73846  20770649.789                    20770655.234
 11  8 19  1  5 30.0000000  0  8G12G30G17G04G10G05G25G02
 109344598.427 8  85203652.256 7  20807583.594                    20807590.777
 117408720.770 7  91487387.57645  22342138.898                    22342148.059
 126687363.857 7  98717489.062 6  24107807.875                    24107817.855
 120605165.390 7  93978168.01544  22950387.422                    22950397.234
 111846776.093 8  87153429.29946  21283716.938                    21283724.063
 109443652.704 8  85280832.893 7  20826416.633                    20826424.004
 119486834.784 7  93106670.954 7  22737589.586                    22737600.188
 109170022.890 8  85067632.17246  20774341.969                    20774346.988
 11  8 19  1  6  0.0000000  0  8G12G30G17G04G10G05G25G02
 109326270.787 8  85189370.986 7  20804096.039                    20804102.941
 117342352.767 7  91435672.27445  22329509.680                    22329518.574
 126754276.090 6  98769628.515 6  24120540.727                    24120550.742
 120687484.258 7  94042312.54144  22966052.727                    22966061.465
 111896460.629 8  87192144.52146  21293171.203                    21293178.367
 109387286.251 8  85236911.033 7  20815690.219                    20815697.785
 119410273.152 8  93047012.577 7  22723020.211                    22723030.680
 109189618.881 8  85082901.76846  20778070.828                    20778076.434
 11  8 19  1  6 30.0000000  0  8G12G30G17G04G10G05G25G02
 109308511.702 8  85175532.753 7  20800716.547                    20800723.430
 117276472.264 7  91384336.84545  22316973.148                    22316981.406
 126821373.615 7  98821912.291 6  24133308.906                    24133318.996
 120769809.329 7  94106461.90844  22981718.773                    22981727.332
 111946700.832 8  87231292.73146  21302731.750                    21302739.172
 109331423.825 8  85193381.921 7  20805060.031                    20805067.258
 119334100.131 7  92987657.018 7  22708524.953                    22708535.566
 109209407.145 8  85098321.17746  20781836.758                    20781841.480
 11  8 19  1  7  0.0000000  0  8G12G30G17G04G10G05G25G02
 109291321.990 8  85162138.183 7  20797445.617                    20797452.031
 117211082.022 7  91333383.43045  22304529.938                    22304538.285
 126888656.916 7  98874340.891 6  24146112.602                    24146122.047
 120852140.151 7  94170615.76344  22997385.836                    22997393.840
 111997495.317 8  87270872.85845  21312397.289                    21312404.977
 109276067.726 8  85150247.325 7  20794526.086                    20794533.703
 119258318.805 8  92928606.657 7  22694104.039                    22694114.461
 109229387.594 8  85113890.35146  20785638.789                    20785644.277
 11  8 19  1  7 30.0000000  0  8G12G30G17G04G10G05G25G02
 109274702.754 8  85149188.135 7  20794282.953                    20794289.488
 117146184.369 7  91282813.85545  22292180.148                    22292188.504
 126956126.344 7  98926914.488 6  24158951.336                    24158961.188
 120934475.692 7  94234773.27244  23013054.523                    23013062.559
 112048842.120 8  87310883.35945  21322168.188                    21322175.840
 109221219.829 8  85107508.742 7  20784088.852                    20784096.438
 119182931.627 8  92869863.423 7  22679758.633                    22679768.977
 109249559.262 8  85129608.53546  20789477.078                    20789482.543
 11  8 19  1  8  0.0000000  0  8G12G30G17G04G10G05G25G02
 109258654.501 8  85136683.009 7  20791228.914                    20791235.383
 117081781.224 7  91232629.61445  22279924.984                    22279932.684
 127023781.837 7  98979633.072 6  24171826.125                    24171835.453
 121016814.329 7  94298933.23044  23028723.188                    23028730.801
 112100738.927 8  87351322.42745  21332043.984                    21332051.234
 109166881.323 8  85065167.093 8  20773748.531                    20773756.098
 119107940.762 8  92811428.994 7  22665488.570                    22665498.836
 109269920.630 8  85145474.53346  20793352.023                    20793357.277
 11  8 19  1  8 30.0000000  0  8G12G30G17G04G10G05G25G02
 109243178.041 8  85124623.426 7  20788283.922                    20788290.492
 117017874.516 7  91182832.20045  22267763.398                    22267771.793
 127091622.981 6  99032496.337 6  24184735.508                    24184744.848
 121099154.681 7  94363094.56444  23044391.680                    23044400.082
 112153183.340 8  87392188.21345  21342023.766                    21342031.316
 109113053.962 8  85023223.736 8  20763505.727                    20763513.273
 119033348.472 8  92753305.144 7  22651294.031                    22651304.461
 109290469.794 8  85161486.85446  20797262.203                    20797267.477
 11  8 19  1  9  0.0000000  0  8G12G30G17G04G10G05G25G02
 109228274.525 8  85113010.298 7  20785448.297                    20785454.563
 116954466.837 7  91133423.64345  22255697.688                    22255705.738
 127159650.162 6  99085504.540 6  24197680.734                    24197690.250
 121181496.106 7  94427256.69144  23060060.828                    23060069.297
 112206174.046 7  87433479.67045  21352107.367                    21352114.730
 109059740.000 8  84981680.422 8  20753360.367                    20753367.934
 118959157.584 8  92695494.087 7  22637175.477                    22637186.270
 109311206.305 8  85177645.17546  20801208.359                    20801213.336
 11  8 19  1  9 30.0000000  0  8G12G30G17G04G10G05G25G02
 109213944.307 8  85101843.898 7  20782721.086                    20782727.777
 116891560.361 7  91084405.63345  22243726.625                    22243735.352
 127227863.677 6  99138657.937 6  24210661.313                    24210670.488
 121263837.190 7  94491418.56744  23075729.102                    23075738.520
 112259708.867 7  87475195.11145  21362294.773                    21362302.297
 109006940.917 8  84940538.323 8  20743313.125                    20743320.590
 118885370.476 7  92637997.664 7  22623134.109                    22623144.926
 109332129.084 8  85193948.63346  20805189.484                    20805194.980
 11  8 19  1 10  0.0000000  0  8G12G30G17G04G10G05G25G02
 109200188.718 8  85091125.258 7  20780103.305                    20780110.121
 116829157.361 7  91035779.95045  22231851.930                    22231860.090
 127296263.216 6  99191956.267 6  24223677.469                    24223686.855
 121346177.124 7  94555579.51644  23091398.422                    23091407.852
 112313785.704 7  87517332.90445  21372584.977                    21372592.730
 108954658.499 8  84899798.811 8  20733363.797                    20733371.473
 118811989.751 7  92580817.915 7  22609170.367                    22609181.102
 109353237.067 8  85210396.41846  20809206.484                    20809211.668
 11  8 19  1 10 30.0000000  0  8G12G30G17G04G10G05G25G02
 109187007.814 8  85080854.426 7  20777594.922                    20777601.551
 116767259.744 7  90987548.07645  22220072.945                    22220081.813
 127364849.064 6  99245399.777 6  24236729.570                    24236738.035
 121428514.671 7  94619738.62744  23107066.398                    23107075.496
 112368402.454 7  87559891.40645  21382979.086                    21382986.160
 108902894.402 8  84859463.179 8  20723513.109                    20723520.953
 118739017.652 8  92523956.558 7  22595284.422                    22595294.848
 109374529.101 8  85226987.61046  20813258.359                    20813263.801
 11  8 19  1 11  0.0000000  0  8G12G30G17G04G10G05G25G02
 109174402.812 8  85071032.348 7  20775196.359                    20775203.141
 116705869.862 7  90939711.85345  22208390.898                    22208399.707
 127433621.343 6  99298988.541 6  24249815.336                    24249824.480
 121510848.852 7  94683895.10144  23122733.984                    23122743.113
 112423557.411 7  87602869.29045  21393474.328                    21393481.699
 108851650.506 8  84819532.901 8  20713761.992                    20713769.613
 118666456.843 7  92467415.702 7  22581476.414                    22581486.770
 109396004.144 8  85243721.41746  20817344.648                    20817349.664
 11  8 19  1 11 30.0000000  0  8G12G30G17G04G10G05G25G02
 109162374.024 8  85061659.268 7  20772907.734                    20772914.340
 116644989.774 7  90892272.86645  22196805.656                    22196814.227
 127502579.988 6  99352722.570 6  24262937.750                    24262947.813
 121593178.491 7  94748048.00144  23138400.852                    23138409.332
 112479248.268 7  87646264.76145  21404071.758                    21404079.527
 108800928.339 8  84780009.168 7  20704109.750                    20704117.512
 118594309.587 7  92411197.102 7  22567747.016                    22567757.766
 109417660.997 8  85260596.89346  20821465.672                    20821470.871
 11  8 19  1 12  0.0000000  0  8G12G30G17G04G10G05G25G02
 109150921.774 8  85052735.436 7  20770728.258                    20770734.547
 116584621.118 7  90845232.39445  22185317.758                    22185326.395
 127571724.939 6  99406601.763 6  24276095.234                    24276106.223
 121675502.153 7  94812196.25544  23154067.422                    23154075.340
 112535472.194 7  87690075.61145  21414770.664                    21414778.602
 108750729.073 8  84740892.894 7  20694556.711                    20694564.301
 118522577.806 7  92355302.235 7  22554097.250                    22554107.809
 109439497.971 8  85277612.73446  20825621.055                    20825626.438
 11  8 19  1 12 30.0000000  0  8G12G30G17G04G10G05G25G02
 109140047.130 8  85044261.689 7  20768658.594                    20768665.383
 116524766.374 7  90798592.36845  22173927.961                    22173936.605
 127641056.146 6  99460626.105 5  24289288.898                    24289298.770
 121757819.262 7  94876339.44245  23169731.422                    23169740.051
 112592227.483 8  87734300.50645  21425571.438                    21425578.395
 108701054.373 8  84702185.374 7  20685104.336                    20685111.242
 118451264.418 7  92299733.405 7  22540526.570                    22540537.098
 109461514.572 8  85294768.54046  20829810.945                    20829816.230
 11  8 19  1 13  0.0000000  0  8G12G30G17G04G10G05G25G02
 109129750.923 8  85036238.666 7  20766699.656                    20766705.824
 116465427.765 7  90752354.52845  22162636.117                    22162644.613
 127710574.032 6  99514795.943 5  24302516.758                    24302527.582
 121840128.748 7  94940476.66344  23185394.195                    23185403.285
 112649512.225 7  87778937.96845  21436472.086                    21436479.637
 108651906.120 8  84663888.094 7  20675751.922                    20675758.504
 118380371.861 7  92244492.487 7  22527036.758                    22527046.715
 109483709.937 8  85312063.63847  20834034.641                    20834039.957
 11  8 19  1 13 30.0000000  0  9G12G30G17G04G10G05G29G25G02
 109120033.538 8  85028666.677 7  20764850.375                    20764856.996
 116406607.308 7  90706520.43945  22151442.867                    22151451.492
 127780278.473 6  99569111.124 5  24315781.977                    24315791.609
 121922429.605 7  95004607.16244  23201055.859                    23201064.852
 112707324.402 7  87823986.41945  21447473.242                    21447480.582
 108603286.018 8  84626002.346 7  20666499.477                    20666506.410
 129557153.95916 100953663.73915  24653911.281                    24653919.582
 118309902.523 7  92189581.348 7  22513626.445                    22513636.379
 109506083.021 8  85329497.21746  20838292.125                    20838297.566
 11  8 19  1 14  0.0000000  0  9G12G30G17G04G10G05G29G25G02
 109110895.277 8  85021545.951 7  20763111.273                    20763118.004
 116348306.834 7  90661091.53645  22140348.914                    22140356.945
 127850169.493 6  99623571.682 5  24329082.297                    24329090.973
 122004720.732 6  95068730.10344  23216715.055                    23216724.109
 112765661.526 7  87869443.92045  21458574.375                    21458582.250
 108555195.637 8  84588529.378 7  20657348.508                    20657355.477
 129477671.558 6 100891729.448 5  24638786.250                    24638794.395
 118239858.564 7  92135001.695 7  22500297.453                    22500307.785
 109528632.386 8  85347068.16747  20842583.086                    20842588.168
 11  8 19  1 14 30.0000000  0  9G12G30G17G04G10G05G29G25G02
 109102337.414 8  85014877.479 7  20761482.961                    20761489.555
 116290528.816 7  90616069.72745  22129354.180                    22129362.172
 127920247.144 6  99678177.664 5  24342417.641                    24342425.551
 122087001.538 6  95132844.99644  23232372.063                    23232381.832
 112824521.801 8  87915309.06645  21469775.141                    21469782.770
 108507636.642 8  84551470.474 8  20648298.344                    20648305.254
 129398112.378 6 100829735.306 5  24623646.781                    24623655.465
 118170242.886 7  92080755.759 7  22487050.359                    22487060.270
 109551357.504 8  85364776.06947  20846907.367                    20846913.160
 11  8 19  1 15  0.0000000  0  9G12G30G17G04G10G05G29G25G02
 109094359.502 8  85008660.918 7  20759964.789                    20759971.656
 116233274.659 7  90571456.13245  22118458.875                    22118466.805
 127990511.177 6  99732928.951 5  24355788.422                    24355796.402
 122169270.444 6  95196950.58744  23248027.977                    23248036.746
 112883902.421 8  87961579.67145  21481074.727                    21481083.078
 108460609.782 8  84514826.211 8  20639349.328                    20639356.711
 129318476.094 6 100767681.144 5  24608492.289                    24608501.496
 118101057.111 7  92026844.809 7  22473884.070                    22473894.438
 109574256.615 8  85382619.54347  20851264.906                    20851270.582
 11  8 19  1 15 30.0000000  0  9G12G30G17G04G10G05G29G25G02
 109086962.164 8  85002896.747 7  20758557.195                    20758563.910
 116176546.172 7  90527252.14445  22107663.586                    22107671.859
 128060961.529 6  99787825.365 5  24369193.773                    24369202.422
 122251526.234 6  95261045.99943  23263680.961                    23263689.379
 112943800.876 8  88008253.78845  21492473.250                    21492480.867
 108414116.425 8  84478597.662 8  20630501.617                    20630508.973
 129238763.315 6 100705567.364 5  24593323.234                    24593332.734
 118032303.556 7  91973270.648 7  22460800.867                    22460811.449
 109597328.381 8  85400597.55947  20855655.102                    20855660.797
 11  8 19  1 16  0.0000000  0  9G12G30G17G04G10G05G29G25G02
 109080145.883 8  84997585.356 7  20757260.125                    20757266.871
 116120345.712 7  90483459.59745  22096969.523                    22096977.328
 128131598.280 7  99842867.014 5  24382636.578                    24382644.008
 122333768.392 6  95325130.70443  23279330.102                    23279339.785
 113004215.214 8  88055329.90045  21503969.930                    21503977.531
 108368158.652 8  84442786.449 8  20621756.305                    20621763.773
 129158974.369 6 100643394.230 5  24578139.742                    24578149.641
 117963984.777 7  91920035.272 7  22447800.281                    22447810.781
 109620572.240 8  85418709.66447  20860078.617                    20860084.430
 11  8 19  1 16 30.0000000  0  9G12G30G17G04G10G05G29G25G02
 109073911.227 8  84992727.178 7  20756073.703                    20756080.414
 116064675.087 7  90440079.92045  22086375.320                    22086383.699
 128202421.331 7  99898053.912 5  24396112.969                    24396121.539
 122415995.757 6  95389203.91843  23294978.227                    23294986.547
 113065143.252 8  88102806.31045  21515564.500                    21515571.707
 108322737.609 8  84407393.455 8  20613112.883                    20613120.047
 129079110.118 6 100581162.418 5  24562942.016                    24562950.941
 117896102.994 7  91867140.410 7  22434882.625                    22434893.027
 109643987.042 8  85436954.97247  20864534.039                    20864539.488
 11  8 19  1 17  0.0000000  0  9G12G30G17G04G10G05G29G25G02
 109068258.252 8  84988322.263 7  20754998.219                    20755004.258
 116009536.213 7  90397114.58344  22075883.203                    22075891.055
 128273430.611 7  99953385.864 6  24409625.547                    24409635.020
 122498207.443 6  95453264.94944  23310622.852                    23310631.063
 113126582.955 7  88150681.41245  21527255.992                    21527263.258
 108277854.580 8  84372419.689 8  20604571.539                    20604579.227
 128999171.424 6 100518872.602 5  24547730.336                    24547738.480
 117828660.615 7  91814587.942 7  22422048.977                    22422059.398
 109667571.915 8  85455332.80947  20869022.242                    20869027.555
 11  8 19  1 17 30.0000000  0  9G12G30G17G04G10G05G29G25G02
 109063187.444 8  84984370.979 7  20754032.906                    20754039.664
 115954930.950 7  90354565.04445  22065491.609                    22065500.031
 128344625.828 7 100008862.747 6  24423174.219                    24423182.641
 122580402.564 7  95517313.06344  23326264.719                    23326272.715
 113188531.514 7  88198953.02045  21539044.008                    21539051.719
 108233511.152 8  84337866.392 7  20596133.813                    20596140.813
 128919158.423 6 100456524.873 4  24532503.977                    24532512.293
 117761659.844 7  91762379.582 7  22409298.734                    22409309.250
 109691325.389 8  85473842.01047  20873542.352                    20873547.711
 11  8 19  1 18  0.0000000  0  9G12G30G17G04G10G05G29G25G02
 109058699.242 8  84980873.677 7  20753178.766                    20753185.672
 115900861.181 7  90312432.76844  22055202.789                    22055210.512
 128416007.331 7 100064484.770 6  24436756.938                    24436766.711
 122662579.768 6  95581347.25944  23341901.906                    23341910.340
 113250986.680 7  88247619.37945  21550928.828                    21550936.535
 108189708.727 8  84303734.669 7  20587798.031                    20587805.531
 128839071.822 6 100394119.800 4  24517264.359                    24517272.879
 117695102.933 7  91710517.078 7  22396633.852                    22396644.141
 109715246.756 8  85492482.03347  20878094.258                    20878099.617
 11  8 19  1 18 30.0000000  0  9G12G30G17G04G10G05G29G25G02
 109054794.165 7  84977830.766 7  20752435.688                    20752442.375
 115847328.760 7  90270719.21544  22045015.375                    22045023.266
 128487574.871 7 100120251.758 6  24450375.734                    24450385.207
 122744738.687 6  95645367.15244  23357536.477                    23357545.086
 113313946.151 7  88296678.68645  21562909.758                    21562917.137
 108146448.507 8  84270025.447 7  20579565.664                    20579573.082
 128758912.234 6 100331657.850 4  24502009.195                    24502019.465
 117628992.087 7  91659002.168 7  22384053.750                    22384063.523
 109739334.876 8  85511251.99447  20882678.031                    20882683.574
 11  8 19  1 19  0.0000000  0  9G12G30G17G04G10G05G29G25G02
 109051472.489 7  84975242.456 8  20751803.758                    20751810.887
 115794335.750 7  90229425.97445  22034931.695                    22034939.941
 128559328.648 7 100176163.853 6  24464030.383                    24464039.355
 122826878.253 6  95709371.96444  23373166.719                    23373176.262
 113377407.818 7  88346129.31545  21574985.984                    21574993.859
 108103731.749 8  84236739.705 7  20571437.320                    20571444.621
 128678680.178 6 100269139.489 4  24486742.281                    24486751.691
 117563329.908 7  91607836.854 7  22371558.227                    22371568.328
 109763588.973 8  85530151.29347  20887293.922                    20887298.930
 11  8 19  1 19 30.0000000  0  9G12G30G17G04G10G05G29G25G02
 109048734.126 7  84973108.680 7  20751282.555                    20751289.457
 115741883.597 7  90188554.17745  22024950.320                    22024958.508
 128631268.150 7 100232220.672 6  24477720.258                    24477728.840
 122908997.352 6  95773360.84144  23388793.352                    23388802.797
 113441368.863 7  88395969.08545  21587157.258                    21587164.723
 108061559.723 8  84203878.421 7  20563412.094                    20563419.230
 128598376.272 6 100206565.118 5  24471460.523                    24471470.992
 117498118.174 7  91557022.536 7  22359149.164                    22359159.438
 109788007.542 8  85549178.74847  20891940.289                    20891945.465
 11  8 19  1 20  0.0000000  0  9G12G30G17G04G10G05G29G25G02
 109046579.333 7  84971429.624 7  20750872.398                    20750879.070
 115689974.146 7  90148105.26345  22015072.297                    22015079.816
 128703393.375 6 100288422.185 6  24491445.234                    24491454.023
 122991095.075 7  95837333.07544  23404417.070                    23404424.801
 113505826.882 7  88446196.12545  21599423.008                    21599430.445
 108019933.501 8  84171442.450 8  20555491.008                    20555498.082
 128518001.227 6 100143935.253 5  24456166.125                    24456175.734
 117433359.160 7  91506560.995 7  22346825.141                    22346835.668
 109812589.651 8  85568333.63347  20896618.297                    20896623.285
 11  8 19  1 20 30.0000000  0  9G12G30G17G04G10G05G29G25G02
 109045008.536 8  84970205.643 8  20750573.555                    20750580.645
 115638609.644 7  90108080.97845  22005298.266                    22005305.574
 128775704.553 6 100344768.648 6  24505204.961                    24505213.930
 123073170.950 6  95901288.30444  23420035.078                    23420042.973
 113570779.904 7  88496808.85745  21611783.094                    21611790.645
 107978854.956 8  84139433.233 8  20547673.727                    20547681.012
 128437555.902 7 100081250.645 5  24440858.109                    24440867.031
 117369055.478 7  91456454.264 7  22334588.844                    22334599.219
 109837334.726 8  85587615.51247  20901326.852                    20901332.172
 11  8 19  1 21  0.0000000  0  8G12G30G04G10G05G29G25G02
 109044022.620 8  84969437.419 7  20750386.156                    20750392.746
 115587792.178 7  90068482.96844  21995627.125                    21995635.355
 123155224.558 6  95965226.12244  23435648.719                    23435658.125
 113636225.937 7  88547805.76245  21624237.188                    21624244.805
 107938325.616 8  84107851.953 8  20539961.391                    20539968.641
 128357041.408 7 100018512.131 5  24425536.453                    24425545.781
 117305209.846 7  91406704.431 7  22322439.641                    22322449.984
 109862241.987 8  85607023.77447  20906066.805                    20906071.965
 11  8 19  1 21 30.0000000  0  8G12G30G04G10G05G29G25G02
 109043621.318 8  84969124.735 8  20750309.625                    20750316.797
 115537523.015 7  90029312.20245  21986061.344                    21986069.535
 123237254.313 6  96029145.36343  23451258.594                    23451267.824
 113702162.261 7  88599184.70745  21636784.594                    21636792.422
 107898346.270 8  84076699.251 8  20532353.516                    20532361.098
 128276457.812 7  99955719.721 6  24410201.930                    24410211.520
 117241823.814 7  91357312.743 7  22310377.602                    22310387.930
 109887310.259 8  85626557.48647  20910837.086                    20910842.133
 11  8 19  1 22  0.0000000  0  8G12G30G04G10G05G29G25G02
 109043803.773 8  84969266.932 7  20750344.477                    20750351.129
 115487803.359 7  89990569.63145  21976600.109                    21976608.527
 123319258.991 6  96093045.05344  23466864.555                    23466872.949
 113768585.789 7  88650943.28845  21649424.578                    21649432.355
 107858917.219 8  84045975.345 8  20524850.328                    20524857.477
 128195805.213 7  99892873.551 6  24394854.586                    24394864.184
 117178899.027 7  91308280.490 7  22298403.156                    22298413.676
 109912537.650 8  85646215.19747  20915637.469                    20915642.934
 11  8 19  1 22 30.0000000  0  8G12G30G04G10G05G29G25G02
 109044570.823 8  84969864.660 7  20750490.211                    20750497.180
 115438635.102 7  89952256.72045  21967243.836                    21967251.703
 123401237.947 6  96156924.74543  23482464.195                    23482473.250
 113835494.267 7  88703079.75245  21662156.852                    21662164.133
 107820040.279 8  84015681.645 8  20517452.313                    20517459.383
 128115084.597 7  99829974.413 6  24379493.602                    24379503.055
 117116437.939 7  91259609.532 7  22286517.633                    22286527.270
 109937923.692 8  85665996.53147  20920468.703                    20920473.707
 11  8 19  1 23  0.0000000  0  8G12G30G04G10G05G29G25G02
 109045921.886 8  84970917.466 7  20750747.500                    20750754.230
 115390019.507 8  89914374.44445  21957992.461                    21958000.301
 123483190.063 6  96220783.54143  23498058.133                    23498068.102
 113902884.880 7  88755591.90545  21674981.016                    21674988.152
 107781715.853 8  83985818.490 8  20510159.789                    20510166.797
 128034296.393 7  99767022.590 6  24364120.391                    24364129.465
 117054442.241 7  91211301.203 7  22274719.852                    22274729.637
 109963466.682 8  85685900.16247  20925328.898                    20925334.383
 11  8 19  1 23 30.0000000  0  8G12G30G04G10G05G29G25G02
 109047857.376 7  84972425.650 8  20751115.594                    20751122.203
 115341958.501 8  89876924.32945  21948846.953                    21948854.973
 123565114.912 6  96284621.05243  23513648.266                    23513657.914
 113970755.311 7  88808477.95845  21687896.172                    21687903.680
 107743945.372 8  83956386.983 8  20502972.164                    20502979.086
 127953441.533 7  99704018.849 6  24348733.820                    24348743.102
 116992914.410 7  91163357.471 7  22263011.836                    22263022.051
 109989166.158 8  85705925.73747  20930219.516                    20930224.805
 11  8 19  1 24  0.0000000  0  8G12G30G04G10G05G29G25G02
 109050378.284 8  84974390.023 7  20751595.438                    20751602.000
 115294454.298 8  89839908.08445  21939807.250                    21939814.863
 123647011.853 6  96348436.80743  23529233.352                    23529242.172
 114039103.756 7  88861736.49345  21700902.523                    21700910.109
 107706730.391 8  83927388.338 8  20495890.219                    20495897.117
 127872521.064 6  99640963.979 6  24333336.055                    24333344.098
 116931856.994 7  91115780.293 7  22251392.297                    22251402.625
 110015021.668 8  85726072.89346  20935139.742                    20935144.785
 11  8 19  1 24 30.0000000  0  8G12G30G04G10G05G29G25G02
 109053482.803 8  84976809.144 7  20752186.430                    20752192.984
 115247507.665 8  89803326.31045  21930873.688                    21930881.496
 123728879.413 6  96412229.68543  23544812.219                    23544820.629
 114107926.747 7  88915364.80045  21713999.570                    21714006.570
 107670071.714 8  83898823.169 7  20488914.398                    20488921.168
 127791534.947 6  99577857.955 6  24317923.664                    24317933.180
 116871271.375 7  91068570.755 7  22239863.734                    22239873.898
 110041031.397 8  85746340.21647  20940089.164                    20940094.441
 11  8 19  1 25  0.0000000  0  8G12G30G04G10G05G29G25G02
 109057172.043 8  84979683.902 7  20752888.219                    20752894.805
 115201120.848 8  89767180.76245  21922046.773                    21922054.070
 123810717.423 7  96475999.54044  23560386.180                    23560393.762
 114177222.543 7  88969361.50745  21727185.938                    21727193.512
 107633970.511 8  83870692.405 7  20482044.430                    20482051.469
 127710484.749 6  99514702.012 6  24302500.133                    24302509.602
 116811160.334 7  91021731.009 7  22228424.539                    22228434.965
 110067195.114 8  85766727.53446  20945067.891                    20945072.969
 11  8 19  1 25 30.0000000  0  8G12G30G04G10G05G29G25G02
 109061445.426 8  84983013.823 7  20753701.313                    20753708.074
 115155294.927 8  89731472.27845  21913326.250                    21913333.543
 123892524.629 6  96539745.35744  23575953.266                    23575961.813
 114246987.586 7  89023723.87945  21740461.883                    21740469.234
 107598427.298 8  83842996.440 7  20475280.398                    20475287.746
 127629370.562 5  99451496.262 6  24287064.555                    24287074.094
 116751525.288 7  90975262.171 7  22217076.805                    22217086.375
 110093511.070 8  85787233.47146  20950075.867                    20950081.043
 11  8 19  1 26  0.0000000  0  8G12G30G04G10G05G29G25G02
 109066303.149 8  84986799.073 7  20754625.961                    20754632.297
 115110031.733 8  89696202.28445  21904713.141                    21904720.465
 123974300.613 6  96603466.87544  23591513.641                    23591523.648
 114317220.065 7  89078450.47345  21753826.250                    21753834.227
 107563443.365 8  83815736.262 7  20468623.422                    20468630.539
 127548193.376 5  99388241.369 6  24271616.172                    24271626.352
 116692368.691 7  90929166.164 7  22205819.422                    22205829.520
 110119978.779 8  85807857.65846  20955112.445                    20955117.734
 11  8 19  1 26 30.0000000  0  8G12G30G04G10G05G29G25G02
 109071745.502 8  84991039.875 7  20755661.031                    20755667.977
 115065332.935 8  89661372.08545  21896206.695                    21896214.852
 124056044.560 6  96667163.40543  23607068.734                    23607078.777
 114387917.680 7  89133539.53445  21767279.656                    21767287.414
 107529019.796 8  83788912.735 7  20462072.883                    20462079.820
 127466954.086 5  99324938.116 6  24256157.148                    24256167.297
 116633692.706 7  90883444.663 7  22194653.828                    22194664.168
 110146597.368 8  85828599.42446  20960178.211                    20960183.020
 11  8 19  1 27  0.0000000  0  8G12G30G04G10G05G29G25G02
 109077772.007 8  84995735.854 7  20756808.102                    20756814.820
 115021199.765 8  89626982.62545  21887808.422                    21887815.789
 124137755.707 7  96730834.37243  23622617.891                    23622628.020
 114459077.523 7  89188988.76045  21780820.992                    21780828.520
 107495157.422 8  83762526.496 7  20455628.500                    20455636.238
 127385653.394 5  99261586.994 6  24240686.469                    24240696.496
 116575499.129 7  90838099.058 7  22183580.086                    22183590.152
 110173365.850 8  85849457.98546  20965271.688                    20965276.984
 11  8 19  1 27 30.0000000  0  8G12G30G04G10G05G29G25G02
 109084382.160 8  85000886.624 7  20758065.984                    20758072.566
 114977633.428 8  89593034.85845  21879518.180                    21879526.102
 124219433.050 7  96794479.00543  23638162.188                    23638170.551
 114530696.615 7  89244795.85345  21794449.563                    21794456.984
 107461856.985 8  83736578.128 8  20449291.891                    20449299.777
 127304291.685 6  99198188.296 6  24225204.273                    24225213.672
 116517789.733 7  90793130.735 7  22172598.000                    22172608.516
 110200282.896 8  85870432.31146  20970393.844                    20970399.137
 11  8 19  1 28  0.0000000  0  8G12G30G04G10G05G29G25G02
 109091576.365 8  85006492.495 7  20759434.852                    20759441.383
 114934636.070 8  89559530.46245  21871335.953                    21871343.738
 124301076.121 7  96858096.92843  23653698.352                    23653706.781
 114602773.079 7  89300959.32545  21808165.836                    21808173.422
 107429119.823 8  83711068.672 8  20443062.617                    20443069.738
 127222870.138 6  99134742.987 5  24209709.984                    24209719.832
 116460567.121 7  90748541.724 7  22161709.172                    22161719.121
 110227348.172 8  85891522.13446  20975544.094                    20975549.508
 11  8 19  1 28 30.0000000  0  8G12G30G04G10G05G29G25G02
 109099353.694 8  85012552.749 7  20760914.984                    20760921.738
 114892208.279 8  89526469.88045  21863262.438                    21863270.582
 124382683.866 7  96921687.27343  23669227.578                    23669236.105
 114675303.364 7  89357476.42545  21821967.477                    21821975.539
 107396945.928 8  83685998.123 8  20436939.711                    20436946.992
 127141389.154 6  99071251.360 5  24194205.586                    24194214.250
 116403832.492 8  90704332.965 7  22150912.953                    22150923.160
 110254559.939 8  85912726.10946  20980722.398                    20980727.258
 11  8 19  1 29  0.0000000  0  8G12G30G04G10G05G29G25G02
 109107714.561 8  85019067.696 7  20762505.727                    20762512.504
 114850351.850 8  89493854.51245  21855297.023                    21855305.227
 124464255.663 7  96985249.62743  23684750.055                    23684758.398
 114748285.373 7  89414345.52145  21835855.180                    21835863.289
 107365336.492 8  83661367.420 8  20430924.898                    20430932.578
 127059849.532 7  99007714.036 5  24178688.453                    24178697.098
 116347588.111 8  90660506.209 7  22140209.844                    22140220.027
 110281917.530 7  85934043.72646  20985928.180                    20985933.473
 11  8 19  1 29 30.0000000  0  8G12G30G04G10G05G29G25G02
 109116658.034 8  85026036.626 7  20764207.867                    20764214.809
 114809067.887 8  89461685.20845  21847441.172                    21847449.043
 124545790.718 7  97048783.36343  23700265.656                    23700274.578
 114821716.120 7  89471564.27745  21849829.109                    21849837.055
 107334292.138 8  83637177.057 8  20425017.164                    20425024.637
 126978251.924 7  98944131.507 5  24163161.742                    24163168.281
 116291835.728 8  90617062.834 7  22129600.680                    22129610.457
 110309419.862 7  85955474.11246  20991161.086                    20991166.871
 11  8 19  1 30  0.0000000  0  8G12G30G04G10G05G29G25G02
 109126184.201 8  85033459.591 7  20766020.469                    20766027.496
 114768357.845 8  89429963.11145  21839694.164                    21839701.734
 124627288.284 7  97112287.89743  23715774.547                    23715783.016
 114895593.113 8  89529130.74045  21863887.109                    21863894.539
 107303813.857 8  83613427.781 8  20419217.422                    20419224.277
 126896597.478 7  98880504.703 5  24147622.523                    24147630.402
 116236577.361 8  90574004.390 7  22119085.227                    22119094.750
 110337066.252 7  85977016.76146  20996422.680                    20996428.098
 11  8 19  1 30 30.0000000  0  8G12G30G04G10G05G29G25G02
 109136293.005 8  85041336.563 7  20767944.180                    20767951.176
 114728223.723 8  89398689.79345  21832056.539                    21832064.680
 124708748.472 7  97175763.35043  23731275.328                    23731284.051
 114969914.504 7  89587043.49645  21878029.844                    21878036.969
 107273902.820 8  83590120.510 8  20413525.594                    20413532.871
 126814887.623 6  98816834.704 5  24132073.461                    24132081.070
 116181815.580 8  90531332.907 7  22108663.961                    22108674.047
 110364856.617 7  85998671.60646  21001710.984                    21001716.684
 11  8 19  1 31  0.0000000  0  8G12G30G04G10G05G29G25G02
 109146983.847 8  85049667.074 7  20769978.883                    20769985.242
 114688666.277 8  89367865.83145  21824529.203                    21824537.313
 124790169.863 7  97239208.56443  23746769.617                    23746778.746
 115044677.064 8  89645300.02345  21892257.258                    21892264.047
 107244559.561 8  83567255.668 8  20407941.992                    20407948.574
 126733122.638 6  98753121.737 5  24116514.305                    24116522.484
 116127551.715 8  90489049.400 7  22098337.953                    22098347.965
 110392789.310 7  86020437.35246  21007026.211                    21007031.559
 11  8 19  1 31 30.0000000  0  8G12G30G04G10G05G29G25G02
 109158256.475 8  85058450.920 7  20772123.828                    20772130.992
 114649686.804 8  89337492.23045  21817111.656                    21817119.336
 124871552.024 7  97302623.19843  23762256.578                    23762265.559
 115119878.062 7  89703898.18645  21906567.555                    21906574.379
 107215784.543 8  83544833.606 8  20402465.844                    20402473.156
 126651303.447 6  98689366.562 6  24100944.445                    24100952.973
 116073787.672 8  90447155.368 7  22088107.148                    22088117.547
 110420863.369 7  86042313.25346  21012368.688                    21012374.027
 11  8 19  1 32  0.0000000  0  8G12G30G04G10G05G29G25G02
 109170110.208 8  85067687.577 7  20774379.617                    20774386.313
 114611286.490 8  89307569.91945  21809804.320                    21809812.453
 124952894.161 7  97366006.73543  23777735.633                    23777744.316
 115195514.713 7  89762835.82345  21920960.328                    21920968.125
 107187578.427 8  83522854.839 8  20397098.297                    20397105.609
 126569430.479 6  98625569.475 6  24085364.578                    24085373.656
 116020525.219 8  90405652.187 7  22077971.719                    22077981.750
 110449077.712 7  86064298.48446  21017737.586                    21017743.035
 11  8 19  1 32 30.0000000  0  8G12G30G04G10G05G29G25G02
 109182545.062 8  85077377.058 7  20776746.234                    20776752.879
 114573466.788 8  89278100.02745  21802607.469                    21802615.078
 125034195.687 7  97429358.54443  23793206.344                    23793215.074
 115271584.533 7  89822110.98445  21935435.875                    21935443.828
 107159942.003 8  83501319.994 8  20391839.188                    20391846.301
 126487505.074 6  98561731.545 6  24069774.867                    24069783.445
 115967766.390 8  90364541.431 7  22067931.797                    22067942.285
 110477431.881 8  86086392.65146  21023133.258                    21023138.457
 11  8 19  1 33  0.0000000  0  8G12G30G04G10G05G29G25G02
 109195559.817 8  85087518.419 7  20779222.344                    20779229.414
 114536228.313 8  89249083.03245  21795520.977                    21795529.105
 125115455.477 7  97492677.80343  23808670.117                    23808677.984
 115348084.191 7  89881721.09045  21949993.477                    21950000.758
 107132875.511 8  83480229.250 8  20386688.703                    20386695.801
 126405527.687 6  98497853.098 6  24054174.438                    24054184.250
 115915512.485 8  90323824.129 7  22057988.219                    22057998.730
 110505924.097 7  86108594.41446  21028555.125                    21028560.211
 11  8 19  1 33 30.0000000  0  8G12G30G04G10G05G29G25G02
 109209154.589 8  85098111.742 7  20781809.359                    20781816.270
 114499572.788 8  89220520.28645  21788546.094                    21788553.180
 125196673.411 6  97555964.44043  23824124.773                    23824133.672
 115425011.553 7  89941664.47345  21964632.125                    21964640.094
 107106380.038 8  83459583.451 8  20381646.523                    20381653.750
 126323499.366 6  98433934.989 6  24038564.422                    24038574.766
 115863765.784 8  90283502.050 7  22048141.445                    22048151.672
 110534554.260 8  86130903.65446  21034003.391                    21034008.609
 11  8 19  1 34  0.0000000  0  8G12G30G04G10G05G29G25G02
 109223329.729 8  85109157.298 7  20784506.688                    20784514.082
 114463502.261 8  89192413.37645  21781681.789                    21781689.961
 125277849.737 6  97619218.64943  23839571.453                    23839580.359
 115502364.818 7  90001939.74145  21979351.953                    21979359.594
 107080456.969 8  83439383.679 8  20376713.758                    20376720.852
 126241421.873 6  98369978.558 6  24022946.477                    24022955.984
 115812529.010 8  90243577.319 7  22038391.313                    22038401.055
 110563322.846 8  86153320.76146  21039478.078                    21039483.727
 11  8 19  1 34 30.0000000  0  8G12G30G04G10G05G29G25G02
 109238083.193 8  85120653.506 8  20787314.250                    20787320.895
 114428016.422 8  89164762.07845  21774929.125                    21774936.883
 125358982.512 6  97682438.96443  23855010.852                    23855019.668
 115580139.756 7  90062543.59145  21994151.930                    21994159.730
 107055105.568 8  83419629.367 8  20371889.336                    20371896.531
 126159294.922 6  98305983.650 6  24007317.516                    24007327.223
 115761802.433 8  90204050.138 7  22028738.305                    22028747.902
 110592226.853 8  86175843.38046  21044978.117                    21044983.227
 11  8 19  1 35  0.0000000  0  8G12G30G04G10G05G29G25G02
 109253414.789 8  85132600.200 7  20790231.648                    20790238.914
 114393116.739 8  89137567.51945  21768287.984                    21768295.504
 125440071.542 6  97745625.19643  23870440.961                    23870450.582
 115658334.363 7  90123474.45045  22009031.914                    22009039.348
 107030326.647 8  83400321.130 8  20367174.273                    20367181.320
 126077119.801 6  98241951.158 6  23991681.359                    23991689.594
 115711588.204 8  90164922.184 7  22019182.961                    22019192.527
 110621266.013 8  86198471.31446  21050503.930                    21050509.121
 11  8 19  1 35 30.0000000  0  8G12G30G04G10G05G29G25G02
 109269324.428 8  85144997.329 8  20793259.336                    20793266.184
 114358804.447 8  89110830.67245  21761758.031                    21761766.410
 125521116.080 7  97808776.71344  23885863.891                    23885873.977
 115736945.473 7  90184729.85245  22023990.867                    22023998.832
 107006120.555 8  83381459.266 8  20362567.695                    20362575.031
 125994897.585 5  98177882.019 6  23976033.984                    23976043.344
 115661888.113 8  90126194.856 7  22009725.148                    22009734.945
 110650439.578 8  86221203.97546  21056055.578                    21056060.707
 11  8 19  1 36  0.0000000  0  8G12G30G04G10G05G29G25G02
 109285811.615 8  85157844.493 8  20796396.922                    20796403.773
 114325081.198 8  89084552.82545  21755341.016                    21755348.633
 125602116.247 7  97871893.65944  23901278.297                    23901287.781
 115815971.213 7  90246308.32445  22039029.453                    22039037.152
 106982488.656 8  83363044.825 8  20358070.977                    20358078.035
 125912629.738 6  98113777.275 6  23960378.539                    23960388.250
 115612704.550 8  90087870.016 7  22000365.953                    22000375.875
 110679747.714 8  86244041.49446  21061632.586                    21061637.453
 11  8 19  1 36 30.0000000  0  8G12G30G04G10G05G29G25G02
 109302875.247 8  85171140.838 8  20799643.953                    20799650.984
 114291947.124 7  89058734.06945  21749035.758                    21749043.836
 125683070.595 7  97934974.90044  23916683.742                    23916692.816
 115895407.860 7  90308206.98545  22054145.516                    22054152.961
 106959430.627 8  83345077.560 8  20353683.094                    20353690.332
 125830316.365 6  98049637.060 6  23944715.797                    23944724.473
 115564038.256 8  90049948.254 7  21991104.836                    21991114.605
 110709188.326 8  86266982.24846  21067235.070                    21067240.027
 11  8 19  1 37  0.0000000  0  8G12G30G04G10G05G29G25G02
 109320514.130 8  85184885.429 8  20803000.328                    20803007.102
 114259403.118 7  89033375.11545  21742843.180                    21742851.180
 125763978.417 7  97998019.92244  23932080.039                    23932088.629
 115975252.772 7  90370423.77045  22069340.031                    22069347.188
 106936946.641 8  83327557.595 8  20349404.398                    20349411.730
 125747958.346 6  97985462.059 6  23929042.719                    23929051.918
 115515890.875 8  90012430.815 7  21981942.906                    21981953.012
 110738760.221 8  86290025.28146  21072862.602                    21072867.137
 11  8 19  1 37 30.0000000  0  8G12G30G04G10G05G29G25G02
 109338728.554 8  85199078.495 8  20806466.539                    20806473.332
 114227450.651 7  89008477.09345  21736762.563                    21736770.453
 125844839.705 7  98061028.68744  23947467.578                    23947476.664
 116055503.256 7  90432956.61845  22084610.719                    22084618.469
 106915037.437 8  83310485.524 8  20345235.273                    20345242.758
 125665556.769 6  97921253.106 6  23913362.508                    23913371.715
 115468264.417 8  89975319.301 7  21972879.633                    21972889.598
 110768463.425 8  86313170.63446  21078515.070                    21078519.938
 11  8 19  1 38  0.0000000  0  8G12G30G04G10G05G29G25G02
 109357517.138 8  85213718.953 8  20810041.992                    20810048.879
 114196090.165 7  88984040.36045  21730795.078                    21730802.688
 125925653.211 7  98124000.25344  23962845.477                    23962854.227
 116136156.071 7  90495802.95545  22099958.430                    22099965.801
 106893703.242 8  83293861.502 8  20341175.578                    20341182.813
 125583112.672 6  97857011.007 6  23897673.789                    23897682.625
 115421160.115 8  89938614.666 7  21963915.930                    21963925.598
 110798296.384 8  86336417.08645  21084192.000                    21084197.008
 11  8 19  1 38 30.0000000  0  8G12G30G04G10G05G29G25G02
 109376879.461 8  85228806.486 8  20813726.266                    20813733.348
 114165323.127 8  88960066.07245  21724940.266                    21724947.934
 126006419.210 7  98186934.78844  23978214.078                    23978224.313
 116217209.011 7  90558961.07745  22115382.602                    22115389.887
 106872944.733 8  83277686.076 8  20337225.586                    20337232.363
 125500627.156 6  97792736.615 6  23881977.789                    23881986.188
 115374580.109 8  89902318.548 6  21955052.242                    21955061.992
 110828259.066 8  86359764.62846  21089893.523                    21089898.359
 11  8 19  1 39  0.0000000  0  8G12G30G04G10G05G29G25G02
 109396814.591 8  85244340.367 8  20817519.875                    20817526.855
 114135150.224 8  88936554.74545  21719198.680                    21719206.629
 126087136.681 7  98249831.49844  23993574.461                    23993584.188
 116298659.186 7  90622428.72745  22130881.773                    22130889.676
 106852761.802 8  83261959.142 8  20333384.984                    20333391.988
 125418101.033 7  97728430.578 6  23866273.461                    23866281.816
 115328525.711 8  89866432.007 6  21946288.258                    21946298.016
 110858350.209 8  86383212.26145  21095619.273                    21095624.488
 11  8 19  1 39 30.0000000  0  8G12G30G04G10G05G29G25G02
 109417321.954 8  85260320.136 8  20821422.203                    20821429.055
 114105572.604 8  88913507.27545  21713570.094                    21713577.770
 126167805.571 7  98312690.34443  24008925.453                    24008935.090
 116380504.086 7  90686203.94445  22146456.234                    22146464.594
 106833155.104 8  83246681.219 8  20329653.617                    20329660.418
 125335535.707 7  97664094.014 6  23850561.711                    23850569.781
 115282998.869 8  89830956.556 6  21937624.820                    21937634.047
 110888569.559 8  86406759.79146  21101370.289                    21101375.531
 11  8 19  1 40  0.0000000  0  8G12G30G04G10G05G29G25G02
 109438400.595 8  85276745.055 7  20825433.242                    20825440.426
 114076590.726 7  88890924.02445  21708055.188                    21708062.750
 126248424.943 6  98375510.59043  24024266.328                    24024276.434
 116462740.525 7  90750284.25745  22162105.609                    22162113.355
 106814124.530 8  83231852.224 8  20326032.188                    20326039.258
 125252931.652 7  97599727.204 6  23834842.891                    23834850.723
 115238000.655 8  89795893.010 6  21929062.094                    21929071.805
 110918915.694 8  86430406.12345  21107144.719                    21107150.309
 11  8 19  1 40 30.0000000  0  8G12G30G04G10G05G29G25G02
 109460049.712 8  85293614.500 7  20829552.906                    20829560.000
 114048205.508 7  88868805.70245  21702653.641                    21702661.773
 126328994.348 6  98438291.91643  24039598.992                    24039607.629
 116545365.849 7  90814667.64145  22177828.641                    22177836.359
 106795670.697 8  83217472.643 8  20322520.680                    20322527.629
 125170289.746 7  97535330.929 6  23819116.281                    23819124.965
 115193532.782 8  89761242.728 7  21920599.906                    21920609.836
 110949387.937 8  86454150.71745  21112943.625                    21112948.535
 11  8 19  1 41  0.0000000  0  8G12G30G04G10G05G29G25G02
 109482268.576 8  85310927.907 7  20833781.000                    20833788.109
 114020417.895 7  88847153.04445  21697365.867                    21697373.344
 126409513.561 6  98501034.12443  24054921.219                    24054930.410
 116628377.318 7  90879351.90745  22193625.359                    22193632.852
 106777793.824 8  83203542.627 8  20319118.922                    20319125.797
 125087611.758 7  97470906.524 6  23803383.797                    23803391.113
 115149596.806 8  89727006.919 6  21912239.242                    21912249.340
 110979985.872 8  86477993.24445  21118766.063                    21118771.691
 11  8 19  1 41 30.0000000  0  8G12G30G04G10G05G29G25G02
 109505056.264 8  85328684.553 7  20838117.648                    20838124.453
 113993228.701 7  88825966.70145  21692191.172                    21692199.367
 126489981.807 6  98563736.73142  24070233.273                    24070243.016
 116711772.072 7  90944334.82845  22209494.711                    22209502.414
 106760494.366 8  83190062.556 8  20315826.875                    20315833.695
 125004898.778 7  97406454.844 6  23787643.438                    23787651.691
 115106194.395 8  89693186.865 7  21903979.891                    21903990.016
 111010708.742 8  86501933.12546  21124612.375                    21124617.883
 11  8 19  1 42  0.0000000  0  8G12G30G04G10G05G29G25G02
 109528412.345 8  85346884.099 7  20842561.922                    20842568.605
 113966639.222 7  88805247.65245  21687131.938                    21687139.527
 126570399.325 5  98626399.77442  24085535.969                    24085545.230
 116795547.956 7  91009614.72445  22225437.086                    22225444.371
 106743772.719 8  83177032.717 8  20312644.641                    20312651.582
 124922151.917 7  97341976.793 6  23771897.172                    23771905.504
 115063327.510 8  89659784.125 7  21895822.820                    21895832.742
 111041556.382 8  86525970.21446  21130482.500                    21130488.023
 11  8 19  1 42 30.0000000  0  8G12G30G04G10G05G29G25G02
 109552334.682 8  85365524.875 7  20847114.508                    20847121.043
 113940648.967 7  88784995.53745  21682185.984                    21682193.789
 126650764.528 5  98689022.03342  24100828.602                    24100838.059
 116879700.801 7  91075188.34845  22241450.961                    22241459.035
 106727627.923 8  83164452.378 8  20309572.359                    20309579.184
 124839371.409 6  97277472.488 6  23756144.125                    23756152.891
 115020996.363 8  89626798.840 6  21887767.492                    21887776.898
 111072526.432 8  86550102.70046  21136376.297                    21136380.930
 11  8 19  1 43  0.0000000  0  8G12G30G04G10G05G29G25G02
 109576822.934 8  85384606.616 7  20851774.695                    20851781.156
 113915258.957 8  88765211.14445  21677354.555                    21677362.473
 126731077.353 5  98751603.44143  24116111.859                    24116121.707
 116964228.149 7  91141053.82345  22257535.727                    22257543.414
 106712060.389 8  83152321.848 8  20306609.820                    20306617.109
 124756558.581 7  97212943.033 6  23740385.734                    23740394.438
 114979202.801 8  89594232.448 7  21879814.414                    21879823.773
 111103618.678 8  86574330.40746  21142292.586                    21142297.688
 11  8 19  1 43 30.0000000  0  8G12G30G04G10G05G29G25G02
 109601876.608 8  85404128.947 7  20856542.016                    20856548.770
 113890470.679 7  88745895.63046  21672637.336                    21672645.188
 126811338.063 5  98814144.24342  24131384.281                    24131394.672
 117049127.874 7  91207209.44945  22273691.453                    22273699.473
 106697070.930 8  83140641.759 8  20303757.500                    20303764.496
 124673715.249 6  97148389.788 7  23724621.609                    23724629.938
 114937948.961 8  89562086.617 7  21871964.234                    21871973.863
 111134833.572 8  86598653.68946  21148232.758                    21148237.652
 11  8 19  1 44  0.0000000  0  8G12G30G04G10G05G29G25G02
 109627494.211 8  85424090.702 7  20861416.766                    20861423.352
 113866283.995 8  88727048.88145  21668035.016                    21668042.504
 126891545.37516  98876643.38653  24146648.617                    24146657.742
 117134396.431 7  91273652.48845  22289917.938                    22289924.973
 106682658.989 8  83129411.696 8  20301014.641                    20301022.008
 124590841.712 7  97083813.025 7  23708850.961                    23708859.516
 114897235.485 8  89530361.851 7  21864216.375                    21864225.906
 111166169.167 8  86623071.03146  21154195.852                    21154200.902
 11  8 19  1 44 30.0000000  0  8G12G30G04G10G05G29G25G02
 109653674.518 8  85444490.931 7  20866398.836                    20866405.063
 113842699.763 8  88708671.57145  21663547.109                    21663554.715
 126971699.169 6  98939100.90543  24161901.273                    24161910.316
 117220031.161 7  91340380.85645  22306213.383                    22306220.773
 106668824.632 8  83118631.700 8  20298382.313                    20298389.465
 124507939.424 7  97019213.887 7  23693074.977                    23693083.918
 114857063.970 8  89499059.384 7  21856572.078                    21856581.941
 111197625.014 8  86647582.07946  21160181.531                    21160186.504
 11  8 19  1 45  0.0000000  0  8G12G30G04G10G05G29G25G02
 109680416.352 8  85465328.717 7  20871487.570                    20871494.070
 113819718.173 8  88690763.85646  21659173.836                    21659181.480
 127051798.580 6  99001516.05343  24177143.461                    24177153.902
 117306028.942 7  91407392.11445  22322578.156                    22322585.465
 106655567.896 8  83108301.800 8  20295859.656                    20295866.789
 124425009.297 7  96954593.046 7  23677294.242                    23677302.871
 114817435.382 8  89468179.984 7  21849030.859                    21849040.297
 111229200.085 8  86672186.02746  21166190.133                    21166194.887
 11  8 19  1 45 30.0000000  0  8G12G30G04G10G05G29G25G02
 109707719.399 8  85486603.806 7  20876683.375                    20876689.520
 113797340.360 8  88673326.60046  21654914.922                    21654923.172
 127131843.627 7  99063888.85143  24192376.125                    24192385.477
 117392387.615 7  91474684.58045  22339011.914                    22339019.621
 106642889.316 8  83098422.409 8  20293446.906                    20293453.906
 124342052.880 7  96889951.741 7  23661507.398                    23661516.391
 114778351.689 8  89437725.163 7  21841593.359                    21841602.660
 111260894.431 8  86696882.90846  21172221.227                    21172226.734
 11  8 19  1 46  0.0000000  0  8G12G30G04G10G05G29G25G02
 109735581.686 8  85508314.684 7  20881985.430                    20881992.063
 113775566.334 8  88656359.82846  21650771.969                    21650779.441
 127211833.630 7  99126218.71144  24207597.766                    24207607.043
 117479103.788 7  91542255.60645  22355513.367                    22355521.359
 106630788.305 8  83088993.066 8  20291144.500                    20291151.520
 124259070.931 7  96825290.510 7  23645717.094                    23645725.762
 114739813.646 8  89407695.535 7  21834260.117                    21834269.789
 111292706.621 8  86721671.61946  21178275.289                    21178280.113
 11  8 19  1 46 30.0000000  0  8G12G30G04G10G05G29G25G02
 109764002.112 8  85530460.464 7  20887393.258                    20887400.250
 113754396.464 8  88639863.83546  21646742.945                    21646751.285
 127291767.979 6  99188505.21343  24222808.234                    24222817.969
 117566174.234 7  91610102.69545  22372082.383                    22372089.949
 106619264.633 8  83080013.600 8  20288951.563                    20288959.023
 124176064.184 7  96760609.970 7  23629921.250                    23629929.602
 114701822.403 8  89378091.981 7  21827030.484                    21827040.191
 111324635.615 8  86746551.35046  21184350.773                    21184356.715
 11  8 19  1 47  0.0000000  0  8G12G30G04G10G05G29G25G02
 109792980.475 8  85553041.009 7  20892907.914                    20892914.730
 113733832.252 8  88623839.76545  21642830.422                    21642838.082
 127371647.029 6  99250748.63644  24238009.250                    24238018.926
 117653597.234 7  91678224.51344  22388717.961                    22388726.371
 106608318.763 8  83071484.377 8  20286868.578                    20286875.406
 124093034.907 7  96695911.876 7  23614121.680                    23614129.930
 114664380.196 8  89348916.243 7  21819905.281                    21819915.109
 111356682.210 8  86771522.71946  21190449.367                    21190454.723
 11  8 19  1 47 30.0000000  0  8G12G30G04G10G05G29G25G02
 109822514.431 7  85576054.488 7  20898528.156                    20898534.492
 113713873.031 8  88608287.13345  21639031.961                    21639039.816
 127451469.794 6  99312948.18744  24253199.141                    24253208.406
 117741368.767 7  91746617.90144  22405420.797                    22405428.277
 106597949.919 8  83063404.782 8  20284895.320                    20284902.094
 124009983.131 7  96631196.271 7  23598316.523                    23598325.152
 114627487.149 8  89320168.421 7  21812884.961                    21812894.758
 111388844.397 7  86796584.16846  21196569.180                    21196574.691
 11  8 19  1 48  0.0000000  0  8G12G30G04G10G05G29G25G02
 109852603.794 8  85599500.752 7  20904253.625                    20904260.563
 113694519.948 8  88593206.81046  21635349.047                    21635356.977
 127531236.102 6  99375103.70643  24268377.297                    24268387.504
 117829486.606 7  91815281.12244  22422188.414                    22422196.676
 106588158.762 8  83055775.333 8  20283032.164                    20283038.750
 123926910.960 7  96566464.778 6  23582508.625                    23582517.195
 114591145.162 8  89291850.006 7  21805969.336                    21805979.328
 111421122.227 8  86821735.72846  21202711.664                    21202716.703
 11  8 19  1 48 30.0000000  0  9G12G30G26G04G10G05G29G25G02
 109883246.666 8  85623378.325 7  20910084.703                    20910091.766
 113675773.134 8  88578598.89745  21631781.938                    21631789.691
 130470145.40416 101665110.35253  24827650.102                    24827659.160
 127610945.553 6  99437214.91843  24283546.234                    24283555.395
 117917947.741 7  91884211.85544  22439021.992                    22439030.016
 106578945.008 8  83048595.798 8  20281278.469                    20281285.629
 123843819.284 7  96501718.088 7  23566697.383                    23566705.504
 114555355.252 8  89263961.773 7  21799158.727                    21799168.418
 111453514.593 8  86846976.54046  21208875.906                    21208880.957
 11  8 19  1 49  0.0000000  0  9G12G30G26G04G10G05G29G25G02
 109914442.519 8  85647686.789 7  20916020.953                    20916028.195
 113657633.421 8  88564464.06645  21628330.047                    21628337.906
 130377917.424 6 101593244.48443  24810098.656                    24810109.336
 127690598.294 6  99499281.95043  24298703.438                    24298712.781
 118006749.684 7  91953408.13944  22455920.594                    22455928.770
 106570308.495 8  83041866.071 8  20279635.039                    20279642.156
 123760709.456 7  96436957.240 6  23550881.070                    23550889.699
 114520119.056 8  89236505.014 7  21792453.219                    21792463.250
 111486021.580 7  86872306.67946  21215061.500                    21215066.824
 11  8 19  1 49 30.0000000  0  9G12G30G26G04G10G05G29G25G02
 109946189.885 8  85672425.004 7  20922062.203                    20922069.453
 113640101.265 8  88550802.64945  21624993.984                    21625001.262
 130285556.593 6 101521275.08443  24792523.242                    24792533.438
 127770194.168 6  99561304.65643  24313850.227                    24313858.344
 118095889.639 7  92022867.79745  22472884.000                    22472891.520
 106562249.408 8  83035586.271 8  20278101.758                    20278108.227
 123677583.214 7  96372183.604 7  23535062.984                    23535071.328
 114485437.821 8  89209480.689 7  21785853.820                    21785863.598
 111518642.498 8  86897725.59446  21221269.180                    21221274.105
 11  8 19  1 50  0.0000000  0  9G12G30G26G04G10G05G29G25G02
 109978486.824 8  85697591.449 7  20928208.500                    20928215.398
 113623176.274 8  88537614.35645  21621773.195                    21621780.793
 130193065.147 6 101449203.95143  24774922.867                    24774932.832
 127849732.071 6  99623282.20543  24328985.492                    24328994.418
 118185363.838 7  92092587.93044  22489910.195                    22489918.113
 106554766.596 8  83029755.527 8  20276677.633                    20276684.434
 123594440.825 7  96307397.374 6  23519241.109                    23519249.871
 114451311.980 8  89182889.137 7  21779359.867                    21779369.500
 111551376.116 8  86923232.32946  21227498.180                    21227503.313
 11  8 19  1 50 30.0000000  0  9G12G30G26G04G10G05G29G25G02
 110011332.296 8  85723185.333 7  20934458.969                    20934465.422
 113606858.776 8  88524899.44545  21618667.711                    21618675.930
 130100446.121 6 101377033.41643  24757298.219                    24757307.414
 127929211.646 7  99685214.30543  24344110.766                    24344118.922
 118275169.558 7  92162566.37545  22506999.914                    22507007.637
 106547860.058 8  83024373.820 8  20275363.375                    20275370.016
 123511283.346 7  96242599.382 7  23503416.898                    23503425.336
 114417742.665 8  89156731.247 7  21772971.578                    21772981.531
 111584221.762 8  86948826.35546  21233748.375                    21233753.734
 11  8 19  1 51  0.0000000  0  9G12G30G26G04G10G05G29G25G02
 110044724.803 8  85749205.466 7  20940813.313                    20940819.527
 113591149.026 8  88512658.10845  21615678.227                    21615685.660
 130007702.165 6 101304765.56742  24739648.570                    24739659.008
 128008632.539 6  99747100.67242  24359223.016                    24359232.371
 118365303.960 7  92232800.95145  22524151.656                    22524159.297
 106541529.411 8  83019440.865 8  20274158.656                    20274165.262
 123428112.635 7  96177791.081 7  23487590.594                    23487598.707
 114384730.908 8  89131007.827 7  21766690.047                    21766699.484
 111617178.598 8  86974507.03246  21240019.789                    21240025.266
 11  8 19  1 51 30.0000000  0  9G12G30G26G04G10G05G29G25G02
 110078663.212 8  85775650.974 7  20947271.773                    20947278.387
 113576047.226 8  88500890.49346  21612804.305                    21612812.383
 129914836.266 6 101232402.60842  24721976.641                    24721987.332
 128087994.638 6  99808941.27643  24374326.055                    24374334.270
 118455764.349 7  92303289.52745  22541366.320                    22541373.848
 106535774.424 8  83014956.470 8  20273063.508                    20273070.508
 123344929.590 7  96112973.188 6  23471760.883                    23471769.305
 114352277.830 8  89105719.739 7  21760514.148                    21760524.027
 111650246.474 8  87000274.22246  21246312.461                    21246317.055
 11  8 19  1 52  0.0000000  0  9G12G30G26G04G10G05G29G25G02
 110113145.697 8  85802520.426 7  20953833.242                    20953840.160
 113561553.507 8  88489596.72146  21610046.234                    21610054.504
 129821851.269 5 101159946.87142  24704282.125                    24704292.332
 128167297.385 6  99870735.62642  24389416.898                    24389425.129
 118546547.760 7  92374029.81045  22558641.719                    22558649.063
 106530594.716 8  83010920.346 8  20272077.656                    20272084.406
 123261735.561 7  96048146.724 7  23455929.602                    23455938.184
 114320384.400 8  89080867.750 7  21754444.836                    21754454.848
 111683424.351 8  87026127.14746  21252625.539                    21252631.016
 11  8 19  1 52 30.0000000  0  9G12G30G26G04G10G05G29G25G02
 110148171.140 8  85829812.961 7  20960498.305                    20960505.219
 113547668.071 8  88478776.93546  21607404.328                    21607412.348
 129728749.905 5 101087400.49942  24686564.867                    24686575.215
 128246540.704 6  99932483.70542  24404496.031                    24404505.648
 118637651.286 7  92445019.53445  22575978.531                    22575985.484
 106525989.878 8  83007332.176 8  20271201.742                    20271208.316
 123178531.720 7  95983312.605 7  23440097.094                    23440105.031
 114289051.603 8  89056452.621 7  21748482.438                    21748492.375
 111716711.695 7  87052065.36846  21258960.453                    21258965.301
 11  8 19  1 53  0.0000000  0  9G12G30G26G04G10G05G29G25G02
 110183737.781 8  85857527.211 7  20967266.492                    20967273.387
 113534391.082 8  88468431.26246  21604877.406                    21604885.547
 129635535.136 5 101014765.75042  24668826.320                    24668836.773
 128325724.079 6  99994185.02742  24419563.516                    24419573.082
 118729071.952 7  92516256.41245  22593374.430                    22593382.824
 106521959.422 8  83004191.573 8  20270434.789                    20270441.215
 123095319.345 7  95918471.831 7  23424261.969                    23424270.387
 114258280.411 8  89032475.106 7  21742626.813                    21742636.766
 111750107.798 7  87078088.34446  21265315.484                    21265320.609
 11  8 19  1 53 30.0000000  0  9G12G30G26G04G10G05G29G25G02
 110219844.544 8  85885662.345 7  20974137.313                    20974144.051
 113521722.768 8  88458559.88945  21602466.750                    21602474.668
 129542210.285 5 100942045.25342  24651067.148                    24651077.570
 128404847.378 6 100055839.51642  24434621.016                    24434629.641
 118820806.946 7  92587738.21744  22610830.852                    22610838.988
 106518503.065 8  83001498.329 8  20269776.836                    20269783.531
 123012099.876 7  95853625.527 7  23408425.922                    23408434.043
 114228071.963 8  89008936.085 7  21736878.891                    21736888.707
 111783612.420 8  87104195.87146  21271690.977                    21271696.422
 11  8 19  1 54  0.0000000  0  9G12G30G26G04G10G05G29G25G02
 110256489.626 8  85914216.937 7  20981110.828                    20981117.758
 113509662.958 8  88449162.66645  21600171.867                    21600179.598
 129448778.021 6 100869240.98742  24633288.664                    24633298.047
 128483910.142 6 100117446.92843  24449665.602                    24449676.043
 118912853.237 7  92659462.59144  22628346.391                    22628354.473
 106515620.379 8  82999252.101 8  20269228.188                    20269234.809
 122928874.396 7  95788774.517 7  23392588.555                    23392596.664
 114198427.044 8  88985836.184 7  21731236.891                    21731247.125
 111817224.589 7  87130387.19946  21278087.438                    21278092.297
 11  8 19  1 54 30.0000000  0  9G12G30G26G04G10G05G29G25G02
 110293671.980 8  85943190.192 7  20988186.188                    20988193.297
 113498211.985 8  88440239.85445  21597993.000                    21598000.551
 129355241.113 6 100796355.18143  24615488.992                    24615498.363
 128562912.319 6 100179007.11343  24464698.797                    24464708.418
 119005207.926 7  92731427.27144  22645921.156                    22645928.891
 106513311.003 8  82997452.610 8  20268788.852                    20268795.539
 122845644.395 7  95723919.999 7  23376750.547                    23376758.438
 114169346.624 8  88963176.150 7  21725703.188                    21725713.348
 111850944.169 8  87156662.22046  21284504.078                    21284509.230
 11  8 19  1 55  0.0000000  0  9G12G30G26G04G10G05G29G25G02
 110331389.554 8  85972580.501 7  20995363.461                    20995370.496
 113487369.723 8  88431791.36045  21595929.469                    21595937.105
 129261602.713 6 100723390.33843  24597670.914                    24597680.234
 128641853.625 6 100240519.77643  24479721.023                    24479730.516
 119097868.232 7  92803630.10044  22663554.391                    22663561.664
 106511574.639 8  82996099.620 8  20268458.500                    20268465.043
 122762411.109 7  95659062.912 7  23360911.305                    23360919.586
 114140831.571 7  88940956.654 7  21720277.172                    21720286.930
 111884770.174 8  87183020.15846  21290940.906                    21290945.801
 11  8 19  1 55 30.0000000  0  9G12G30G26G04G10G05G29G25G02
 110369640.455 8  86002386.388 7  21002642.578                    21002649.422
 113477136.050 8  88423817.09245  21593982.320                    21593989.613
 129167865.612 6 100650348.54443  24579833.703                    24579842.184
 128720733.423 6 100301984.57843  24494730.820                    24494740.871
 119190830.925 7  92876068.54144  22681243.953                    22681252.012
 106510410.284 8  82995192.358 8  20268236.805                    20268243.770
 122679175.628 7  95594204.106 7  23345072.219                    23345080.746
 114112882.582 8  88919178.253 7  21714958.539                    21714968.152
 111918701.814 8  87209460.40346  21297398.008                    21297403.176
 11  8 19  1 56  0.0000000  0  9G12G30G26G04G10G05G29G25G02
 110408423.766 8  86032607.137 7  21010023.016                    21010029.574
 113467511.057 8  88416317.10945  21592150.844                    21592157.852
 129074032.684 6 100577232.07343  24561976.375                    24561986.375
 128799551.947 6 100363401.57443  24509729.922                    24509739.324
 119284093.526 7  92948740.66144  22698991.781                    22698999.535
 106509817.569 8  82994730.522 8  20268123.938                    20268130.484
 122595939.785 7  95529345.031 7  23329232.781                    23329241.313
 114085500.692 8  88897841.744 7  21709747.906                    21709757.781
 111952739.131 8  87235982.99746  21303875.156                    21303879.781
 11  8 19  1 56 30.0000000  0  9G12G30G26G04G10G05G29G25G02
 110447737.821 8  86063241.457 7  21017504.086                    21017510.875
 113458494.803 8  88409291.46545  21590435.078                    21590442.121
 128980107.317 6 100504043.55343  24544103.391                    24544112.695
 128878308.742 6 100424770.50543  24524718.125                    24524726.422
 119377653.156 7  93021644.25144  22716795.594                    22716803.164
 106509796.262 8  82994713.938 8  20268120.070                    20268126.816
 122512704.809 7  95464486.623 7  23313393.742                    23313402.152
 114058686.707 8  88876947.756 7  21704645.438                    21704655.359
 111986881.295 8  87262587.29346  21310371.961                    21310377.160
 11  8 19  1 57  0.0000000  0  9G12G30G26G04G10G05G29G25G02
 110487581.097 8  86094288.159 7  21025085.789                    21025092.949
 113450087.130 8  88402740.03445  21588835.281                    21588842.559
 128886092.308 7 100430785.21443  24526213.234                    24526221.645
 128957003.617 6 100486091.17143  24539693.258                    24539701.652
 119471506.616 7  93094776.80544  22734655.766                    22734663.004
 106510345.632 8  82995142.032 8  20268224.633                    20268231.262
 122429472.112 7  95399630.003 7  23297555.563                    23297563.473
 114032441.450 8  88856496.924 7  21699651.125                    21699661.152
 112021127.967 8  87289273.02846  21316888.523                    21316893.676
 11  8 19  1 57 30.0000000  0  9G12G30G26G04G10G05G29G25G02
 110527951.905 8  86125745.927 7  21032768.172                    21032774.922
 113442288.003 8  88396662.79345  21587350.813                    21587358.086
 128791990.569 6 100357459.26043  24508305.672                    24508315.227
 129035636.467 6 100547363.52843  24554656.047                    24554664.879
 119565651.345 7  93168136.31744  22752570.664                    22752578.398
 106511465.039 8  82996014.313 8  20268437.719                    20268444.445
 122346242.944 7  95334776.137 7  23281717.109                    23281725.359
 114006765.726 8  88836489.884 7  21694765.156                    21694774.855
 112055478.428 8  87316039.64646  21323425.867                    21323430.504
 11  8 19  1 58  0.0000000  0  9G12G30G26G04G10G05G29G25G02
 110568847.990 8  86157613.000 7  21040550.414                    21040557.527
 113435097.010 8  88391059.40945  21585982.180                    21585989.832
 128697805.278 6 100284068.18543  24490382.820                    24490391.707
 129114207.009 6 100608587.34043  24569607.063                    24569616.434
 119660084.432 7  93241720.52144  22770540.531                    22770548.063
 106513153.718 8  82997330.178 8  20268758.859                    20268765.293
 122263018.651 7  95269926.070 7  23265880.133                    23265888.238
 113981660.108 8  88816927.077 8  21689987.531                    21689997.180
 112089931.963 8  87342886.56546  21329981.609                    21329987.203
 11  8 19  1 58 30.0000000  0  9G12G30G26G04G10G05G29G25G02
 110610267.928 8  86189888.281 7  21048432.430                    21048439.508
 113428514.123 8  88385929.87945  21584729.641                    21584737.227
 128603539.341 6 100210614.29243  24472444.867                    24472453.488
 129192714.895 6 100669762.30343  24584546.461                    24584556.543
 119754802.797 7  93315526.99444  22788564.406                    22788572.570
 106515410.993 8  82999089.097 8  20269188.422                    20269194.918
 122179800.812 7  95205081.034 7  23250044.531                    23250052.063
 113957125.285 8  88797809.040 7  21685318.883                    21685328.922
 112124488.452 8  87369813.70746  21336557.695                    21336562.953
 11  8 19  1 59  0.0000000  0  9G12G30G26G04G10G05G29G25G02
 110652210.390 8  86222570.709 7  21056414.102                    21056420.832
 113422539.143 7  88381274.03945  21583592.555                    21583600.414
 128509195.672 6 100137099.81343  24454491.914                    24454500.504
 129271159.992 6 100730888.34842  24599473.508                    24599483.684
 119849803.466 6  93389553.47544  22806642.422                    22806650.559
 106518236.307 8  83001290.652 8  20269726.016                    20269732.605
 122096590.817 7  95140242.099 7  23234209.781                    23234217.977
 113933162.033 7  88779136.387 7  21680758.891                    21680768.633
 112159147.186 7  87396820.50946  21343152.844                    21343158.465
 11  8 19  1 59 30.0000000  0  9G12G30G26G04G10G05G29G25G02
 110694673.416 8  86255658.772 7  21064494.313                    21064501.316
 113417171.959 8  88377091.80545  21582571.430                    21582578.832
 128414777.641 6 100063527.44343  24436524.539                    24436533.824
 129349542.029 6 100791965.25043  24614389.773                    24614399.215
 119945083.906 7  93463797.97144  22824774.109                    22824782.063
 106521628.962 8  83003934.290 8  20270371.461                    20270378.504
 122013389.766 7  95075410.149 7  23218377.133                    23218385.438
 113909771.103 8  88760909.690 7  21676307.742                    21676317.398
 112193907.563 7  87423906.52146  21349767.570                    21349773.043
 11  8 19  2  0  0.0000000  0  9G12G30G26G04G10G05G29G25G02
 110737655.211 8  86289151.076 7  21072673.922                    21072680.730
 113412412.149 8  88373382.85145  21581665.703                    21581673.180
 128320288.066 6  99989899.27543  24418543.938                    24418552.484
 129427860.888 6 100852992.92043  24629292.852                    24629302.699
 120040640.956 7  93538258.01444  22842958.625                    22842966.441
 106525588.232 8  83007019.444 8  20271124.883                    20271131.445
 121930199.433 7  95010586.553 7  23202546.141                    23202554.863
 113886953.014 8  88743129.369 7  21671965.617                    21671975.648
 112228769.199 8  87451071.43046  21356401.500                    21356406.680
 11  8 19  2  0 30.0000000  0  9G12G30G26G04G10G05G29G25G02
 110781154.169 8  86323046.361 7  21080951.063                    21080958.258
 113408259.637 8  88370147.11345  21580875.172                    21580882.723
 128225730.286 6  99916217.98043  24400549.461                    24400558.496
 129506116.493 6 100913971.29643  24644184.461                    24644193.582
 120136471.618 7  93612931.25644  22861194.508                    22861202.031
 106530113.668 8  83010545.763 8  20271986.211                    20271993.027
 121847021.402 7  94945772.548 7  23186718.586                    23186726.590
 113864708.548 8  88725796.017 7  21667732.758                    21667742.742
 112263731.818 8  87478315.01946  21363054.711                    21363059.711
 11  8 19  2  1  0.0000000  0  9G12G30G26G04G10G05G29G25G02
 110825168.397 8  86357343.150 7  21089326.875                    21089333.617
 113404714.167 8  88367384.39245  21580200.523                    21580208.320
 128131107.227 6  99842485.81642  24382543.578                    24382552.086
 129584308.760 6 100974900.37343  24659064.063                    24659073.410
 120232573.236 7  93687815.59744  22879481.039                    22879489.086
 106535204.420 8  83014512.590 8  20272955.016                    20272961.285
 121763856.866 7  94880969.066 7  23170892.328                    23170901.016
 113843038.333 8  88708910.140 7  21663608.750                    21663619.063
 112298794.664 8  87505636.71146  21369726.875                    21369732.152
 11  8 19  2  1 30.0000000  0  9G12G30G26G04G10G05G29G25G02
 110869696.262 8  86392040.181 7  21097800.836                    21097806.922
 113401775.395 8  88365094.42945  21579641.406                    21579649.711
 128036422.343 6  99768705.50542  24364525.742                    24364534.660
 129662437.645 6 101035779.96343  24673932.125                    24673941.215
 120328942.957 7  93762908.87044  22897820.102                    22897828.422
 106540859.585 8  83018919.224 8  20274031.039                    20274037.758
 121680707.673 7  94816177.549 7  23155069.438                    23155077.879
 113821942.982 8  88692472.212 7  21659594.477                    21659604.539
 112333957.503 8  87533036.31246  21376418.039                    21376423.379
 11  8 19  2  2  0.0000000  0  8G12G30G26G10G05G29G25G02
 110914736.145 8  86427136.198 7  21106371.211                    21106377.727
 113399443.207 8  88363277.13145  21579197.563                    21579205.258
 127941678.766 6  99694879.40642  24346496.500                    24346505.309
 120425578.146 7  93838208.98944  22916209.438                    22916216.426
 106547078.550 8  83023765.174 8  20275214.539                    20275220.758
 121597575.186 7  94751399.046 7  23139249.633                    23139258.742
 113801423.219 8  88676482.802 7  21655689.852                    21655699.898
 112369220.018 7  87560513.58446  21383128.555                    21383133.691
 11  8 19  2  2 30.0000000  0  8G12G30G26G10G05G29G25G02
 110960285.619 8  86462629.291 7  21115039.227                    21115045.449
 113397716.894 8  88361931.95145  21578869.148                    21578876.824
 127846879.192 6  99621009.71342  24328455.695                    24328464.625
 120522475.490 6  93913713.39744  22934648.148                    22934655.258
 106553860.148 8  83029049.550 8  20276505.188                    20276511.523
 121514460.485 7  94686634.389 7  23123433.742                    23123442.395
 113781479.277 8  88660942.071 7  21651894.703                    21651905.184
 112404581.546 8  87588068.02045  21389857.445                    21389862.617
 11  8 19  2  3  0.0000000  0  8G12G30G26G10G05G29G25G02
 111006343.027 8  86498518.181 7  21123803.313                    21123809.973
 113396595.709 8  88361058.29145  21578655.688                    21578663.434
 127752026.637 6  99547098.73542  24310405.758                    24310414.961
 120619632.024 7  93989419.77944  22953136.789                    22953143.883
 106561203.405 8  83034771.572 8  20277902.320                    20277909.242
 121431365.159 7  94621884.834 7  23107621.398                    23107629.465
 113762111.374 8  88645850.199 7  21648209.164                    21648219.297
 112440041.269 8  87615698.96545  21396605.039                    21396610.863
 11  8 19  2  3 30.0000000  0  8G12G30G26G10G05G29G25G02
 111052905.622 8  86534800.716 7  21132663.719                    21132670.645
 113396079.200 8  88360655.82046  21578557.656                    21578565.418
 127657124.045 6  99473148.69142  24292346.938                    24292355.367
 120717044.962 6  94065325.95443  22971672.961                    22971680.414
 106569107.237 7  83040930.408 8  20279406.234                    20279412.691
 121348290.535 7  94557151.425 7  23091813.203                    23091820.910
 113743319.945 8  88631207.532 7  21644633.086                    21644643.191
 112475598.679 8  87643406.03445  21403371.820                    21403376.445
 11  8 19  2  4  0.0000000  0  8G12G30G26G10G05G29G25G02
 111099972.141 8  86571475.919 7  21141620.156                    21141627.273
 113396167.047 8  88360724.28646  21578574.445                    21578581.844
 127562174.777 7  99399162.31543  24274279.141                    24274287.477
 120814711.450 7  94141429.70944  22990258.789                    22990266.996
 106577571.298 8  83047525.798 8  20281016.852                    20281023.555
 121265238.334 7  94492435.482 7  23076008.359                    23076016.215
 113725105.575 8  88617014.524 7  21641166.898                    21641177.176
 112511253.514 8  87671189.01146  21410156.438                    21410161.297
 11  8 19  2  4 30.0000000  0  8G12G30G26G10G05G29G25G02
 111147540.972 8  86608542.531 7  21150671.758                    21150678.773
 113396858.641 8  88361263.19046  21578705.828                    21578713.277
 127467181.892 7  99325142.00343  24256202.125                    24256210.563
 120912628.650 6  94217728.79144  23008891.141                    23008899.246
 106586594.295 8  83054556.718 8  20282733.922                    20282741.223
 121182209.798 7  94427737.977 6  23060208.625                    23060216.465
 113707468.556 8  88603271.398 7  21637810.750                    21637820.566
 112547005.197 8  87699047.46345  21416960.102                    21416964.770
 11  8 19  2  5  0.0000000  0  8G12G30G26G10G05G29G25G02
 111195609.238 8  86645998.333 7  21159819.273                    21159826.430
 113398153.255 8  88362271.98946  21578952.188                    21578959.578
 127372148.610 7  99251090.17944  24238118.500                    24238126.934
 121010793.349 7  94294220.74744  23027572.484                    23027579.348
 106596174.857 8  83062022.120 8  20284557.180                    20284563.910
 121099206.288 7  94363059.982 7  23044413.266                    23044421.555
 113690409.146 8  88589978.361 7  21634564.453                    21634574.316
 112582853.363 8  87726981.09345  21423781.328                    21423786.578
 11  8 19  2  5 30.0000000  0  8G12G30G26G10G05G29G25G02
 111244175.947 8  86683842.524 7  21169060.938                    21169067.984
 113400050.725 7  88363750.54646  21579313.367                    21579320.824
 127277078.240 7  99177009.43543  24220026.711                    24220035.914
 121109202.974 7  94370903.56444  23046299.242                    23046306.805
 106606312.841 7  83069921.867 8  20286486.484                    20286493.090
 121016229.978 7  94298403.162 7  23028623.492                    23028631.215
 113673928.099 8  88577135.994 7  21631428.102                    21631438.227
 112618797.924 7  87754989.85045  21430621.375                    21430626.102
 11  8 19  2  6  0.0000000  0  8G12G30G26G10G05G29G25G02
 111293238.369 8  86722072.990 7  21178397.367                    21178404.145
 113402550.423 7  88365698.37646  21579788.867                    21579796.789
 127181973.891 7  99102902.24043  24201929.234                    24201937.578
 121207854.512 7  94447774.92244  23065071.945                    23065079.129
 106617006.993 8  83078254.999 8  20288521.258                    20288528.184
 120933282.338 8  94233768.675 7  23012839.422                    23012847.102
 113658025.654 8  88564744.493 7  21628402.133                    21628411.617
 112654838.120 7  87783073.13645  21437479.531                    21437484.785
 11  8 19  2  6 30.0000000  0  8G12G30G26G10G05G29G25G02
 111342794.954 8  86760688.508 7  21187827.688                    21187835.109
 113405651.660 7  88368114.93146  21580378.867                    21580386.520
 127086839.034 7  99028771.24843  24183824.977                    24183834.086
 121306745.106 7  94524832.51744  23083890.031                    23083898.422
 106628256.134 8  83087020.586 8  20290662.008                    20290668.801
 120850364.664 7  94169157.529 6  22997060.414                    22997068.020
 113642702.135 8  88552804.100 7  21625486.125                    21625495.957
 112690973.812 7  87811230.83445  21444355.836                    21444361.113
 11  8 19  2  7  0.0000000  0  8G12G30G26G10G05G29G25G02
 111392843.402 8  86799687.310 7  21197351.938                    21197358.625
 113409353.769 8  88370999.70545  21581083.625                    21581091.379
 126991676.605 7  98954618.75543  24165716.141                    24165724.922
 121405872.117 7  94602074.28644  23102752.867                    23102760.945
 106640059.328 8  83096217.899 8  20292908.352                    20292914.586
 120767478.790 7  94104571.157 7  22981287.766                    22981295.488
 113627957.764 8  88541314.987 7  21622680.523                    21622690.109
 112727204.494 7  87839462.53845  21451250.742                    21451255.684
 11  8 19  2  7 30.0000000  0  8G12G30G26G10G05G29G25G02
 111443381.964 8  86839068.002 7  21206969.031                    21206975.785
 113413656.158 7  88374352.22845  21581901.984                    21581909.680
 126896489.916 7  98880447.41043  24147603.063                    24147611.457
 121505232.578 7  94679497.98944  23121661.273                    23121668.824
 106652415.624 8  83105846.209 8  20295259.234                    20295266.145
 120684626.064 7  94040010.619 7  22965521.797                    22965529.555
 113613792.893 8  88530277.448 7  21619984.914                    21619994.613
 112763529.750 7  87867767.94645  21458162.836                    21458168.375
 11  8 19  2  8  0.0000000  0  8G12G30G26G10G05G29G25G02
 111494408.334 8  86878828.807 7  21216678.852                    21216685.715
 113418557.996 7  88378171.86046  21582834.773                    21582842.602
 126801282.090 6  98806259.56043  24129485.047                    24129493.906
 121604823.635 7  94757101.39044  23140612.227                    23140620.852
 106665323.647 8  83115904.432 8  20297715.313                    20297722.039
 120601808.113 7  93975477.159 7  22949761.734                    22949770.059
 113600207.577 8  88519691.489 7  21617399.805                    21617409.430
 112799949.154 7  87896146.71246  21465093.359                    21465098.535
 11  8 19  2  8 30.0000000  0  8G12G30G26G10G05G29G25G02
 111545920.556 8  86918968.201 7  21226481.492                    21226488.223
 113424058.756 7  88382458.16945  21583881.281                    21583889.602
 126706056.446 6  98732057.82943  24111364.992                    24111372.906
 121704642.738 7  94834882.48744  23159607.375                    23159615.313
 106678782.833 8  83126392.122 8  20300276.992                    20300283.676
 120519026.729 7  93910972.200 7  22934008.828                    22934016.930
 113587202.265 8  88509557.485 7  21614925.047                    21614934.199
 112836462.733 8  87924598.87846  21472041.656                    21472046.730
 11  8 19  2  9  0.0000000  0  8G12G30G26G10G05G29G25G02
 111597916.391 8  86959484.432 7  21236376.047                    21236382.758
 113430157.257 8  88387210.25345  21585042.453                    21585050.012
 126610816.071 6  98657844.62243  24093241.305                    24093249.645
 121804686.579 7  94912838.71344  23178645.359                    23178652.938
 106692791.338 8  83137307.859 8  20302942.586                    20302949.176
 120436283.057 7  93846496.632 7  22918263.445                    22918270.941
 113574776.719 8  88499875.250 7  21612560.250                    21612569.867
 112873069.559 8  87953123.70346  21479007.453                    21479012.801
 11  8 19  2  9 30.0000000  0  8G12G30G26G10G05G29G25G02
 111650393.515 8  87000375.696 7  21246362.094                    21246368.973
 113436852.891 8  88392427.63645  21586316.234                    21586324.199
 126515564.077 6  98583622.37443  24075114.922                    24075123.633
 121904952.381 7  94990967.85144  23197724.914                    23197732.508
 106707347.983 8  83148650.719 8  20305712.563                    20305719.195
 120353579.035 7  93782051.954 7  22902525.297                    22902533.332
 113562931.277 8  88490645.049 7  21610306.117                    21610315.430
 112909769.434 8  87981721.01746  21485991.211                    21485996.715
 11  8 19  2 10  0.0000000  0  8G12G30G26G10G05G29G25G02
 111703349.598 8  87041640.151 7  21256439.273                    21256445.992
 113444144.837 8  88398109.67145  21587703.977                    21587712.023
 126420304.104 6  98509393.95043  24056987.211                    24056995.898
 122005437.253 7  95069267.72644  23216847.008                    23216854.094
 106722451.772 8  83160419.919 8  20308586.602                    20308593.441
 120270916.081 7  93717639.269 7  22886794.563                    22886802.574
 113551666.041 8  88481866.949 7  21608162.672                    21608172.051
 112946561.932 8  88010390.50246  21492992.500                    21492997.973
 11  8 19  2 10 30.0000000  0  8G12G30G26G10G05G29G25G02
 111756783.447 8  87083276.902 7  21266607.250                    21266614.109
 113452032.618 8  88404256.01045  21589205.156                    21589212.809
 126325039.407 6  98435161.81543  24038858.492                    24038868.297
 122106138.920 7  95147736.53144  23236008.656                    23236017.555
 106738102.163 8  83172615.037 8  20311565.047                    20311571.523
 120188296.347 7  93653260.256 7  22871073.109                    22871081.141
 113540981.569 8  88473541.411 7  21606129.211                    21606139.027
 112983447.128 8  88039132.20546  21500011.953                    21500016.934
 11  8 19  2 11  0.0000000  0  8G12G30G26G10G05G29G25G02
 111810692.225 8  87125283.719 7  21276865.719                    21276872.863
 113460515.075 8  88410865.72146  21590819.320                    21590826.898
 126229773.415 6  98360928.63243  24020730.133                    24020739.594
 122207054.024 7  95226371.60044  23255213.133                    23255221.094
 106754297.504 8  83185234.805 8  20314646.672                    20314653.480
 120105721.236 8  93588916.016 7  22855359.117                    22855367.254
 113530877.423 8  88465668.060 7  21604206.281                    21604215.926
 113020424.398 8  88067945.65946  21507048.477                    21507053.609
 11  8 19  2 11 30.0000000  0  8G12G30G26G10G05G29G25G02
 111865074.131 8  87167659.209 7  21287214.438                    21287220.898
 113469591.420 7  88417938.21145  21592546.297                    21592553.848
 126134509.206 6  98286696.87343  24002600.805                    24002610.797
 122308179.929 7  95305171.01344  23274456.930                    23274465.066
 106771036.560 8  83198278.232 8  20317831.813                    20317838.535
 120023192.636 7  93524608.014 7  22839654.789                    22839662.582
 113521353.946 8  88458247.184 7  21602393.922                    21602403.289
 113057493.214 8  88096830.45746  21514102.656                    21514107.211
 11  8 19  2 12  0.0000000  0  8G12G30G26G10G05G29G25G02
 111919926.369 8  87210401.191 7  21297652.164                    21297658.781
 113479260.659 8  88425472.68945  21594386.758                    21594394.090
 126039249.961 6  98212468.91043  23984474.844                    23984483.711
 122409513.651 6  95384132.34443  23293739.773                    23293747.789
 106788317.869 8  83211744.193 8  20321120.891                    20321127.152
 119940711.851 7  93460337.293 7  22823958.914                    22823967.004
 113512410.975 8  88451278.642 7  21600692.172                    21600701.766
 113094653.651 8  88125786.65346  21521174.094                    21521178.359
 11  8 19  2 12 30.0000000  0  8G12G30G26G10G05G29G25G02
 111975246.863 8  87253508.043 7  21308179.664                    21308186.387
 113489521.721 8  88433468.33445  21596338.852                    21596346.543
 125943999.138 6  98138247.57943  23966348.844                    23966357.801
 122511052.438 7  95463253.47144  23313062.445                    23313070.070
 106806140.344 8  83225631.843 8  20324512.188                    20324518.859
 119858280.374 7  93396105.002 7  22808272.875                    22808280.836
 113504048.456 8  88444762.407 7  21599101.094                    21599110.172
 113131905.372 8  88154813.97746  21528263.039                    21528267.641
 11  8 19  2 13  0.0000000  0  8G12G30G26G10G05G29G25G02
 112031033.402 8  87296978.072 7  21318795.289                    21318802.473
 113500373.611 8  88441924.35845  21598404.055                    21598411.633
 125848759.968 6  98064035.27443  23948225.500                    23948233.887
 122612793.622 7  95542532.34444  23332423.023                    23332431.023
 106824502.664 8  83239940.153 8  20328006.258                    20328013.051
 119775900.227 7  93331912.705 7  22792596.680                    22792604.613
 113496266.439 8  88438698.513 7  21597619.977                    21597629.566
 113169247.891 8  88183912.04646  21535368.508                    21535373.984
 11  8 19  2 13 30.0000000  0  8G12G30G26G10G05G29G25G02
 112087283.714 8  87340809.474 7  21329499.523                    21329506.121
 113511815.339 8  88450840.00645  21600581.594                    21600589.449
 125753535.719 6  97989834.60443  23930105.445                    23930113.629
 122714734.179 7  95621966.55744  23351821.367                    23351829.996
 106843403.411 8  83254668.022 8  20331602.516                    20331609.516
 119693572.824 7  93267761.512 7  22776930.094                    22776938.133
 113489064.673 8  88433086.777 7  21596249.688                    21596258.977
 113206680.835 8  88213080.57846  21542492.422                    21542496.965
 11  8 19  2 14  0.0000000  0  8G12G30G26G10G05G29G25G02
 112143995.092 8  87385000.157 7  21340291.109                    21340298.160
 113523845.801 8  88460214.39645  21602870.617                    21602878.145
 125658329.554 6  97915648.05743  23911988.109                    23911995.746
 122816871.073 7  95701553.76044  23371257.195                    23371265.773
 106862841.177 8  83269814.333 8  20335301.977                    20335308.555
 119611300.293 8  93203653.082 7  22761273.820                    22761282.191
 113482443.114 8  88427927.136 7  21594989.477                    21594998.742
 113244203.604 8  88242319.11646  21549632.508                    21549637.176
 11  8 19  2 14 30.0000000  0  8G12G30G26G10G05G29G25G02
 112201165.649 7  87429548.635 7  21351170.219                    21351177.816
 113536464.021 8  88470046.80045  21605271.641                    21605279.891
 125563145.167 6  97841478.46043  23893874.992                    23893883.199
 122919201.761 7  95781291.95644  23390730.508                    23390738.008
 106882814.713 8  83285378.130 8  20339102.727                    20339109.426
 119529084.304 8  93139588.744 7  22745628.656                    22745636.832
 113476401.754 8  88423219.611 7  21593839.953                    21593849.469
 113281816.214 8  88271627.64846  21556789.852                    21556794.438
 11  8 19  2 15  0.0000000  0  8G12G30G26G10G05G29G25G02
 112258793.039 8  87474453.091 7  21362136.563                    21362143.488
 113549669.022 8  88480336.41845  21607784.656                    21607792.328
 125467985.676 7  97767328.23744  23875767.133                    23875775.320
 123021723.516 7  95861178.99444  23410240.078                    23410247.141
 106903322.478 8  83301358.218 8  20343004.758                    20343011.656
 119446926.127 8  93075569.463 7  22729994.586                    22730002.750
 113470940.386 8  88418964.022 7  21592800.828                    21592810.121
 113319518.610 8  88301006.13746  21563964.219                    21563969.211
 11  8 19  2 15 30.0000000  0  8G12G30G26G10G05G29G25G02
 112316874.934 7  87519711.705 7  21373188.883                    21373196.012
 113563459.605 8  88491082.35645  21610408.477                    21610416.359
 125372854.748 6  97693200.29443  23857663.656                    23857672.117
 123124433.586 7  95941212.78744  23429785.164                    23429792.539
 106924363.368 8  83317753.711 8  20347009.094                    20347015.809
 119364827.886 8  93011596.883 6  22714371.523                    22714379.832
 113466058.946 8  88415160.323 7  21591871.820                    21591881.766
 113357310.411 8  88330454.30846  21571156.156                    21571160.387
 11  8 19  2 16  0.0000000  0  8G12G30G26G10G05G29G25G02
 112375409.060 8  87565322.694 7  21384327.938                    21384334.914
 113577834.750 8  88502283.78445  21613144.273                    21613151.520
 125277755.735 6  97619097.23444  23839566.453                    23839574.484
 123227329.502 7  96021391.41243  23449365.055                    23449372.328
 106945935.940 8  83334563.519 8  20351114.016                    20351120.754
 119282791.170 8  92947672.271 6  22698760.500                    22698768.172
 113461757.359 8  88411808.453 7  21591053.195                    21591063.102
 113395191.757 8  88359972.25146  21578364.547                    21578369.652
 11  8 19  2 16 30.0000000  0  8G12G30G26G10G05G29G25G02
 112434392.955 8  87611284.162 7  21395552.188                    21395559.031
 113592793.046 8  88513939.61445  21615990.773                    21615998.387
 125182691.756 6  97545021.43643  23821476.906                    23821484.902
 123330408.208 6  96101712.46543  23468979.398                    23468987.438
 106968038.392 8  83351786.224 8  20355320.016                    20355326.629
 119200817.602 8  92883796.853 6  22683161.414                    22683169.465
 113458035.108 8  88408908.008 7  21590344.945                    21590354.652
 113433161.780 8  88389559.31146  21585590.094                    21585594.289
 11  8 19  2 17  0.0000000  0  8G12G30G26G10G05G29G25G02
 112493824.081 7  87657594.112 7  21406861.508                    21406868.711
 113608333.396 8  88526048.98645  21618948.094                    21618955.250
 125087666.308 6  97470975.69443  23803394.094                    23803403.105
 123433666.835 6  96182173.70543  23488630.172                    23488637.699
 106990669.546 8  83369420.902 8  20359626.398                    20359633.398
 119118909.234 8  92819972.262 6  22667574.531                    22667582.633
 113454892.082 8  88406458.927 7  21589746.828                    21589756.754
 113471220.496 8  88419215.47946  21592832.461                    21592836.711
 11  8 19  2 17 30.0000000  0  8G12G30G26G10G05G29G25G02
 112553700.237 7  87704250.849 7  21418255.789                    21418262.848
 113624454.641 8  88538610.99645  21622015.930                    21622022.816
 124992682.890 6  97396962.71444  23785319.336                    23785327.598
 123537102.775 7  96262773.16643  23508312.789                    23508321.395
 107013827.949 8  83387466.428 8  20364033.555                    20364039.934
 119037067.710 8  92756199.743 6  22652000.516                    22652008.566
 113452328.028 8  88404460.980 7  21589258.922                    21589269.004
 113509367.168 8  88448940.18646  21600091.188                    21600095.922
 11  8 19  2 18  0.0000000  0  8G12G30G26G10G05G29G25G02
 112614018.841 7  87751252.350 7  21429734.109                    21429741.305
 113641155.514 8  88551624.67145  21625193.828                    21625200.699
 124897744.655 6  97322984.93344  23767253.297                    23767262.109
 123640713.251 7  96343508.60744  23528029.500                    23528038.203
 107037512.013 8  83405921.560 8  20368540.375                    20368547.355
 118955294.994 8  92692480.845 6  22636439.766                    22636447.711
 113450342.631 8  88402913.931 7  21588881.070                    21588891.160
 113547602.182 8  88478733.73146  21607366.891                    21607371.625
 11  8 19  2 18 30.0000000  0  8G12G30G26G10G05G29G25G02
 112674777.785 8  87798596.976 7  21441296.094                    21441302.980
 113658434.874 8  88565089.09645  21628482.273                    21628489.258
 124802855.488 7  97249045.39344  23749196.438                    23749205.270
 123744495.458 7  96424377.87444  23547778.406                    23547787.551
 107061720.669 8  83424785.465 8  20373147.172                    20373153.848
 118873592.982 8  92628817.043 6  22620892.164                    22620900.195
 113448935.760 8  88401817.674 7  21588612.977                    21588623.266
 113585925.407 8  88508596.01846  21614659.508                    21614664.555
 11  8 19  2 19  0.0000000  0  8G12G30G26G10G05G29G25G02
 112735974.817 8  87846282.972 7  21452941.375                    21452948.449
 113676291.276 8  88579003.16945  21631880.000                    21631887.016
 124708018.423 7  97175146.45144  23731149.086                    23731157.719
 123848446.749 7  96505378.90143  23567559.813                    23567567.961
 107086451.934 8  83444056.595 8  20377853.406                    20377860.297
 118791963.094 8  92565209.444 6  22605358.719                    22605366.246
 113448106.789 8  88401171.731 7  21588455.461                    21588465.258
 113624336.365 8  88538526.65046  21621968.898                    21621974.242
 11  8 19  2 19 30.0000000  0  9G12G30G26G15G10G05G29G25G02
 112797606.595 8  87894307.741 7  21464669.531                    21464676.508
 113694723.143 8  88593365.65545  21635387.570                    21635394.750
 124613236.886 7  97101290.73343  23713112.680                    23713121.543
 129389328.56115 100822972.38415  24621989.570                    24621998.547
 123952563.959 7  96586509.22144  23587373.156                    23587380.418
 107111703.900 8  83463733.470 8  20382658.320                    20382665.324
 118710407.264 8  92501659.563 6  22589839.227                    22589847.086
 113447855.243 8  88400975.730 7  21588407.328                    21588417.625
 113662834.603 8  88568525.29846  21629294.555                    21629300.305
 11  8 19  2 20  0.0000000  0  9G12G30G26G15G10G05G29G25G02
 112859670.952 7  87942669.576 7  21476480.094                    21476486.730
 113713729.466 8  88608175.77145  21639004.641                    21639011.398
 124518514.471 6  97027481.14643  23695087.102                    23695096.766
 129296162.109 6 100750375.405 6  24604259.805                    24604270.477
 124056844.860 7  96667767.05844  23607217.000                    23607224.625
 107137475.523 8  83483815.265 8  20387562.805                    20387569.734
 118628927.279 8  92438168.758 6  22574333.922                    22574341.535
 113448180.914 8  88401229.509 7  21588469.461                    21588479.426
 113701420.015 8  88598591.87146  21636637.336                    21636642.543
 11  8 19  2 20 30.0000000  0  9G12G30G26G15G10G05G29G25G02
 112922165.474 8  87991366.612 7  21488372.438                    21488379.320
 113733308.839 8  88623432.40545  21642730.023                    21642737.492
 124423854.753 7  96953720.39744  23677074.070                    23677083.313
 129202866.558 6 100677677.707 6  24586506.797                    24586516.688
 124161286.527 7  96749150.09744  23627091.539                    23627099.156
 107163765.248 8  83504300.783 8  20392565.758                    20392572.227
 118547524.869 8  92374738.389 6  22558843.539                    22558851.039
 113449083.452 8  88401932.781 7  21588641.375                    21588651.320
 113740092.756 8  88628726.48746  21643996.547                    21644001.984
 11  8 19  2 21  0.0000000  0  9G12G30G26G15G10G05G29G25G02
 112985087.696 8  88040396.912 7  21500345.742                    21500352.570
 113753459.620 8  88639134.29645  21646564.828                    21646571.848
 124329260.692 7  96880010.78644  23659074.398                    23659082.000
 129109444.038 6 100604881.102 6  24568728.797                    24568738.754
 124265886.242 7  96830656.29843  23646996.039                    23647003.258
 107190570.932 8  83525188.343 8  20397666.570                    20397673.102
 118466201.839 8  92311369.861 7  22543368.164                    22543375.934
 113450562.085 8  88403084.951 7  21588922.469                    21588932.508
 113778852.187 8  88658928.65245  21651372.453                    21651377.285
 11  8 19  2 21 30.0000000  0  9G12G30G26G15G10G05G29G25G02
 113048434.787 8  88089758.270 7  21512400.164                    21512407.543
 113774180.323 8  88655280.28845  21650507.625                    21650514.879
 124234735.967 7  96806355.19643  23641087.094                    23641094.691
 129015896.908 6 100531987.398 6  24550927.531                    24550937.012
 124370641.294 7  96912283.60244  23666930.367                    23666938.156
 107217891.169 8  83546476.846 8  20402865.516                    20402872.027
 118384959.990 8  92248064.585 6  22527908.398                    22527916.199
 113452616.340 8  88404685.671 7  21589313.516                    21589323.625
 113817698.312 8  88689198.34645  21658764.539                    21658769.398
 11  8 19  2 22  0.0000000  0  9G12G30G26G15G10G05G29G25G02
 113112204.762 8  88139449.155 7  21524535.336                    21524542.168
 113795469.745 8  88671869.44045  21654558.203                    21654566.070
 124140284.205 6  96732756.48544  23623113.102                    23623121.426
 128922227.889 6 100458998.672 6  24533103.078                    24533112.270
 124475549.060 7  96994029.88543  23686893.016                    23686901.902
 107245724.451 8  83568165.137 8  20408161.820                    20408168.328
 118303801.523 8  92184824.281 6  22512463.930                    22512472.094
 113455245.959 8  88406734.724 7  21589813.789                    21589823.684
 113856631.016 8  88719535.50845  21666173.086                    21666177.574
 11  8 19  2 22 30.0000000  0  9G12G30G26G15G10G05G29G25G02
 113176395.024 8  88189467.545 7  21536750.281                    21536757.066
 113817326.616 8  88688900.75945  21658718.125                    21658725.492
 124045908.926 7  96659217.33744  23605153.586                    23605162.355
 128828439.571 7 100385917.050 6  24515255.688                    24515264.840
 124580606.688 7  97075892.99243  23706885.320                    23706893.707
 107274069.407 8  83590252.128 8  20413555.789                    20413562.430
 118222728.417 7  92121650.479 6  22497036.328                    22497044.082
 113458450.493 8  88409231.762 7  21590423.742                    21590433.402
 113895650.200 8  88749940.06145  21673598.141                    21673602.672
 11  8 19  2 23  0.0000000  0  9G12G30G26G15G10G05G29G25G02
 113241002.938 8  88239811.366 7  21549044.828                    21549051.488
 113839749.302 7  88706372.97945  21662984.945                    21662992.715
 123951613.675 7  96585740.56044  23587209.719                    23587218.320
 128734534.490 6 100312744.374 6  24497385.914                    24497395.289
 124685811.795 7  97157871.01443  23726905.531                    23726913.598
 107302924.276 8  83612736.451 8  20419046.680                    20419053.129
 118141742.348 8  92058544.496 6  22481624.984                    22481633.035
 113462229.321 8  88412176.295 7  21591143.070                    21591152.766
 113934755.598 8  88780411.80245  21681039.875                    21681044.336
 11  8 19  2 23 30.0000000  0  9G12G30G26G15G10G05G29G25G02
 113306025.429 8  88290478.238 7  21561418.203                    21561425.313
 113862735.918 8  88724284.61545  21667359.141                    21667366.805
 123857401.692 7  96512328.64544  23569282.352                    23569290.191
 128640514.969 6 100239482.543 6  24479493.906                    24479503.742
 124791161.216 7  97239961.50743  23746952.227                    23746960.715
 107332286.749 8  83635616.309 8  20424634.148                    20424640.531
 118060844.866 7  91995507.545 6  22466230.922                    22466238.496
 113466581.527 8  88415567.619 7  21591971.266                    21591981.145
 113973947.030 8  88810950.60545  21688497.508                    21688502.434
 11  8 19  2 24  0.0000000  0  9G12G30G26G15G10G05G29G25G02
 113371460.347 8  88341466.468 7  21573870.133                    21573877.840
 113886285.189 8  88742634.68745  21671840.195                    21671848.406
 123763276.463 7  96438984.35844  23551370.531                    23551378.465
 128546383.775 7 100166133.709 6  24461581.500                    24461591.094
 124896652.419 7  97322162.49944  23767027.000                    23767035.176
 107362155.267 8  83658890.490 8  20430318.148                    20430324.746
 117980038.002 7  91932541.199 6  22450853.953                    22450861.758
 113471506.713 8  88419405.419 7  21592908.328                    21592918.012
 114013224.357 7  88841556.32445  21695971.563                    21695976.480
 11  8 19  2 24 30.0000000  0  9G12G30G26G15G10G05G29G25G02
 113437305.489 8  88392774.364 7  21586400.211                    21586407.348
 113910395.723 8  88761422.11545  21676428.609                    21676436.160
 123669241.936 7  96365710.74443  23533476.328                    23533484.309
 128452143.464 6 100092699.815 6  24443648.258                    24443658.188
 125002282.957 7  97404472.03643  23787127.648                    23787136.387
 107392528.802 8  83682558.187 8  20436098.016                    20436104.625
 117899324.141 7  91869647.320 6  22435494.758                    22435502.184
 113477004.465 8  88423689.372 7  21593954.984                    21593964.027
 114052587.730 8  88872229.09545  21703462.305                    21703467.117
 11  8 19  2 25  0.0000000  0  9G12G30G26G15G10G05G29G25G02
 113503557.913 8  88444399.636 7  21599007.891                    21599014.320
 113935065.975 8  88780645.67345  21681122.945                    21681130.973
 123575301.259 7  96292510.26544  23515600.188                    23515607.988
 128357796.540 6 100019182.883 6  24425693.766                    24425703.637
 125108050.471 7  97486888.31143  23807254.828                    23807262.547
 107423405.523 8  83706617.969 8  20441973.242                    20441980.477
 117818704.929 7  91806827.192 6  22420153.297                    22420160.715
 113483074.119 8  88428418.973 7  21595109.398                    21595119.563
 114092036.973 8  88902968.76245  21710969.148                    21710974.586
 11  8 19  2 25 30.0000000  0  9G12G30G26G15G10G05G29G25G02
 113570214.424 8  88496339.780 7  21611691.805                    21611698.543
 113960293.777 8  88800303.68545  21685924.016                    21685931.355
 123481457.838 7  96219385.54244  23497742.727                    23497749.539
 128263345.259 6  99945584.624 6  24407720.414                    24407730.406
 125213951.613 6  97569408.68843  23827406.531                    23827414.078
 107454782.822 8  83731067.818 8  20447944.477                    20447951.133
 117738182.018 7  91744082.098 6  22404829.813                    22404837.871
 113489714.439 8  88433593.240 7  21596373.086                    21596382.609
 114131571.479 7  88933774.88245  21718492.391                    21718497.398
 11  8 19  2 26  0.0000000  0  9G12G30G26G15G10G05G29G25G02
 113637272.503 8  88548592.822 7  21624452.641                    21624459.609
 113986077.494 8  88820394.87845  21690830.359                    21690838.023
 123387715.103 7  96146339.27243  23479903.281                    23479911.203
 128168792.394 6  99871907.239 6  24389728.680                    24389736.898
 125319983.934 6  97652031.15543  23847583.805                    23847591.180
 107486659.219 8  83755906.577 8  20454010.352                    20454017.031
 117657757.619 7  91681413.763 6  22389525.555                    22389533.543
 113496924.848 8  88439211.739 7  21597745.484                    21597755.039
 114171191.234 7  88964647.43746  21726031.977                    21726036.922
 11  8 19  2 26 30.0000000  0  9G12G30G26G15G10G05G29G25G02
 113704729.903 7  88601157.025 7  21637289.141                    21637296.695
 114012415.867 8  88840918.28245  21695842.578                    21695850.336
 123294076.985 7  96073374.53943  23462084.352                    23462093.238
 128074140.681 6  99798152.799 6  24371716.445                    24371724.742
 125426144.906 6  97734753.94243  23867786.070                    23867793.297
 107519033.262 8  83781133.106 8  20460170.484                    20460177.449
 117577433.461 7  91618823.544 6  22374240.781                    22374248.434
 113504704.858 8  88445274.079 7  21599225.930                    21599235.387
 114210896.331 7  88995586.49046  21733587.602                    21733592.781
 11  8 19  2 27  0.0000000  0  9G12G30G26G15G10G05G29G25G02
 113772584.054 8  88654030.382 7  21650201.609                    21650208.559
 114039307.243 8  88861872.60145  21700959.906                    21700967.113
 123200547.133 7  96000494.15743  23444286.727                    23444294.391
 127979392.753 6  99724323.395 6  24353686.469                    24353694.523
 125532431.937 7  97817574.99043  23888012.148                    23888018.703
 107551903.275 8  83806746.109 8  20466425.609                    20466432.227
 117497211.786 7  91556313.177 6  22358974.797                    22358982.777
 113513053.811 8  88451779.764 7  21600814.734                    21600823.969
 114250686.883 7  89026592.13046  21741159.273                    21741164.543
 11  8 19  2 27 30.0000000  0  9G12G30G26G15G10G05G29G25G02
 113840832.002 8  88707210.600 7  21663188.469                    21663195.586
 114066749.552 8  88883256.21345  21706181.969                    21706189.309
 123107128.716 6  95927700.64343  23426508.938                    23426517.840
 127884550.724 6  99650420.667 5  24335638.063                    24335646.816
 125638841.975 7  97900491.92044  23908260.734                    23908268.332
 107585266.705 8  83832743.607 8  20472774.422                    20472781.152
 117417094.398 7  91493884.083 6  22343729.102                    22343737.105
 113521970.540 8  88458727.858 7  21602511.477                    21602521.383
 114290562.164 8  89057663.78846  21748747.500                    21748752.477
 11  8 19  2 28  0.0000000  0  9G12G30G26G15G10G05G29G25G02
 113909471.590 8  88760695.984 7  21676250.391                    21676257.449
 114094741.226 8  88905067.89245  21711508.188                    21711515.734
 123013825.302 6  95854996.72743  23408754.602                    23408762.836
 127789617.650 6  99576447.017 6  24317572.938                    24317582.168
 125745373.064 7  97983503.17144  23928533.000                    23928541.621
 107619122.378 8  83859124.655 8  20479217.102                    20479223.625
 117337083.317 7  91431537.828 6  22328503.023                    22328511.656
 113531454.426 8  88466117.902 7  21604316.164                    21604325.738
 114330522.690 8  89088801.87846  21756351.391                    21756356.695
 11  8 19  2 28 30.0000000  0  9G12G30G26G15G10G05G29G25G02
 113978499.690 8  88814484.104 7  21689386.383                    21689393.641
 114123280.647 8  88927306.39845  21716939.469                    21716946.438
 122920640.783 6  95782385.47943  23391022.219                    23391030.633
 127694596.050 6  99502404.359 6  24299490.375                    24299499.973
 125852022.370 7  98066606.52544  23948827.938                    23948836.215
 107653468.309 8  83885887.739 8  20485752.797                    20485759.492
 117257180.481 7  91369275.944 6  22313298.492                    22313306.008
 113541504.732 8  88473949.302 7  21606228.461                    21606238.289
 114370568.310 7  89120006.26445  21763971.914                    21763977.293
 11  8 19  2 29  0.0000000  0  9G12G30G26G15G10G05G29G25G02
 114047913.164 7  88868572.516 7  21702594.805                    21702602.184
 114152365.722 8  88949970.08445  21722474.117                    21722481.762
 122827578.344 6  95709869.35043  23373312.656                    23373321.266
 127599488.488 6  99428294.688 6  24281391.641                    24281401.250
 125958787.006 7  98149799.75344  23969144.352                    23969152.805
 107688302.272 8  83913031.113 8  20492381.391                    20492388.000
 117177387.684 8  91307099.800 6  22298114.773                    22298121.973
 113552120.323 8  88482221.185 7  21608248.906                    21608258.438
 114410698.849 8  89151276.82046  21771608.094                    21771614.012
 11  8 19  2 29 30.0000000  0  9G12G30G26G15G10G05G29G25G02
 114117709.887 8  88922959.561 7  21715876.828                    21715884.176
 114181994.738 8  88973057.63345  21728112.148                    21728119.344
 122734641.566 6  95637451.12844  23355627.484                    23355635.348
 127504297.797 6  99354120.253 6  24263277.602                    24263287.391
 126065664.556 7  98233081.00344  23989482.617                    23989490.410
 107723622.597 8  83940553.466 8  20499102.695                    20499109.238
 117097707.022 7  91245011.058 6  22282951.781                    22282959.098
 113563300.361 8  88490932.907 7  21610376.195                    21610385.691
 114450914.417 8  89182613.64345  21779261.484                    21779266.613
 11  8 19  2 30  0.0000000  0  9G12G30G26G15G10G05G29G25G02
 114187886.489 7  88977642.620 7  21729231.031                    21729238.176
 114212165.665 8  88996567.45445  21733853.109                    21733861.324
 122641834.138 7  95565133.68244  23337966.594                    23337974.371
 127409026.358 6  99279882.867 6  24245147.578                    24245158.012
 126172652.108 7  98316447.96743  24009841.445                    24009848.871
 107759427.053 8  83968453.068 8  20505916.125                    20505922.703
 117018140.387 7  91183011.173 6  22267810.898                    22267818.039
 113575043.698 8  88500083.571 7  21612611.078                    21612620.566
 114491214.328 8  89214016.18446  21786930.219                    21786935.266
 11  8 19  2 30 30.0000000  0  9G12G30G26G15G10G05G29G25G02
 114258440.816 7  89032620.010 7  21742657.031                    21742663.594
 114242877.011 8  89020498.36845  21739697.781                    21739705.371
 122549159.656 7  95492919.85844  23320331.508                    23320339.449
 127313676.963 7  99205584.709 6  24227003.508                    24227012.977
 126279747.732 7  98399899.11643  24030221.242                    24030227.980
 107795714.358 8  83996728.918 8  20512821.383                    20512827.754
 116938689.985 7  91121101.870 6  22252691.625                    22252698.855
 113587349.807 8  88509672.757 7  21614952.781                    21614962.352
 114531598.887 7  89245484.68645  21794614.977                    21794620.355
 11  8 19  2 31  0.0000000  0  9G12G30G26G15G10G05G29G25G02
 114329370.080 7  89087889.568 7  21756154.531                    21756161.609
 114274126.755 8  89044848.82945  21745644.336                    21745651.934
 122456621.769 7  95420812.46444  23302721.977                    23302729.609
 127218252.197 7  99131227.834 6  24208845.234                    24208853.789
 126386948.431 6  98483432.16342  24050620.719                    24050627.492
 107832482.279 8  84025379.267 8  20519818.023                    20519824.523
 116859357.703 7  91059284.623 6  22237594.992                    22237602.566
 113600217.501 8  88519699.545 7  21617401.227                    21617410.742
 114572068.042 7  89277019.09845  21802316.250                    21802321.547
 11  8 19  2 31 30.0000000  0  9G12G30G26G15G10G05G29G25G02
 114400671.767 7  89143449.310 7  21769722.414                    21769729.262
 114305913.185 7  89069617.48845  21751692.922                    21751700.848
 122364224.254 7  95348814.45244  23285139.375                    23285147.340
 127122755.064 7  99056814.597 6  24190672.359                    24190681.598
 126494251.802 6  98567045.19042  24071039.797                    24071046.641
 107869729.326 8  84054402.964 8  20526905.891                    20526912.559
 116780145.896 7  90997561.255 6  22222520.938                    22222528.813
 113613646.073 8  88530163.372 7  21619956.789                    21619966.313
 114612622.250 7  89308619.79646  21810033.203                    21810038.496
 11  8 19  2 32  0.0000000  0  9G12G30G26G15G10G05G29G25G02
 114472342.548 7  89199296.662 7  21783361.219                    21783367.895
 114338233.973 8  89094802.52045  21757843.586                    21757851.027
 122271970.354 7  95276928.32444  23267583.563                    23267592.160
 127027187.641 7  98982346.522 6  24172486.633                    24172495.309
 126601655.235 6  98650736.25242  24091477.633                    24091484.055
 107907452.695 8  84083797.813 8  20534084.109                    20534091.160
 116701056.047 7  90935932.913 6  22207470.711                    22207478.117
 113627634.044 8  88541063.108 7  21622618.359                    21622628.152
 114653260.943 7  89340286.32445  21817766.594                    21817771.797
 11  8 19  2 32 30.0000000  0  9G12G30G26G15G10G05G29G25G02
 114544379.223 7  89255429.116 7  21797069.570                    21797076.066
 114371086.885 8  89120402.20045  21764095.258                    21764102.867
 122179863.266 7  95205156.60344  23250056.328                    23250064.680
 126931552.664 7  98907825.867 6  24154288.438                    24154296.434
 126709156.077 6  98734503.16143  24111934.688                    24111941.543
 107945650.328 8  84113562.220 8  20541353.117                    20541360.070
 116622090.285 7  90874401.251 6  22192444.078                    22192451.270
 113642180.140 8  88552397.741 7  21625386.328                    21625396.262
 114693983.579 8  89372018.26345  21825515.516                    21825520.672
 11  8 19  2 33  0.0000000  0  9G12G30G26G15G10G05G29G25G02
 114616779.803 7  89311845.145 7  21810846.555                    21810853.359
 114404470.503 8  89146415.42145  21770448.125                    21770455.844
 122087907.339 7  95133502.66944  23232558.086                    23232565.902
 126835853.003 7  98833254.786 6  24136077.281                    24136084.395
 126816752.155 6  98818344.18343  24132409.648                    24132417.184
 107984320.979 8  84143695.205 8  20548712.266                    20548718.734
 116543250.870 7  90812968.013 6  22177441.734                    22177448.734
 113657283.754 8  88564166.801 7  21628260.656                    21628270.641
 114734790.715 8  89403816.03946  21833281.109                    21833286.180
 11  8 19  2 33 30.0000000  0  9G12G30G26G15G10G05G29G25G02
 114689541.335 7  89368542.432 7  21824692.469                    21824699.582
 114438382.998 8  89172840.74645  21776901.102                    21776908.953
 121996106.239 7  95061969.37944  23215088.734                    23215096.570
 126740091.626 7  98758635.631 6  24117854.109                    24117861.902
 126924440.648 6  98902257.29343  24152901.766                    24152909.984
 108023462.768 8  84174195.313 8  20556160.359                    20556167.090
 116464540.059 7  90751635.009 6  22162463.414                    22162470.484
 113672943.986 8  88576369.600 7  21631240.578                    21631250.355
 114775682.565 7  89435679.82345  21841062.602                    21841067.563
 11  8 19  2 34  0.0000000  0  9G12G30G26G15G10G05G29G25G02
 114762661.260 7  89425518.984 7  21838607.164                    21838614.000
 114472822.121 8  89199676.42645  21783454.789                    21783462.602
 121904463.310 7  94990559.36044  23197649.828                    23197657.746
 126644271.167 7  98683970.438 6  24099619.750                    24099628.453
 127032219.133 6  98986240.50443  24173411.344                    24173419.254
 108063073.244 8  84205060.634 8  20563697.945                    20563704.547
 116385959.580 7  90690403.549 6  22147510.000                    22147517.359
 113689159.451 8  88589005.041 7  21634326.305                    21634336.059
 114816659.114 8  89467609.60845  21848860.383                    21848865.234
 11  8 19  2 34 30.0000000  0  9G12G30G26G15G10G05G29G25G02
 114836136.556 7  89482772.446 7  21852589.180                    21852595.945
 114507785.941 8  89226920.97045  21790108.477                    21790116.266
 121812982.132 7  94919275.35944  23180241.148                    23180249.406
 126548394.301 7  98609261.267 6  24081374.758                    24081383.504
 127140085.119 7  99070291.92644  24193937.648                    24193945.422
 108103150.660 7  84236289.801 8  20571324.734                    20571331.273
 116307511.747 7  90629275.453 6  22132581.633                    22132588.676
 113705929.081 8  88602072.306 7  21637517.398                    21637527.469
 114857720.438 7  89499605.46445  21856673.961                    21856679.004
 11  8 19  2 35  0.0000000  0  9G12G30G26G15G10G05G29G25G02
 114909963.921 8  89540300.263 7  21866637.711                    21866644.902
 114543272.037 8  89254572.47045  21796861.063                    21796868.820
 121721666.129 7  94848120.09844  23162864.781                    23162872.453
 126452463.629 7  98534510.194 6  24063120.406                    24063128.867
 127248036.041 7  99154409.52343  24214480.547                    24214487.500
 108143692.370 8  84267880.753 8  20579039.383                    20579045.723
 116229198.088 7  90568251.890 6  22117679.000                    22117686.031
 113723251.414 8  88615570.253 7  21640813.875                    21640823.309
 114898865.964 7  89531666.94845  21864504.398                    21864508.906
 11  8 19  2 35 30.0000000  0  9G12G30G26G15G10G05G29G25G02
 114984140.691 7  89598100.332 7  21880753.508                    21880760.594
 114579278.381 8  89282629.36745  21803712.883                    21803720.262
 121630519.067 7  94777096.45644  23145519.703                    23145527.613
 126356481.796 7  98459719.272 6  24044854.969                    24044864.242
 127356069.450 7  99238591.40643  24235038.172                    24235046.551
 108184696.506 8  84299832.039 8  20586841.898                    20586848.707
 116151021.038 7  90507334.765 6  22102802.391                    22102809.895
 113741125.228 8  88629497.906 7  21644214.930                    21644224.637
 114940096.009 7  89563794.28945  21872349.602                    21872354.367
 11  8 19  2 36  0.0000000  0  9G12G30G26G15G10G05G29G25G02
 115058664.306 7  89656170.677 7  21894934.758                    21894941.168
 114615803.053 8  89311090.15145  21810663.125                    21810670.992
 121539544.534 7  94706207.26444  23128207.281                    23128214.918
 126260451.747 6  98384890.766 6  24026581.453                    24026590.449
 127464182.646 6  99322835.43844  24255611.719                    24255619.098
 108226161.068 8  84332142.098 8  20594732.398                    20594739.109
 116072982.549 7  90446525.607 6  22087951.945                    22087959.563
 113759549.437 8  88643854.457 7  21647721.031                    21647731.008
 114981410.497 7  89595987.42445  21880211.289                    21880216.348
 11  8 19  2 36 30.0000000  0  9G12G30G26G15G10G05G29G25G02
 115133532.226 7  89714509.304 7  21909181.594                    21909188.281
 114652844.190 8  89339953.36745  21817711.883                    21817719.426
 121448746.610 7  94635455.64844  23110929.180                    23110937.426
 126164376.410 7  98310026.989 6  24008298.828                    24008307.305
 127572373.662 6  99407140.10843  24276199.961                    24276207.543
 108268084.591 8  84364809.787 8  20602709.938                    20602717.043
 115995085.026 7  90385826.286 6  22073128.383                    22073136.063
 113778523.146 8  88658639.175 7  21651331.391                    21651341.090
 115022809.710 7  89628246.56545  21888088.805                    21888094.648
 11  8 19  2 37  0.0000000  0  9G12G30G26G15G10G05G29G25G02
 115208740.896 8  89773113.455 7  21923493.172                    21923499.914
 114690399.341 8  89369217.12245  21824858.438                    21824865.535
 121358128.483 7  94564844.16044  23093685.211                    23093693.234
 126068258.495 6  98235130.036 6  23990008.070                    23990015.836
 127680639.804 6  99491503.34043  24296802.352                    24296810.000
 108310464.910 8  84397833.434 8  20610775.094                    20610781.496
 115917330.703 7  90325238.538 6  22058332.695                    22058339.941
 113798044.741 8  88673850.830 7  21655046.516                    21655055.844
 115064293.510 7  89660571.60645  21895983.258                    21895988.672
 11  8 19  2 37 30.0000000  0  9G12G30G26G15G10G05G29G25G02
 115284287.485 7  89831980.910 7  21937869.398                    21937876.012
 114728466.238 8  89398879.64145  21832102.117                    21832110.234
 121267693.927 7  94494375.70144  23076476.203                    23076483.867
 125972100.506 7  98160201.827 6  23971708.789                    23971717.566
 127788978.285 6  99575922.91543  24317418.070                    24317426.520
 108353298.956 7  84431210.635 8  20618926.000                    20618932.777
 115839721.017 7  90264763.489 6  22043563.477                    22043570.621
 113818112.826 8  88689488.312 7  21658865.055                    21658874.625
 115105861.909 7  89692962.55945  21903893.664                    21903898.629
 11  8 19  2 38  0.0000000  0  9G12G30G26G15G10G05G29G25G02
 115360169.356 8  89891109.626 7  21952309.016                    21952315.914
 114767042.807 7  89428939.30445  21839443.211                    21839450.785
 121177446.447 7  94424053.04344  23059302.703                    23059310.648
 125875905.401 6  98085244.738 6  23953403.813                    23953411.438
 127897386.843 6  99660397.10343  24338047.039                    24338055.957
 108396585.125 8  84464940.139 8  20627162.773                    20627169.633
 115762258.409 7  90204403.024 6  22028823.500                    22028830.449
 113838726.141 8  88705550.651 7  21662787.602                    21662797.309
 115147514.763 8  89725419.32345  21911819.695                    21911825.012
 11  8 19  2 38 30.0000000  0  9G12G30G26G15G10G05G29G25G02
 115436383.430 8  89950497.209 7  21966812.414                    21966819.559
 114806126.831 7  89459394.38545  21846880.344                    21846887.840
 121087389.931 7  94353879.18244  23042165.055                    23042173.699
 125779675.918 6  98010260.839 6  23935091.758                    23935099.852
 128005863.226 6  99744924.08742  24358690.281                    24358698.113
 108440321.366 8  84499020.352 8  20635485.898                    20635492.434
 115684945.023 7  90144158.855 6  22014110.266                    22014117.855
 113859883.369 8  88722036.810 7  21666814.117                    21666823.664
 115189252.495 7  89757942.22145  21919762.102                    21919767.055
 11  8 19  2 39  0.0000000  0  9G12G30G26G15G10G05G29G25G02
 115512927.293 8  90010141.769 7  21981378.055                    21981385.277
 114845716.316 8  89490243.33745  21854413.891                    21854421.730
 120997527.929 7  94283856.88044  23025064.844                    23025072.906
 125683414.852 6  97935252.304 6  23916773.547                    23916781.887
 128114404.949 6  99829502.02442  24379344.391                    24379352.254
 108484505.739 8  84533449.745 8  20643893.523                    20643900.480
 115607783.166 7  90084032.744 6  21999426.984                    21999434.832
 113881583.285 8  88738945.843 7  21670943.250                    21670952.730
 115231075.271 8  89790531.39645  21927720.969                    21927725.621
 11  8 19  2 39 30.0000000  0  9G12G30G26G15G10G05G29G25G02
 115589797.488 8  90070040.617 7  21996006.016                    21996012.906
 114885808.699 8  89521484.15845  21862043.227                    21862051.328
 120907863.954 7  94213988.90444  23008001.883                    23008010.348
 125587124.863 6  97860221.232 6  23898450.797                    23898458.738
 128223009.321 6  99914128.78142  24400011.367                    24400018.523
 108529135.684 7  84568226.343 8  20652386.648                    20652393.211
 115530774.921 7  90024026.344 6  21984773.313                    21984780.262
 113903824.290 8  88756276.509 7  21675175.344                    21675184.867
 115272982.775 7  89823186.58045  21935695.516                    21935700.137
 11  8 19  2 40  0.0000000  0  9G12G30G26G15G10G05G29G25G02
 115666991.196 8  90130191.555 7  22010695.602                    22010702.570
 114926401.866 8  89553115.19445  21869768.398                    21869776.184
 120818401.792 7  94144278.16744  22990978.859                    22990986.441
 125490808.778 7  97785169.811 6  23880123.047                    23880130.605
 128331674.386 6                  24420689.633
 108574209.365 8  84603348.703 8  20660963.742                    20660970.184
 115453922.233 7  89964141.155 6  21970148.852                    21970156.188
 113926604.966 8  88774027.693 7  21679510.445                    21679520.055
 115314975.172 8  89855907.91945  21943686.289                    21943691.086
 11  8 19  2 40 30.0000000  0  9G12G30G26G15G10G05G29G25G02
 115744505.750 8  90190592.505 7  22025445.742                    22025453.234
 114967493.163 8  89585134.38545  21877587.609                    21877595.801
 120729144.968 7  94074727.42544  22973993.352                    22974001.305
 125394469.042 7  97710099.999 6  23861789.578                    23861797.387
 128440397.355 6                  24441378.203
 108619723.995 8  84638814.659 8  20669624.664                    20669631.371
 115377227.037 7  89904378.686 6  21955553.977                    21955561.156
 113949923.618 8  88792198.081 7  21683948.039                    21683957.453
 115357052.195 8  89888695.21645  21951693.234                    21951697.727
 11  8 19  2 41  0.0000000  0  9G12G30G26G15G10G05G29G25G02
 115822337.908 8  90251240.935 7  22040257.078                    22040264.371
 115009080.817 8  89617540.34545  21885501.594                    21885509.254
 120640097.322 7  94005339.66244  22957048.477                    22957055.938
 125298109.194 7  97635014.499 6  23843452.883                    23843460.863
 128549175.877 6 100168140.68853  24462078.852                    24462085.145
 108665677.990 8  84674622.975 8  20678369.570                    20678376.117
 115300692.032 7  89844741.067 6  21940990.031                    21940997.117
 113973779.187 8  88810786.842 7  21688487.695                    21688497.191
 115399214.313 8  89921548.82045  21959716.258                    21959721.199
 11  8 19  2 41 30.0000000  0 10G12G30G26G15G10G05G29G25G21G02
 115900484.603 8  90312134.451 7  22055127.586                    22055134.836
 115051162.333 8  89650331.14045  21893509.242                    21893516.844
 120551262.624 7  93936117.86644  22940143.781                    22940151.563
 125201731.827 7  97559915.332 6  23825112.461                    23825120.750
 128658007.554 6 100252944.54943  24482789.094                    24482796.223
 108712069.026 8  84710771.828 8  20687197.891                    20687204.168
 115224319.227 7  89785229.826 6  21926456.766                    21926464.262
 113998170.071 8  88829792.731 7  21693129.195                    21693138.430
 132328550.80316 103113218.76952  25181295.570                    25181302.199
 115441461.735 8  89954468.90245  21967756.031                    21967761.004
 11  8 19  2 42  0.0000000  0 10G12G30G26G15G10G05G29G25G21G02
 115978943.184 8  90373270.991 7  22070058.070                    22070064.793
 115093735.191 8  89683504.79945  21901610.703                    21901618.762
 120462644.194 7  93867064.57144  22923280.203                    22923287.855
 125105339.648 7  97484804.624 6  23806769.164                    23806777.699
 128766890.142 6 100337788.09243  24503508.484                    24503517.316
 108758894.655 8  84747259.336 8  20696108.383                    20696114.766
 115148110.502 7  89725846.463 6  21911954.180                    21911961.750
 114023094.634 8  88849214.472 7  21697872.023                    21697881.609
 132272094.426 6 103069226.87042  25170553.531                    25170560.430
 115483794.238 8  89987455.27345  21975811.664                    21975816.305
 11  8 19  2 42 30.0000000  0 10G12G30G26G15G10G05G29G25G21G02
 116057711.253 8  90434648.692 7  22085046.602                    22085053.688
 115136797.428 8  89717059.79645  21909805.445                    21909813.102
 120374246.030 7  93798182.93344  22906458.375                    22906466.504
 125008935.837 6  97409684.842 6  23788424.391                    23788433.066
 128875821.344 6 100422669.51243  24524237.039                    24524246.398
 108806153.396 8  84784084.338 8  20705101.492                    20705107.586
 115072068.568 7  89666593.066 6  21897484.625                    21897491.746
 114048551.640 8  88869051.104 7  21702716.461                    21702725.277
 132215648.976 6 103025243.45642  25159810.938                    25159819.699
 115526212.318 8  90020508.31245  21983883.609                    21983888.715
 11  8 19  2 43  0.0000000  0 10G12G30G26G15G10G05G29G25G21G02
 116136784.974 8  90496264.558 7  22100094.445                    22100101.496
 115180346.429 8  89750994.08545  21918092.305                    21918100.227
 120286071.718 7  93729475.71344  22889679.094                    22889686.883
 124912523.022 6  97334558.072 6  23770077.352                    23770086.137
 128984798.974 6 100507587.12743  24544974.945                    24544984.422
 108853842.593 8  84821244.756 8  20714176.344                    20714183.039
 114996195.170 7  89607470.994 6  21883045.813                    21883053.152
 114074539.319 8  88889301.240 7  21707661.742                    21707671.227
 132159213.596 5 102981268.07842  25149071.328                    25149080.715
 115568715.940 8  90053628.00645  21991972.039                    21991976.625
 11  8 19  2 43 30.0000000  0 10G12G30G26G15G10G05G29G25G21G02
 116216161.826 8  90558116.636 7  22115199.109                    22115206.055
 115224379.991 8  89785305.95845  21926472.109                    21926479.051
 120198124.988 7  93660945.81744  22872943.758                    22872951.445
 124816104.174 7  97259426.576 6  23751729.695                    23751737.906
 129093820.593 6 100592539.00842  24565721.125                    24565730.680
 108901960.114 8  84858738.933 8  20723332.852                    20723339.090
 114920492.669 7  89548482.094 6  21868639.891                    21868647.504
 114101056.308 8  88909963.822 7  21712707.672                    21712716.949
 132102787.980 5                  25138333.680
 115611305.262 8  90086814.48745  22000076.633                    22000080.969
 11  8 19  2 44  0.0000000  0 10G12G30G26G15G10G05G29G25G21G02
 116295839.101 7  90620202.807 7  22130361.391                    22130368.207
 115268895.891 8  89819993.67945  21934943.008                    21934950.027
 120110409.807 7  93592596.35344  22856251.703                    22856260.305
 124719682.302 7  97184292.765 6  23733381.461                    23733388.824
 129202884.014 6 100677523.47942  24586474.609                    24586483.832
 108950504.069 8  84896565.404 8  20732570.328                    20732577.309
 114844963.699 7  89489628.409 6  21854267.391                    21854274.648
 114128101.142 8  88931037.710 7  21717853.781                    21717863.457
 132046371.731 5                  25127597.359
 115653980.744 8  90120068.12845  22008196.961                    22008202.176
 11  8 19  2 44 30.0000000  0  9G12G30G26G15G05G29G25G21G02
 116375814.200 7  90682521.057 7  22145579.906                    22145587.063
 115313892.134 8  89855055.69145  21943505.320                    21943512.664
 120022930.208 7  93524430.50444  22839605.516                    22839613.879
 124623260.862 7  97109159.282 6  23715033.039                    23715040.418
 108999472.625 8  84934722.738 8  20741888.609                    20741895.262
 114769610.974 7  89430912.070 6  21839928.070                    21839935.645
 114155672.665 8  88952522.006 7  21723100.984                    21723110.320
 131989964.714 5                  25116863.070
 115696742.563 8  90153389.03745  22016334.906                    22016339.430
 11  8 19  2 45  0.0000000  0  9G12G30G26G15G05G29G25G21G02
 116456083.888 7  90745068.848 7  22160855.023                    22160861.777
 115359365.645 7  89890489.58945  21952158.203                    21952166.074
 119935689.436 7  93456450.71144  22823003.703                    22823011.008
 124526842.128 7  97034027.879 6  23696684.914                    23696692.738
 109048862.919 8  84973208.689 8  20751287.219                    20751294.051
 114694435.882 7  89372334.150 6  21825622.906                    21825629.980
 114183768.586 8  88974414.923 7  21728446.953                    21728456.707
 131933565.324 5                  25106131.211
 115739590.725 8  90186777.21445  22024488.430                    22024492.969
 11  8 19  2 45 30.0000000  0  9G12G30G26G15G05G29G25G21G02
 116536643.623 8  90807842.648 7  22176185.063                    22176191.836
 115405313.086 7  89926292.79845  21960901.523                    21960909.355
 119848689.955 7  93388658.94544  22806448.430                    22806455.512
 124430428.112 7  96958900.138 6  23678338.023                    23678345.719
 109098671.455 8  85012020.552 8  20760765.711                    20760772.059
 114619439.792 7  89313895.700 6  21811351.305                    21811358.320
 114212386.366 8  88996714.485 7  21733893.141                    21733902.746
 131877172.484 6                  25095401.070
 115782524.310 8  90220231.96145  22032658.445                    22032663.172
 11  8 19  2 46  0.0000000  0  9G12G30G26G15G05G29G25G21G02
 116617490.885 7  90870840.503 7  22191569.734                    22191576.359
 115451732.093 7  89962463.44745  21969734.969                    21969742.813
 119761935.750 7  93321058.30844  22789939.766                    22789946.988
 124334021.843 7  96883778.453 6  23659992.336                    23660000.590
 109148896.367 8  85051156.861 8  20770323.000                    20770329.754
 114544625.068 7  89255598.580 6  21797115.102                    21797121.934
 114241524.496 8  89019419.513 7  21739437.797                    21739446.926
 131820785.793 6 102717554.48952  25084671.828                    25084677.641
 115825543.766 8  90253753.65445  22040844.477                    22040849.109
 11  8 19  2 46 30.0000000  0  9G12G30G26G15G05G29G25G21G02
 116698623.327 7  90934060.564 7  22207009.070                    22207015.348
 115498620.674 7  89999000.00045  21978657.422                    21978665.406
 119675431.133 7  93253652.14444  22773478.367                    22773486.016
 124237626.599 7  96808665.345 6  23641648.625                    23641657.375
 109199536.124 8  85090616.428 8  20779959.766                    20779966.324
 114469994.498 7  89197444.947 6  21782913.336                    21782920.250
 114271181.683 8  89042528.997 7  21745081.109                    21745090.770
 131764405.087 6 102673621.61442  25073941.898                    25073949.684
 115868649.512 8  90287342.57845  22049047.188                    22049051.527
 11  8 19  2 47  0.0000000  0  9G12G30G26G15G05G29G25G21G02
 116780037.745 7  90997500.360 7  22222501.305                    22222507.992
 115545976.416 7  90035900.57845  21987669.156                    21987677.008
 119589179.550 7  93186443.16744  22757064.805                    22757072.227
 124141245.165 7  96733562.989 6  23623308.148                    23623316.383
 109250587.868 8  85130397.023 8  20789674.461                    20789680.887
 114395550.104 7  89139436.392 6  21768746.828                    21768753.711
 114301356.190 8  89066041.595 7  21750823.086                    21750832.699
 131708029.835 6 102629692.93343  25063214.211                    25063222.934
 115911841.660 8  90320998.81145  22057266.094                    22057270.676
 11  8 19  2 47 30.0000000  0  9G12G30G26G15G05G29G25G21G02
 116861731.430 7  91061157.761 7  22238047.125                    22238053.984
 115593796.625 7  90073163.06945  21996768.789                    21996776.820
 119503184.964 7  93119434.42344  22740700.648                    22740707.801
 124044880.901 7  96658474.012 6  23604970.297                    23604978.141
 109302049.818 8  85170497.264 8  20799467.117                    20799473.910
 114321294.395 7  89081574.836 6  21754616.234                    21754623.555
 114332046.273 8  89089955.934 7  21756663.711                    21756673.141
 131651659.419 6 102585767.98343  25052486.875                    25052496.379
 115955120.771 8  90354722.80245  22065501.961                    22065507.098
 11  8 19  2 48  0.0000000  0  9G12G30G26G15G05G29G25G21G02
 116943701.284 7  91125030.371 7  22253645.094                    22253652.176
 115642079.195 7  90110785.85545  22005956.766                    22005964.664
 119417451.063 7  93052628.81744  22724386.320                    22724393.406
 123948537.029 7  96583400.953 6  23586637.172                    23586644.223
 109353919.856 8  85210915.477 8  20809338.039                    20809344.324
 114247229.865 7  89023862.255 6  21740522.039                    21740529.359
 114363250.487 8  89114270.901 7  21762601.383                    21762610.996
 131595293.475 6 102541846.49742  25041760.258                    25041769.902
 115998486.621 8  90388514.37445  22073754.672                    22073759.008
 11  8 19  2 48 30.0000000  0  9G12G30G26G15G05G29G25G21G02
 117025944.214 7  91189115.751 7  22269295.297                    22269302.762
 115690821.463 8  90148766.83345  22015232.359                    22015239.969
 119331981.622 7  92986029.27044  22708121.945                    22708129.617
 123852215.956 7  96508345.644 6  23568307.430                    23568314.859
 109406195.451 8  85251649.717 8  20819285.406                    20819292.352
 114173358.500 7  88966300.181 6  21726465.320                    21726472.258
 114394966.929 8  89138985.005 7  21768637.016                    21768646.539
 131538931.439 6 102497928.10343  25031034.875                    25031044.055
 116041939.528 8  90422373.77245  22082023.078                    22082028.352
 11  8 19  2 49  0.0000000  0  9G12G30G26G15G05G29G25G21G02
 117108457.209 7  91253411.565 7  22284997.391                    22285004.488
 115740020.438 7  90187103.70245  22024594.484                    22024602.582
 119246780.133 7  92919638.53444  22691908.313                    22691915.637
 123755920.612 7  96433310.397 6  23549983.125                    23549989.910
 109458873.928 8  85292697.890 7  20829309.766                    20829316.480
 114099682.206 7  88908890.095 6  21712444.867                    21712451.742
 114427193.431 8  89164096.566 7  21774769.453                    21774778.914
 131482572.377 6 102454012.02343  25020311.086                    25020319.332
 116085479.722 8  90456301.22545  22090308.289                    22090313.867
 11  8 19  2 49 30.0000000  0  9G12G30G26G15G05G29G25G21G02
 117191237.742 7  91317915.876 7  22300749.852                    22300757.430
 115789673.795 7  90225794.63145  22034043.313                    22034051.348
 119161850.117 7  92853459.30244  22675746.922                    22675753.777
 123659653.853 7  96358297.405 6  23531664.102                    23531671.336
 109511953.137 8  85334058.311 7  20839410.406                    20839416.805
 114026203.777 7  88851634.206 6  21698462.406                    21698469.523
 114459928.352 8  89189604.302 7  21780998.797                    21781008.039
 131426215.811 6 102410097.88643  25009586.547                    25009594.289
 116129107.460 8  90490296.86345  22098611.039                    22098615.699
 11  8 19  2 50  0.0000000  0  9G12G30G26G15G05G29G25G21G02
 117274281.933 7  91382625.627 7  22316552.797                    22316560.207
 115839778.754 7  90264837.45445  22043577.766                    22043585.926
 119077195.303 7  92787494.53144  22659637.695                    22659645.012
 123563418.546 7  96283308.947 6  23513350.625                    23513358.883
 109565430.784 8  85375729.215 7  20849587.242                    20849592.988
 113952925.089 7  88794533.946 6  21684517.805                    21684525.152
 114493169.698 8  89215506.649 7  21787324.367                    21787334.184
 131369861.293 6 102366185.36443  24998862.172                    24998870.316
 116172822.576 8  90524360.59145  22106929.797                    22106934.414
 11  8 19  2 50 30.0000000  0  9G12G30G26G15G05G29G25G21G02
 117357586.821 7  91447538.520 7  22332404.992                    22332412.109
 115890332.619 7  90304230.08145  22053198.273                    22053205.742
 118992819.170 7  92721746.92544  22643581.453                    22643589.113
 123467217.776 7  96208347.387 6  23495044.367                    23495052.492
 109619304.464 8  85417708.714 7  20859838.859                    20859844.969
 113879848.520 7  88737591.205 6  21670611.484                    21670618.828
 114526915.458 8  89241802.056 7  21793745.828                    21793755.484
 131313508.297 7 102322274.00343  24988138.320                    24988146.719
 116216625.257 8  90558492.54645  22115264.625                    22115270.016
 11  8 19  2 51  0.0000000  0  9G12G30G26G15G05G29G25G21G02
 117441149.907 7  91512652.605 7  22348307.102                    22348313.480
 115941333.121 7  90343970.73945  22062903.422                    22062911.020
 118908726.018 7  92656219.83144  22627578.656                    22627586.602
 123371054.912 7  96133415.348 6  23476745.219                    23476753.621
 109673572.248 8  85459995.306 7  20870165.711                    20870172.066
 113806976.435 7  88680807.792 6  21656744.328                    21656751.367
 114561164.129 8  89268489.347 7  21800263.188                    21800272.773
 131257156.069 6 102278363.25143  24977415.430                    24977423.184
 116260516.305 7  90592693.36345  22123616.805                    22123622.258
 11  8 19  2 51 30.0000000  0  9G12G30G26G15G05G29G25G21G02
 117524968.054 7  91577965.435 7  22364256.633                    22364263.477
 115992777.666 7  90384057.40845  22072692.961                    22072700.559
 118824919.427 7  92590916.04844  22611630.844                    22611638.438
 123274932.745 7  96058515.010 6  23458453.563                    23458462.051
 109728231.558 8  85502587.001 8  20880566.750                    20880573.309
 113734311.403 7  88624185.740 6  21642917.172                    21642924.195
 114595913.837 8  89295567.051 7  21806875.594                    21806885.605
 131200804.336 6 102234452.89143  24966691.047                    24966699.633
 116304495.559 7  90626962.93445  22131985.508                    22131991.137
 11  8 19  2 52  0.0000000  0  9G12G30G26G15G05G29G25G21G02
 117609038.041 7  91643474.492 7  22380254.469                    22380262.051
 116044663.395 7  90424487.84745  22082566.273                    22082573.941
 118741402.741 7  92525838.11444  22595738.219                    22595745.484
 123178854.111 7  95983648.605 6  23440170.305                    23440178.703
 109783280.084 8  85545481.964 7  20891041.930                    20891048.859
 113661855.305 7  88567726.497 6  21629129.258                    21629135.961
 114631162.441 8  89323033.506 7  21813583.055                    21813592.934
 131144452.442 6 102190542.44443  24955967.992                    24955976.484
 116348563.453 7  90661301.55645  22140371.391                    22140376.508
 11  8 19  2 52 30.0000000  0  9G12G30G26G15G05G29G25G21G02
 117693357.080 7  91709177.628 7  22396300.227                    22396307.695
 116096987.434 7  90465259.83345  22092523.250                    22092530.996
 118658179.568 7  92460988.92744  22579901.063                    22579909.109
 123082821.799 7  95908818.294 6  23421896.461                    23421903.758
 109838715.120 7  85588678.101 7  20901591.070                    20901597.512
 113589610.546 7  88511431.936 6  21615381.273                    21615387.754
 114666907.853 8  89350887.096 7  21820385.375                    21820395.094
 131088099.750 6 102146631.36543  24945244.547                    24945252.410
 116392719.957 7  90695709.24445  22148774.344                    22148779.043
 11  8 19  2 53  0.0000000  0  9G12G30G26G15G05G29G25G21G02
 117777921.394 7  91775071.885 7  22412392.320                    22412399.535
 116149746.796 7  90506371.02645  22102563.055                    22102570.402
 118575253.377 7  92396371.15244  22564120.625                    22564129.074
 122986838.729 7  95834026.346 6  23403631.133                    23403638.840
 109894533.948 8  85632173.301 8  20912213.000                    20912219.922
 113517578.759 7  88455303.329 6  21601673.703                    21601680.715
 114703147.639 8  89379125.899 7  21827281.750                    21827291.371
 131031745.419 6 102102719.01443  24934520.680                    24934528.613
 116436964.931 7  90730185.86445  22157193.875                    22157198.754
 11  8 19  2 53 30.0000000  0  9G12G30G26G15G05G29G25G21G02
 117862728.733 7  91841155.518 7  22428530.648                    22428537.598
 116202939.460 7  90547819.85445  22112685.266                    22112692.922
 118492628.452 7  92331988.10144  22548397.859                    22548406.277
 122890908.228 7  95759275.391 6  23385375.750                    23385383.281
 109950735.175 7  85675966.481 7  20922907.773                    20922914.051
 113445763.425 7  88399343.380 6  21588007.984                    21588014.633
 114739880.637 8  89407749.021 7  21834271.758                    21834281.324
 130975389.324 6 102058805.26243  24923796.305                    24923804.859
 116481299.249 7  90764732.11045  22165630.242                    22165634.766
 11  8 19  2 54  0.0000000  0  9G12G30G26G15G05G29G25G21G02
 117947775.762 7  91907425.913 7  22444714.477                    22444721.766
 116256562.401 7  90589603.95945  22122889.258                    22122896.746
 118410308.149 7  92267842.44544  22532732.523                    22532740.676
 122795033.139 7  95684567.596 6  23367131.305                    23367138.836
 110007315.953 8  85720055.415 8  20933674.922                    20933681.230
 113374166.174 7  88343553.365 6  21574383.047                    21574390.148
 114777104.447 8  89436754.601 7  21841355.227                    21841364.906
 130919030.859 6 102014889.65243  24913071.375                    24913080.059
 116525722.870 7  90799347.90745  22174083.719                    22174088.414
 11  8 19  2 54 30.0000000  0  9G12G30G26G15G05G29G25G21G02
 118033059.453 7  91973880.723 7  22460943.484                    22460950.684
 116310613.090 7  90631721.37745  22133174.711                    22133182.145
 118328296.308 7  92203937.14545  22517126.461                    22517134.789
 122699216.752 7  95609905.544 6  23348897.969                    23348905.453
 110064273.879 7  85764438.225 7  20944513.563                    20944520.105
 113302789.528 7  88287935.238 6  21560800.859                    21560807.871
 114814817.139 8  89466141.127 7  21848531.688                    21848541.203
 130862669.137 6 101970971.54943  24902345.758                    24902353.973
 116570236.186 7  90834033.61245  22182554.430                    22182558.789
 11  8 19  2 55  0.0000000  0  9G12G30G26G15G05G29G25G21G02
 118118576.842 7  92040517.635 7  22477216.539                    22477223.910
 116365088.611 8  90674169.83645  22143541.344                    22143548.543
 118246596.480 7  92140274.99345  22501579.695                    22501587.660
 122603462.051 7  95535291.544 6  23330676.961                    23330684.395
 110121606.715 8  85809113.169 7  20955423.375                    20955429.867
 113231635.956 7  88232490.924 6  21547260.094                    21547267.551
 114853016.644 8  89495906.977 7  21855801.180                    21855810.449
 130806303.765 6 101927050.57743  24891619.938                    24891628.543
 116614839.267 8  90868789.26045  22191042.352                    22191046.953
 11  8 19  2 55 30.0000000  0  9G12G30G26G15G05G29G25G21G02
 118204324.839 7  92107334.240 7  22493534.484                    22493541.090
 116419986.233 7  90716947.19245  22153987.992                    22153995.121
 118165212.274 7  92076858.76144  22486092.539                    22486100.242
 122507771.836 7  95460727.798 6  23312467.555                    23312475.129
 110179312.165 8  85854078.453 7  20966404.672                    20966411.039
 113160707.514 7  88177222.032 6  21533762.727                    21533770.125
 114891700.894 8  89526050.541 7  21863162.320                    21863171.363
 130749934.280 6 101883126.40543  24880892.742                    24880902.273
 116659532.506 8  90903615.14645  22199547.492                    22199552.418
 11  8 19  2 56  0.0000000  0  9G12G30G26G15G05G29G25G21G02
 118290300.211 7  92174328.012 6  22509894.695                    22509901.578
 116475302.910 7  90760051.10145  22164514.555                    22164522.047
 118084147.101 7  92013691.14144  22470666.500                    22470673.566
 122412148.913 6  95386216.480 6  23294271.242                    23294278.789
 110237387.192 8  85899331.727 7  20977455.906                    20977462.512
 113090006.329 7  88122130.228 6  21520309.367                    21520316.395
 114930867.500 8  89556569.973 7  21870615.359                    21870624.770
 130693559.966 6 101839198.43743  24870164.969                    24870174.328
 116704315.858 8  90938511.26045  22208069.219                    22208074.117
 11  8 19  2 56 30.0000000  0  9G12G30G26G15G05G29G25G21G02
 118376499.954 7  92241496.612 6  22526298.227                    22526304.961
 116531036.057 7  90803479.52445  22175119.617                    22175127.453
 118003404.954 7  91950775.19845  22455301.805                    22455309.031
 122316596.296 7  95311759.941 6  23276088.297                    23276096.043
 110295829.809 8  85944871.430 7  20988577.469                    20988583.629
 113019534.954 7  88067217.493 6  21506898.805                    21506905.883
 114970514.508 8  89587463.739 7  21878159.992                    21878169.297
 130637180.310 6 101795266.30343  24859435.992                    24859445.715
 116749189.959 8  90973478.08745  22216608.625                    22216613.789
 11  8 19  2 57  0.0000000  0  9G12G30G26G15G05G29G25G21G02
 118462921.001 7  92308837.678 7  22542743.070                    22542750.125
 116587182.799 7  90847230.22445  22185803.648                    22185811.895
 117922989.251 7  91888113.64445  22439998.336                    22440006.578
 122221117.195 7  95237360.683 6  23257918.789                    23257926.953
 110354637.696 8  85990695.757 7  20999767.688                    20999774.191
 112949295.725 7  88012485.658 6  21493533.156                    21493539.996
 115010639.769 8  89618730.176 7  21885795.484                    21885805.063
 130580794.844 6 101751329.62143  24848706.961                    24848715.340
 116794154.926 7  91008515.74445  22225164.828                    22225169.918
 11  8 19  2 57 30.0000000  0  9G12G30G26G15G05G29G25G21G02
 118549560.198 7  92376348.711 6  22559230.414                    22559237.586
 116643740.289 7  90891300.98745  22196566.555                    22196574.625
 117842903.766 7  91825709.42145  22424758.703                    22424767.359
 122125714.614 7  95163021.061 6  23239764.258                    23239772.398
 110413808.295 8  86036802.719 7  21011027.859                    21011034.316
 112879290.749 7  87957936.336 6  21480211.867                    21480218.855
 115051240.994 8  89650367.484 7  21893521.555                    21893530.852
 130524402.935 6 101707387.94643  24837976.656                    24837983.387
 116839210.722 8  91043624.15545  22233738.328                    22233743.684
 11  8 19  2 58  0.0000000  0  9G12G30G26G15G05G29G25G21G02
 118636414.284 7  92444027.219 7  22575757.898                    22575765.352
 116700705.611 7  90935689.54845  22207406.938                    22207414.266
 117763151.855 7  91763565.10645  22409582.859                    22409590.551
 122030391.739 7  95088743.546 6  23221624.688                    23221632.133
 110473339.076 8  86083190.335 7  21022356.094                    21022362.355
 112809522.475 7  87903571.496 6  21466935.063                    21466941.926
 115092315.934 8  89682373.923 7  21901337.898                    21901347.336
 130468004.048 6 101663440.85943  24827243.703                    24827251.430
 116884357.619 7  91078803.57045  22242329.664                    22242334.902
 11  8 19  2 58 30.0000000  0  9G12G30G26G15G05G29G25G21G02
 118723481.098 7  92511871.467 6  22592326.805                    22592333.848
 116758076.316 7  90980393.98145  22218324.000                    22218331.285
 117683737.774 7  91701684.02645  22394471.563                    22394477.832
 121935151.339 7  95014530.304 6  23203501.219                    23203507.363
 110533228.056 8  86129857.068 7  21033752.500                    21033758.887
 112739993.385 7  87849393.018 6  21453704.242                    21453710.988
 115133862.860 8  89714748.160 7  21909244.078                    21909253.609
 130411597.973 6 101619488.16243  24816508.602                    24816517.375
 116929596.488 8  91114054.62345  22250938.555                    22250943.203
 11  8 19  2 59  0.0000000  0  9G12G30G26G15G05G29G25G21G02
 118810756.722 7  92579878.438 6  22608934.750                    22608941.383
 116815849.355 7  91025411.91945  22229318.008                    22229325.395
 117604664.717 7  91640068.68845  22379424.070                    22379431.453
 121839996.851 7  94940384.021 6  23185393.719                    23185400.445
 110593472.470 8  86176800.764 7  21045216.492                    21045223.285
 112670705.698 7  87795402.656 6  21440519.461                    21440526.035
 115175879.316 8  89747488.251 7  21917239.352                    21917249.492
 130355183.999 6 101575529.28942  24805774.164                    24805782.480
 116974927.236 8  91149377.28045  22259564.836                    22259569.504
 11  8 19  2 59 30.0000000  0  9G12G30G26G15G05G29G25G21G02
 118898238.255 7  92648045.849 6  22625581.961                    22625588.520
 116874021.806 7  91070741.07845  22240388.016                    22240395.016
 117525936.261 7  91578721.87145  22364442.125                    22364449.926
 121744930.917 7  94866306.734 6  23167303.898                    23167310.160
 110654069.793 8  86224019.465 7  21056748.203                    21056754.320
 112601661.905 7  87741602.339 6  21427380.414                    21427386.953
 115218363.012 7  89780592.437 7  21925323.711                    21925333.426
 130298761.448 6 101531563.75643  24795037.391                    24795045.730
 117020350.210 7  91184771.79945  22268208.641                    22268212.547
 11  8 19  3  0  0.0000000  0  9G12G30G26G15G05G29G25G21G02
 118985922.964 7  92716371.560 7  22642268.289                    22642274.367
 116932590.801 7  91116379.25045  22251533.328                    22251540.715
 117447556.177 7  91517646.50145  22349527.461                    22349535.211
 121649956.649 7  94792300.879 6  23149230.664                    23149237.488
 110715017.743 8  86271511.380 7  21068345.852                    21068352.578
 112532864.065 7  87687993.684 6  21414288.578                    21414295.305
 115261311.689 8  89814058.942 7  21933496.336                    21933506.398
 130242329.632 6 101487590.95543  24784298.797                    24784305.844
 117065865.695 8  91220238.40545  22276870.141                    22276874.438
 11  8 19  3  0 30.0000000  0  9G12G30G26G15G05G29G25G21G02
 119073806.937 7  92784852.551 6  22658991.250                    22658998.500
 116991553.041 7  91162323.84745  22262753.320                    22262760.520
 117369527.753 7  91456845.16645  22334678.977                    22334685.914
 121555076.972 7  94718368.717 6  23131175.836                    23131182.855
 110776313.375 8  86319274.212 7  21080010.336                    21080016.551
 112464314.496 7  87634578.490 6  21401243.789                    21401250.664
 115304722.718 8  89847885.713 7  21941757.039                    21941767.441
 130185887.922 6 101443610.48743  24773558.250                    24773565.813
 117111473.663 8  91255777.07245  22285548.992                    22285553.172
 11  8 19  3  1  0.0000000  0  9G12G30G26G15G05G29G25G21G02
 119161887.436 7  92853486.668 7  22675752.266                    22675759.680
 117050905.849 7  91208572.78245  22274047.828                    22274055.707
 117291854.591 7  91396320.65545  22319897.703                    22319905.215
 121460295.206 7  94644512.832 6  23113138.359                    23113146.859
 110837954.681 8  86367306.397 7  21091740.078                    21091746.328
 112396015.943 7  87581358.887 6  21388247.313                    21388253.859
 115348594.081 8  89882071.194 7  21950105.875                    21950115.770
 130129436.162 6 101399622.15043  24762815.633                    24762822.867
 117157174.582 7  91291388.16045  22294245.883                    22294249.711
 11  8 19  3  1 30.0000000  0  9G12G30G26G15G05G29G25G21G02
 119250161.711 7  92922271.775 7  22692550.563                    22692557.891
 117110646.532 7  91255123.95645  22285415.906                    22285424.656
 117214540.632 7  91336076.03245  22305186.055                    22305192.773
 121365614.406 7  94570735.609 6  23095121.344                    23095129.699
 110899939.223 8  86415606.035 7  21103535.609                    21103541.773
 112327970.240 7  87528336.316 6  21375298.609                    21375305.320
 115392923.547 8  89916613.637 7  21958541.508                    21958551.820
 130072973.706 6 101355625.48443  24752071.656                    24752078.664
 117202968.808 8  91327071.94345  22302960.016                    22302964.578
 11  8 19  3  2  0.0000000  0  9G12G30G26G15G05G29G25G21G02
 119338626.605 7  92991205.442 7  22709385.055                    22709392.465
 117170772.303 7  91301975.20245  22296857.969                    22296866.141
 117137589.411 7  91276114.06444  22290542.109                    22290549.422
 121271037.811 7  94497039.590 6  23077123.625                    23077131.965
 110962264.829 8  86464171.444 7  21115395.453                    21115402.051
 112260180.161 7  87475512.923 6  21362397.984                    21362405.402
 115437708.939 7  89951511.334 7  21967063.680                    21967073.680
 130016500.019 7 101311620.10743  24741325.070                    24741332.738
 117248856.799 7  91362828.79645  22311691.742                    22311696.543
 11  8 19  3  2 30.0000000  0  9G12G30G26G15G05G29G25G21G02
 119427279.053 7  93060285.258 7  22726254.828                    22726262.188
 117231279.975 7  91349124.03145  22308371.883                    22308380.102
 117061004.540 7  91216437.57145  22275968.477                    22275975.629
 121176568.078 7  94423426.838 6  23059147.188                    23059154.422
 111024928.927 7  86513000.613 7  21127320.148                    21127326.012
 112192648.200 7  87422890.645 6  21349547.578                    21349554.102
 115482947.788 8  89986762.383 7  21975672.492                    21975682.660
 129960014.726 6 101267605.67943  24730576.180                    24730583.402
 117294838.741 7  91398658.86345  22320442.109                    22320447.176
 11  8 19  3  3  0.0000000  0  9G12G30G26G15G05G29G25G21G02
 119516115.586 7  93129508.511 7  22743160.031                    22743167.266
 117292166.426 7  91396568.01445  22319958.289                    22319966.320
 116984789.379 7  91157049.17345  22261465.461                    22261472.875
 121082208.180 7  94349899.697 6  23041190.984                    23041197.930
 111087928.664 8  86562091.330 7  21139308.719                    21139314.438
 112125376.016 7  87370470.795 7  21336745.641                    21336752.922
 115528637.446 8  90022364.724 7  21984367.211                    21984376.707
 129903517.047 6 101223581.58443  24719824.430                    24719832.500
 117340914.972 7  91434562.44445  22329210.070                    22329215.121
 11  8 19  3  3 30.0000000  0  9G12G30G26G15G05G29G25G21G02
 119605134.224 7  93198873.654 7  22760100.070                    22760107.316
 117353429.278 7  91444305.29845  22331616.336                    22331624.219
 116908947.882 7  91097951.92845  22247033.297                    22247040.871
 120987962.033 7  94276461.197 6  23023256.844                    23023263.379
 111151262.052 8  86611442.032 7  21151360.602                    21151366.672
 112058366.693 7  87318255.767 6  21323994.492                    21324001.332
 115574776.216 8  90058316.995 7  21993146.789                    21993156.879
 129847006.800 6 101179547.72843  24709069.953                    24709078.605
 117387085.983 7  91470539.86045  22337996.031                    22338001.609
 11  8 19  3  4  0.0000000  0  9G12G30G26G15G05G29G25G21G02
 119694330.876 7  93268377.507 7  22777073.320                    22777080.250
 117415065.244 7  91492333.32945  22343345.281                    22343352.891
 116833483.314 7  91039148.39745  22232672.938                    22232681.117
 120893831.963 7  94203113.150 6  23005344.539                    23005350.711
 111214926.274 8  86661050.528 7  21163475.516                    21163481.570
 111991622.295 7  87266247.162 7  21311292.984                    21311300.223
 115621361.249 8  90094617.022 7  22002011.930                    22002021.641
 129790483.348 6 101135503.56643  24698313.859                    24698322.684
 117433352.006 7  91506591.29545  22346799.695                    22346805.367
 11  8 19  3  4 30.0000000  0  9G12G30G26G15G05G29G25G21G02
 119783702.704 7  93338017.887 6  22794080.133                    22794086.863
 117477071.266 7  91540649.71445  22355144.867                    22355152.609
 116758399.278 7  90980641.39745  22218384.758                    22218392.211
 120799821.443 7  94129858.253 6  22987454.508                    22987461.227
 111278919.095 7  86710915.063 7  21175652.891                    21175658.512
 111925145.334 7  87214446.962 7  21298643.328                    21298650.207
 115668390.234 8  90131262.980 7  22010961.336                    22010970.848
 129733946.298 6 101091448.85543  24687555.344                    24687564.047
 117479713.246 7  91542716.92745  22355622.492                    22355627.367
 11  8 19  3  5  0.0000000  0 10G12G30G26G15G18G05G29G25G21G02
 119873246.459 7  93407792.216 7  22811120.430                    22811126.570
 117539444.390 7  91589252.13345  22367014.016                    22367021.531
 116683699.380 7  90922433.70945  22204169.938                    22204177.691
 120705933.290 7  94056698.712 6  22969588.406                    22969595.285
 129686693.24316 101054627.67252  24678563.445                    24678573.152
 111343237.944 8  86761033.663 7  21187892.375                    21187898.395
 111858937.862 7  87162856.752 7  21286044.453                    21286051.168
 115715860.724 8  90168252.964 7  22019994.977                    22020004.238
 129677394.869 6 101047382.97643  24676794.242                    24676802.262
 117526170.126 7  91578917.08045  22364463.039                    22364467.750
 11  8 19  3  5 30.0000000  0 10G12G30G26G15G18G05G29G25G21G02
 119962959.237 7  93477698.266 6  22828191.359                    22828198.590
 117602181.580 7  91638138.24845  22378952.320                    22378960.773
 116609386.877 7  90864527.89345  22190028.320                    22190035.879
 120612170.664 7  93983636.969 7  22951745.188                    22951753.629
 129597004.957 6 100984740.86642  24661496.625                    24661505.270
 111407880.250 8  86811404.292 7  21200193.203                    21200199.566
 111793002.333 7  87111478.457 7  21273497.438                    21273504.328
 115763770.109 8  90205584.948 7  22029111.961                    22029121.375
 129620828.437 6 101003305.36143  24666030.266                    24666037.859
 117572722.772 7  91615191.87945  22373321.758                    22373326.656
 11  8 19  3  6  0.0000000  0 10G12G30G26G15G18G05G29G25G21G02
 120052837.311 7  93547733.118 7  22845294.586                    22845301.996
 117665279.260 7  91687305.26345  22390959.242                    22390967.277
 116535465.026 7  90806926.47845  22175961.242                    22175968.996
 120518536.031 7  93910674.933 7  22933927.336                    22933935.949
 129507479.537 5 100914981.04842  24644459.070                    24644468.875
 111472843.027 8  86862024.637 7  21212555.406                    21212561.332
 111727340.651 7  87060313.543 7  21261001.914                    21261009.145
 115812115.503 8  90243256.670 7  22038311.641                    22038321.590
 129564246.144 6 100959215.38343  24655263.055                    24655270.434
 117619371.245 7  91651541.34545  22382198.586                    22382203.766
 11  8 19  3  6 30.0000000  0 10G12G30G26G15G18G05G29G25G21G02
 120142878.479 7  93617895.063 6  22862428.555                    22862436.227
 117728735.280 7  91736751.48245  22403034.172                    22403042.320
 116461938.176 7  90749632.85945  22161969.609                    22161977.039
 120425033.095 7  93837815.533 6  22916135.164                    22916142.785
 129418118.866 6 100845349.63742  24627453.711                    24627463.469
 111538124.686 8  86912893.469 7  21224977.727                    21224984.293
 111661955.904 7  87009364.423 7  21248559.688                    21248566.789
 115860895.189 8  90281266.804 7  22047593.734                    22047603.816
 129507648.407 6 100915113.37143  24644492.789                    24644500.117
 117666116.365 7  91687966.13145  22391093.414                    22391098.750
 11  8 19  3  7  0.0000000  0 10G12G30G26G15G18G05G29G25G21G02
 120233079.493 7  93688181.567 7  22879594.063                    22879601.078
 117792546.477 7  91786474.48445  22415177.609                    22415184.645
 116388809.548 7  90692649.54545  22148053.844                    22148061.168
 120331665.445 7  93765061.539 7  22898367.758                    22898375.531
 129328924.247 6                  24610481.211
 111603722.669 8  86964008.776 7  21237460.680                    21237466.938
 111596850.526 7  86958632.981 6  21236170.664                    21236177.211
 115910106.644 8  90319613.395 7  22056958.555                    22056968.195
 129451034.533 6 100870998.78443  24633719.063                    24633727.172
 117712958.540 7  91724466.50145  22400007.313                    22400012.734
 11  8 19  3  7 30.0000000  0 10G12G30G26G15G18G05G29G25G21G02
 120323437.330 7  93758590.250 7  22896787.797                    22896795.652
 117856709.656 7  91836471.76045  22427387.133                    22427394.754
 116316082.484 7  90635979.14545  22134214.656                    22134221.793
 120238435.562 7  93692414.938 6  22880626.602                    22880633.879
 129239897.190 6 100706459.11052  24593539.727                    24593546.148
 111669634.054 8  87015368.301 7  21250002.969                    21250009.402
 111532026.485 7  86908120.777 6  21223835.273                    21223841.711
 115959747.171 8  90358294.325 7  22066404.734                    22066414.406
 129394403.711 6 100826870.99143  24622943.031                    24622950.195
 117759898.049 7  91761042.70845  22408940.047                    22408945.145
 11  8 19  3  8  0.0000000  0 10G12G30G26G15G18G05G29G25G21G02
 120413949.150 7  93829118.911 6  22914012.508                    22914019.406
 117921222.392 7  91886741.42245  22439663.656                    22439670.816
 116243761.325 7  90579625.02545  22120451.836                    22120459.551
 120145347.076 7  93619878.514 6  22862911.867                    22862919.129
 129151038.940 6 100637219.10142  24576630.664                    24576638.164
 111735857.450 8  87066970.949 7  21262605.359                    21262611.547
 111467486.871 7  86857830.200 6  21211553.227                    21211560.176
 116009814.860 8  90397308.095 7  22075932.438                    22075941.672
 129337755.986 6 100782730.07043  24612162.570                    24612169.945
 117806935.506 7  91797695.25945  22417890.953                    22417896.395
 11  8 19  3  8 30.0000000  0 10G12G30G26G15G18G05G29G25G21G02
 120504611.397 7  93899764.820 6  22931264.352                    22931271.563
 117986081.030 7  91937280.62544  22452005.789                    22452013.168
 116171848.668 7  90523589.21845  22106767.648                    22106775.539
 120052402.626 7  93547454.311 6  22845225.258                    22845232.195
 129062350.454 6 100568111.40742  24559753.367                    24559761.309
 111802389.457 8  87118814.074 7  21275265.617                    21275272.270
 111403233.556 7  86807762.718 6  21199326.398                    21199332.934
 116060306.562 8  90436652.275 7  22085540.188                    22085549.910
 129281090.593 6 100738575.32843  24601379.859                    24601387.629
 117854071.064 7  91834424.25445  22426860.023                    22426865.340
 11  8 19  3  9  0.0000000  0 10G12G30G26G15G18G05G29G25G21G02
 120595421.371 7  93970525.821 7  22948545.219                    22948552.391
 118051282.710 7  91988087.12344  22464413.305                    22464420.941
 116100348.388 7  90467874.74745  22093161.758                    22093169.477
 119959605.594 7  93475144.971 6  22827566.094                    22827573.082
 128973833.088 6 100499137.03043  24542908.484                    24542918.313
 111869228.059 8  87170896.101 7  21287984.633                    21287990.969
 111339268.744 7  86757920.028 6  21187154.375                    21187160.727
 116111219.924 8  90476325.004 7  22095228.875                    22095238.125
 129224407.042 6 100694406.43043  24590593.133                    24590600.527
 117901305.108 7  91871229.99745  22435848.656                    22435853.465
 11  8 19  3  9 30.0000000  0 10G12G30G26G15G18G05G29G25G21G02
 120686375.892 7  94041399.454 7  22965853.180                    22965860.172
 118116824.255 7  92039158.44245  22476885.352                    22476893.277
 116029263.698 7  90412484.10945  22079634.672                    22079641.867
 119866959.002 7  93402952.863 6  22809936.242                    22809943.629
 128885487.894 6 100430296.77943  24526097.359                    24526106.398
 111936370.394 8  87223214.797 7  21300761.625                    21300768.336
 111275594.868 7  86708304.060 6  21175037.648                    21175044.242
 116162552.295 8  90516324.253 7  22104997.281                    22105006.430
 129167704.795 6 100650223.00643  24579803.008                    24579810.180
 117948638.062 7  91908112.80845  22444855.070                    22444860.477
 11  8 19  3 10  0.0000000  0 10G12G30G26G15G18G05G29G25G21G02
 120777471.769 7  94112383.233 7  22983187.820                    22983195.547
 118182702.573 7  92090492.19245  22489421.336                    22489429.117
 115958598.227 7  90357420.12645  22066187.445                    22066194.836
 119774465.946 7  93330880.392 7  22792335.492                    22792343.246
 128797316.389 6 100361591.84243  24509318.836                    24509327.938
 112003814.138 8  87275768.361 7  21313595.648                    21313602.156
 111212214.496 7  86658916.792 6  21162976.313                    21162983.359
 116214301.107 8  90556647.996 7  22114844.695                    22114853.980
 129110983.451 6 100606024.67743  24569009.477                    24569016.680
 117996070.046 7  91945072.78645  22453881.969                    22453886.785
 11  8 19  3 10 30.0000000  0 10G12G30G26G15G18G05G29G25G21G02
 120868705.521 7  94183474.450 6  23000549.258                    23000556.512
 118248914.229 7  92142085.67145  22502021.055                    22502028.973
 115888354.792 7  90302685.00945  22052820.813                    22052827.867
 119682129.145 7  93258929.683 7  22774764.742                    22774772.742
 128709319.515 6 100293022.98143  24492573.555                    24492581.961
 112071556.075 8  87328554.280 7  21326486.617                    21326492.832
 111149129.529 7  86609759.696 6  21150971.953                    21150978.766
 116266463.392 8  90597293.929 7  22124770.758                    22124780.344
 129054242.142 6 100561810.82643  24558211.242                    24558219.035
 118043601.415 7  91982110.20145  22462927.063                    22462931.652
 11  8 19  3 11  0.0000000  0 10G12G30G26G15G18G05G29G25G21G02
 120960074.793 7  94254671.256 7  23017937.055                    23017943.965
 118315456.659 7  92193936.89844  22514683.422                    22514691.234
 115818537.659 7  90248282.08745  22039534.570                    22039542.184
 119589952.071 7  93187103.416 6  22757223.844                    22757231.656
 128621498.913 6 100224591.48243  24475863.203                    24475870.988
 112139594.915 8  87381571.570 7  21339433.789                    21339440.023
 111086342.734 7  86560834.948 6  21139023.789                    21139030.863
 116319037.083 8  90638260.422 7  22134775.164                    22134785.176
 128997480.888 6 100517581.40943  24547409.406                    24547417.598
 118091232.588 7  92019225.39745  22471991.125                    22471995.879
 11  8 19  3 11 30.0000000  0 10G12G30G26G15G18G05G29G25G21G02
 121051576.092 7  94325970.972 6  23035349.070                    23035356.527
 118382326.539 7  92246043.26844  22527408.211                    22527416.301
 115749149.874 7  90194213.72345  22026330.875                    22026338.164
 119497938.430 7  93115404.517 6  22739714.258                    22739721.895
 128533855.582 6 100156298.16743  24459184.094                    24459192.914
 112207927.534 8  87434817.755 7  21352437.109                    21352443.090
 111023856.260 7  86512144.222 7  21127133.500                    21127140.168
 116372019.309 8  90679545.262 7  22144857.586                    22144867.270
 128940699.027 6 100473335.92743  24536604.695                    24536612.664
 118138963.964 8  92056418.66645  22481074.180                    22481078.438
 11  8 19  3 12  0.0000000  0 10G12G30G26G15G18G05G29G25G21G02
 121143206.932 7  94397371.612 7  23052785.609                    23052792.777
 118449521.321 7  92298402.83945  22540195.461                    22540203.012
 115680195.404 7  90140483.00245  22013208.805                    22013216.488
 119406090.789 7  93043834.973 7  22722235.914                    22722243.867
 128446391.395 6 100088144.40743  24442540.008                    24442548.063
 112276552.238 8  87488291.559 7  21365496.203                    21365502.609
 110961673.227 7  86463689.942 7  21115299.828                    21115307.102
 116425407.989 8  90721146.825 7  22155017.250                    22155026.457
 128883896.268 6 100429074.17143  24525795.813                    24525802.781
 118186796.257 7  92093690.56445  22490176.305                    22490180.844
 11  8 19  3 12 30.0000000  0 10G12G30G26G15G18G05G29G25G21G02
 121234963.812 7  94468870.450 6  23070246.461                    23070253.383
 118517037.544 7  92351012.84944  22553043.555                    22553051.387
 115611677.298 7  90087092.30045  22000170.367                    22000177.930
 119314411.667 7  92972396.733 6  22704789.625                    22704797.000
 128359106.930 6 100020130.70743  24425930.016                    24425938.105
 112345466.006 8  87541990.612 7  21378610.047                    21378616.063
 110899795.686 7  86415473.708 7  21103525.156                    21103531.953
 116479200.097 8  90763062.743 7  22165253.305                    22165263.258
 128827072.200 6 100384795.86043  24514981.992                    24514989.359
 118234729.703 7  92131041.29745  22499297.758                    22499302.477
 11  8 19  3 13  0.0000000  0 10G12G30G26G15G18G05G29G25G21G02
 121326843.591 7  94540465.066 6  23087730.977                    23087737.492
 118584871.727 7  92403870.63345  22565952.289                    22565959.676
 115543598.457 7  90034043.87745  21987215.586                    21987222.750
 119222904.977 7  92901092.867 6  22687376.883                    22687383.594
 128272003.473 6  99952258.06043  24409353.922                    24409362.520
 112414666.043 8  87595912.723 7  21391778.367                    21391785.047
 110838225.282 7  86367496.801 7  21091808.844                    21091815.594
 116533392.710 8  90805290.751 7  22175565.953                    22175576.340
 128770225.768 6 100340500.07443  24504164.344                    24504171.641
 118282764.536 7  92168471.05445  22508438.242                    22508442.930
 11  8 19  3 13 30.0000000  0 10G12G30G26G15G18G05G29G25G21G02
 121418843.149 7  94612153.038 6  23105237.344                    23105244.348
 118653020.962 7  92456973.93045  22578920.305                    22578928.293
 115475962.712 7  89981340.73045  21974344.492                    21974351.914
 119131573.344 7  92829925.414 6  22669997.180                    22670004.340
 128185081.962 6  99884527.20643  24392813.875                    24392822.246
 112484150.014 8  87650056.098 7  21405000.477                    21405006.633
 110776964.400 7  86319761.082 7  21080151.156                    21080157.914
 116587983.292 8  90847828.874 7  22185954.203                    22185964.148
 128713357.028 6 100296186.90443  24493342.258                    24493350.082
 118330901.098 7  92205980.07745  22517598.219                    22517603.801
 11  8 19  3 14  0.0000000  0 10G12G30G26G15G18G05G29G25G21G02
 121510959.790 7  94683932.217 6  23122766.508                    23122773.227
 118721482.569 7  92510320.63645  22591948.398                    22591956.406
 115408773.841 7  89928985.79845  21961558.805                    21961566.414
 119040420.594 7  92758897.346 6  22652651.195                    22652658.477
 128098344.424 6  99816939.59943  24376308.000                    24376316.457
 112553915.888 8  87704419.114 7  21418276.391                    21418282.863
 110716016.452 7  86272269.196 7  21068553.641                    21068559.805
 116642969.559 8  90890675.305 7  22196417.492                    22196427.652
 128656465.789 6 100251856.22343  24482515.828                    24482523.543
 118379140.046 7  92243568.84945  22526777.547                    22526782.820
 11  8 19  3 14 30.0000000  0 10G12G30G26G15G18G05G29G25G21G02
 121603190.225 7  94755800.099 6  23140318.164                    23140324.418
 118790252.962 7  92563907.94845  22605034.797                    22605043.113
 115342034.612 7  89876981.23345  21948859.086                    21948866.363
 118949449.374 7  92688010.735 7  22635339.688                    22635347.125
 128011791.472 6  99749495.91443  24359837.063                    24359846.301
 112623960.898 8  87758999.639 7  21431605.641                    21431612.336
 110655383.211 7  86225022.538 7  21057015.258                    21057021.504
 116698348.468 8  90933827.702 7  22206955.750                    22206965.723
 128599551.285 6 100207507.39243  24471686.094                    24471692.738
 118427481.617 7  92281237.58145  22535976.992                    22535982.215
 11  8 19  3 15  0.0000000  0 10G12G30G26G15G18G05G29G25G21G02
 121695531.912 7  94827754.648 6  23157889.414                    23157896.473
 118859329.230 7  92617733.60845  22618179.664                    22618187.527
 115275748.641 7  89825329.85745  21936245.547                    21936252.867
 118858663.037 7  92617268.170 7  22618063.820                    22618070.953
 127925424.697 6  99682197.22143  24343401.641                    24343411.234
 112694282.707 8  87813795.853 7  21444987.656                    21444993.789
 110595067.358 7  86178023.193 7  21045537.359                    21045543.707
 116754117.494 8  90977284.072 7  22217568.375                    22217578.102
 128542613.523 7 100163140.42243  24460851.188                    24460857.949
 118475926.141 7  92318986.55144  22545195.211                    22545200.070
 11  8 19  3 15 30.0000000  0 10G12G30G26G15G18G05G29G25G21G02
 121787981.626 7  94899793.376 6  23175481.773                    23175489.266
 118928708.193 7  92671795.12545  22631382.063                    22631389.910
 115209919.242 7  89774034.26045  21923718.133                    21923725.465
 118768064.658 7  92546672.070 7  22600823.172                    22600830.965
 127839244.997 6  99615044.35043  24327002.594                    24327011.160
 112764878.799 8  87868805.798 7  21458421.492                    21458427.926
 110535070.831 6  86131272.670 6  21034120.523                    21034126.977
 116810273.848 7  91021042.267 7  22228254.602                    22228264.527
 128485651.330 7 100118754.42043  24450011.336                    24450018.449
 118524474.256 7  92356816.25944  22554434.266                    22554438.109
 11  8 19  3 16  0.0000000  0 10G12G30G26G15G18G05G29G25G21G02
 121880535.758 7  94971913.444 6  23193094.852                    23193102.707
 118998386.627 7  92726089.99445  22644642.000                    22644649.738
 115144549.732 7  89723097.00745  21911278.258                    21911286.387
 118677657.355 7  92476224.851 7  22583619.266                    22583626.828
 127753253.536 6  99548038.10142  24310638.430                    24310646.793
 112835746.741 8  87924027.572 7  21471907.508                    21471913.699
 110475396.205 7  86084772.975 6  21022764.203                    21022771.270
 116866814.802 7  91065100.131 7  22239013.430                    22239023.855
 128428664.638 6 100074349.32943  24439166.570                    24439174.797
 118573126.294 7  92394726.96044  22563692.258                    22563696.219
 11  8 19  3 16 30.0000000  0 10G12G30G26G15G18G05G29G25G21G02
 121973191.463 7  95044112.680 6  23210726.414                    23210733.805
 119068361.244 7  92780615.66245  22657956.547                    22657964.961
 115079643.145 7  89672520.46845  21898927.297                    21898934.688
 118587444.180 7  92405928.910 7  22566452.320                    22566459.484
 127667451.444 6  99481179.45443  24294311.297                    24294319.449
 112906883.826 8  87979459.059 7  21485444.227                    21485450.512
 110416045.596 6  86038525.761 6  21011470.516                    21011477.391
 116923737.433 8  91109455.416 7  22249845.633                    22249855.598
 128371652.674 6 100029924.55343  24428317.453                    24428324.973
 118621882.442 7  92432718.73244  22572970.000                    22572974.281
 11  8 19  3 17  0.0000000  0 10G12G30G26G15G18G05G29G25G21G02
 122065945.761 7  95116388.738 6  23228376.141                    23228383.871
 119138628.982 7  92835369.72945  22671328.594                    22671336.758
 115015202.825 7  89622307.27045  21886664.961                    21886671.898
 118497427.934 7  92335786.417 7  22549322.938                    22549330.074
 127581839.766 6  99414469.10143  24278019.453                    24278027.398
 112978287.755 8  88035098.483 7  21499031.836                    21499038.027
 110357021.408 7  85992532.911 6  21000238.461                    21000245.105
 116981039.090 7  91154106.044 7  22260750.203                    22260759.488
 128314615.193 7  99985479.87143  24417463.742                    24417470.980
 118670743.160 7  92470792.00745  22582267.977                    22582272.578
 11  8 19  3 17 30.0000000  0 10G12G30G26G15G18G05G29G25G21G02
 122158795.784 7  95188739.374 6  23246045.219                    23246052.703
 119209186.623 7  92890349.71045  22684755.539                    22684763.090
 114951232.072 7  89572459.95245  21874491.242                    21874498.152
 118407611.678 7  92265799.751 6  22532231.438                    22532238.313
 127496419.689 6  99347908.11943  24261765.102                    24261773.395
 113049956.101 8  88090943.934 7  21512670.063                    21512676.125
 110298325.992 7  85946796.237 6  20989069.391                    20989075.121
 117038716.945 7  91199049.823 7  22271725.805                    22271736.223
 128257551.807 6  99941014.98443  24406604.117                    24406612.398
 118719708.865 7  92508947.05245  22591585.930                    22591590.840
 11  8 19  3 18  0.0000000  0 10G12G30G26G15G18G05G29G25G21G02
 122251738.376 7  95261162.147 6  23263732.000                    23263739.176
 119280031.242 7  92945553.28844  22698237.203                    22698244.176
 114887734.488 7  89522981.34845  21862408.523                    21862415.547
 118317999.266 7  92195971.953 6  22515178.563                    22515185.363
 127411192.613 7  99281497.50843  24245547.313                    24245555.254
 113121886.628 8  88146993.674 7  21526357.922                    21526364.020
 110239961.947 7  85901317.793 6  20977962.977                    20977969.211
 117096768.442 7  91244284.733 7  22282772.852                    22282783.059
 128200462.333 6  99896529.77843  24395740.898                    24395747.676
 118768780.013 7  92547184.30645  22600924.164                    22600929.000
 11  8 19  3 18 30.0000000  0 10G12G30G26G15G18G05G29G25G21G02
 122344770.347 7  95333654.572 6  23281435.570                    23281443.270
 119351159.215 7  93000977.68545  22711771.320                    22711779.637
 114824712.710 7  89473873.49445  21850415.750                    21850422.734
 118228593.162 7  92126304.904 6  22498165.375                    22498172.211
 127326159.060 6  99215237.68143  24229365.344                    24229373.719
 113194076.341 8  88203245.382 7  21540095.156                    21540101.816
 110181930.945 7  85856098.860 6  20966920.039                    20966926.188
 117155190.421 7  91289808.339 7  22293890.156                    22293900.309
 128143345.857 7  99852023.57143  24384872.180                    24384878.984
 118817957.004 7  92585504.03945  22610282.109                    22610287.207
 11  8 19  3 19  0.0000000  0 10G12G30G26G15G18G05G29G25G21G02
 122437888.770 7  95406214.341 7  23299155.750                    23299162.988
 119422567.595 7  93056620.57644  22725360.000                    22725367.680
 114762170.418 7  89425139.26945  21838514.281                    21838521.102
 118139396.628 7  92056801.154 7  22481191.625                    22481198.867
 127241320.306 6  99149129.67143  24213221.219                    24213229.371
 113266522.762 8  88259697.137 7  21553880.891                    21553887.734
 110124235.725 7  85811141.576 6  20955940.742                    20955946.910
 117213980.267 7  91335618.599 7  22305077.266                    22305087.398
 128086202.294 7  99807496.20043  24373997.961                    24374005.219
 118867240.310 7  92623906.60644  22619659.992                    22619665.699
